     2.11           OBSERVATION DATA    G (GPS)             RINEX VERSION / TYPE
teqc 2010Oct21 OPUS Account 20111026 17:07:22UTC            PGM / RUN BY / DATE
J 1523                                                      MARKER NAME
1189                                                        MARKER NUMBER
CSMIDDLETON NGS                                             OBSERVER / AGENCY
0220280359 TRIMBLE 5700 NP 2.32 / SP 2.32                   REC # / TYPE / VERS
11885611 TRM41249.00 NONE                                   ANT # / TYPE
  -749977.6221 -5511269.2990  3111260.3499                  APPROX POSITION XYZ
        1.9990        0.0000        0.0000                  ANTENNA: DELTA H/E/N
     1     1                                                WAVELENGTH FACT L1/2
     5    L1    L2    C1    P1    P2                        # / TYPES OF OBSERV
    15                                                      LEAP SECONDS
  2011     8     3     0     0   30.0000000     GPS         TIME OF FIRST OBS
                                                            END OF HEADER
 11  8  3  0  0 30.0000000  0  8G09G10G17G28G12G04G27G02
 -33862995.07457 -25954731.35254  22038085.3674                   22038084.6604
 -23314434.24256 -18073610.71953  22608750.5394                   22608751.1334
 -85110606.82057 -66234649.12155  21678611.2274                   21678608.3594
-105030241.45356 -80490225.53553  22296999.9454                   22296997.7154
  -4567263.86756  -3515608.93453  24223567.3444                   24223566.9804
 -66092288.56257 -48768371.47756  19875564.0164                   19875561.9384
 -47614217.15657 -36498843.47754  22385174.0004                   22385171.9144
 -37434217.94157 -29124167.82855  21610100.0394                   21610096.3484
 11  8  3  0  1  0.0000000  0  8G09G10G17G28G12G04G27G02
 -33966373.38747 -26035285.89144  22018413.5864                   22018412.3404
 -23506399.48446 -18223193.91443  22572220.6254                   22572221.0314
 -85181410.12547 -66289820.53545  21665137.5234                   21665135.0824
-105068455.83246 -80520003.02344  22289728.4454                   22289725.8014
  -4769575.02346  -3673253.91843  24185068.4534                   24185067.4884
 -66183323.27747 -48839307.60546  19858241.1884                   19858238.7344
 -47707838.21146 -36571794.96944  22367358.3594                   22367356.8634
 -37602763.97747 -29255502.34445  21578027.1024                   21578023.0744
 11  8  3  0  1 30.0000000  0  8G09G10G17G28G12G04G27G02
 -34069064.30546 -26115304.80544  21998872.3524                   21998870.3794
 -23698094.72346 -18372566.71944  22535742.8914                   22535742.8634
 -85252075.43447 -66344884.41845  21651690.0554                   21651688.0004
-105106250.50446 -80549453.48443  22282536.0784                   22282534.3204
  -4971814.66046  -3830843.16443  24146584.3204                   24146582.6914
 -66273771.22747 -48909786.52046  19841029.4844                   19841027.0394
 -47800935.45347 -36644338.31244  22349642.6804                   22349641.0554
 -37770904.64547 -29386520.98445  21546030.9224                   21546026.6214
 11  8  3  0  2  0.0000000  0  8G09G10G17G28G12G04G27G02
 -34171081.77347 -26194798.95744  21979459.0554                   21979457.5514
 -23889529.85246 -18521736.84043  22499313.6644                   22499313.2974
 -85322616.18747 -66399851.25845  21638267.0634                   21638264.3444
-105143639.42246 -80578587.73844  22275421.4614                   22275419.3444
  -5173994.15246  -3988385.57043  24108110.8364                   24108108.7734
 -66363647.00047 -48979819.58246  19823926.4694                   19823924.3554
 -47893523.22347 -36716484.63744  22332023.2734                   22332022.0594
 -37938652.91047 -29517233.88745  21514109.3524                   21514105.6764
 11  8  3  0  2 30.0000000  0  8G09G10G17G28G12G04G27G02
 -34272426.43047 -26273768.82044  21960173.6094                   21960172.0004
 -24080700.74646 -18670701.08643  22462935.2344                   22462934.4844
 -85393031.71547 -66454720.50445  21624867.2504                   21624864.9804
-105180623.28546 -80607406.37944  22268383.3134                   22268382.1684
  -5376111.00846  -4145879.13743  24069648.5944                   24069647.1604
 -66452951.68447 -49049407.63346  19806932.4144                   19806930.2704
 -47985602.08647 -36788234.42244  22314501.2894                   22314499.8634
 -38106007.11347 -29647639.71145  21482262.9064                   21482258.9384
 11  8  3  0  3  0.0000000  0  8G09G10G17G28G12G04G27G02
 -34373100.12547 -26352215.85544  21941016.3134                   21941014.2624
 -24271605.38746 -18819457.86343  22426606.9534                   22426606.9734
 -85463322.84047 -66509492.81645  21611491.2504                   21611488.9844
-105217203.26646 -80635910.32444  22261422.7504                   22261421.1094
  -5578164.58646  -4303323.42643  24031199.4844                   24031197.1954
 -66541687.60247 -49118552.50046  19790046.2974                   19790044.2344
 -48077174.21947 -36859589.35244  22297075.7034                   22297074.1764
 -38272967.74647 -29777738.86345  21450491.4224                   21450487.7814
 11  8  3  0  3 30.0000000  0  8G09G10G17G28G12G04G27G02
 -32897677.02347 -25202535.51244  22221779.5634                   22221778.0784
 -22886810.59846 -17740396.88344  22690124.2664                   22690124.2344
 -83958063.49247 -65336563.45745  21897932.2194                   21897930.3484
-103677955.32446 -79436496.39544  22554331.8594                   22554330.0394
  -4204722.29746  -3233108.62943  24292556.5084                   24292555.1054
 -65054429.92647 -47959650.40646  20073062.1174                   20073059.9414
 -46592814.00446 -35702945.05944  22579539.5784                   22579538.7774
 -36864105.02347 -28679923.70345  21718588.9304                   21718585.2464
 11  8  3  0  4  0.0000000  0  8G09G10G17G28G12G04G27G02
 -32997004.55147 -25279933.60544  22202878.5474                   22202876.6564
 -23077165.68046 -17888725.41043  22653901.6094                   22653901.3204
 -84028098.49247 -65391136.18745  21884605.5234                   21884603.2774
-103713722.81646 -79464367.22744  22547525.3134                   22547523.5354
  -4406636.08246  -3390443.94543  24254134.4454                   24254131.7034
 -65142026.00447 -48027907.09046  20056393.0474                   20056390.9654
 -46683368.63747 -35773507.10944  22562307.8674                   22562306.3324
 -37030269.41047 -28809402.41845  21686968.5234                   21686964.4144
 11  8  3  0  4 30.0000000  0  8G09G10G17G28G12G04G27G02
 -33095659.80947 -25356807.82444  22184105.0944                   22184103.3874
 -23267240.27746 -18036835.39844  22617730.7814                   22617730.5634
 -84098004.96547 -65445608.76245  21871302.4384                   21871300.0904
-103749084.49246 -79491921.83643  22540796.1094                   22540794.5904
  -4608476.68446  -3547722.27343  24215723.8284                   24215722.9454
 -65229053.63347 -48095720.82446  20039832.1414                   20039830.1564
 -46773415.99647 -35843673.91844  22545173.2974                   22545171.3914
 -37196033.71947 -28938569.36745  21655425.0314                   21655420.7894
 11  8  3  0  5  0.0000000  0  8G09G10G17G28G12G04G27G02
 -33193642.88347 -25433158.30944  22165459.4224                   22165457.6684
 -23457030.32446 -18184723.66444  22581615.5634                   22581615.0354
 -84167781.75047 -65499980.29345  21858024.7734                   21858021.9064
-103784040.14146 -79519160.07043  22534143.5554                   22534142.5204
  -4810240.97746  -3704941.13742  24177329.1644                   24177328.4414
 -65315513.73847 -48163092.33246  20023379.6644                   20023377.4534
 -46862956.17247 -35913445.50444  22528133.8914                   22528132.3364
 -37361396.39147 -29067423.35245  21623957.0394                   21623953.3794
 11  8  3  0  5 30.0000000  0  8G09G10G17G28G12G04G27G02
 -33290953.44947 -25508984.72344  22146941.3364                   22146939.7894
 -23646531.11346 -18332386.55543  22545554.3134                   22545553.4804
 -84237427.50447 -65554249.73045  21844771.5634                   21844769.0274
-103818589.35546 -79546081.57443  22527570.0234                   22527567.9104
  -5011926.04346  -3862098.25043  24138949.7034                   24138949.0784
 -65401406.21147 -48230021.53146  20007035.1414                   20007032.5044
 -46951988.82447 -35982821.61744  22511191.5864                   22511190.2154
 -37526355.61747 -29195962.97345  21592566.2504                   21592562.5124
 11  8  3  0  6  0.0000000  0  8G09G10G17G28G12G04G27G02
 -33387589.86747 -25584285.84444  22128552.3054                   22128551.0394
 -23835736.66446 -18479819.34843  22509549.6884                   22509549.3594
 -84306939.56247 -65608414.98845  21831543.9144                   21831540.8794
-103852730.32446 -79572685.01643  22521073.0554                   22521071.6684
  -5213527.15646  -4019189.97343  24100587.0234                   24100586.2384
 -65486730.18747 -48296507.73446  19990798.0704                   19990795.6914
 -47040512.56247 -36051801.18444  22494346.0864                   22494344.8364
 -37690908.05147 -29324185.60545  21561252.9384                   21561249.4224
 11  8  3  0  6 30.0000000  0  8G09G10G17G28G12G04G27G02
 -33483555.60247 -25659064.35944  22110290.9844                   22110289.2194
 -24024646.02746 -18627021.36744  22473601.4224                   22473600.9534
 -84376320.04747 -65662477.70345  21818340.8754                   21818338.5354
-103886466.29346 -79598972.78943  22514653.3524                   22514651.3714
  -5415044.80546  -4176216.60943  24062239.1414                   24062237.8554
 -65571489.69947 -48362554.10246  19974668.9384                   19974666.8834
 -47128531.15646 -36120387.14144  22477596.5084                   22477595.0594
 -37855055.44947 -29452092.62545  21530017.2034                   21530013.5704
 11  8  3  0  7  0.0000000  0  8G09G10G17G28G12G04G27G02
 -33578849.41847 -25733319.30544  22092157.5474                   22092155.4224
 -24213253.43446 -18773988.08244  22437710.5234                   22437709.9104
 -84445566.72347 -65716436.16845  21805164.4304                   21805161.5044
-103919795.33646 -79624943.54343  22508311.2274                   22508310.0744
  -5616474.71146  -4333174.94143  24023908.1024                   24023907.1214
 -65655683.79747 -48428159.88746  19958647.6174                   19958645.0354
 -47216043.36347 -36188578.48844  22460943.7584                   22460941.9884
 -38018794.62147 -29579681.54745  21498858.4614                   21498854.9104
 11  8  3  0  7 30.0000000  0  8G09G10G17G28G12G04G27G02
 -33673470.50447 -25807050.02044  22074150.7114                   22074149.8164
 -24401553.96946 -18920715.68044  22401878.3674                   22401877.2854
 -84514677.30147 -65770288.57845  21792013.0084                   21792010.4884
-103952716.72346 -79650596.62143  22502046.7734                   22502044.5314
  -5817812.96146  -4490061.79343  23985594.7034                   23985593.4884
 -65739312.39147 -48493325.02046  19942733.4224                   19942730.9924
 -47303048.54747 -36256374.77044  22444387.0704                   22444385.8244
 -38182123.14547 -29706950.48045  21467777.7584                   21467773.9884
 11  8  3  0  8  0.0000000  0  8G09G10G17G28G12G04G27G02
 -33767421.16447 -25880258.33244  22056273.2504                   22056271.3134
 -24589545.59046 -19067202.57444  22366104.5864                   22366104.1804
 -84583653.02747 -65824035.90645  21778886.7734                   21778884.3484
-103985232.48046 -79675933.64143  22495858.5554                   22495857.5554
  -6019058.77346  -4646876.61743  23947299.5164                   23947297.7774
 -65822378.17647 -48558051.59846  19926926.2734                   19926923.9964
 -47389549.23047 -36323777.93744  22427927.4304                   22427925.3874
 -38345041.74647 -29833900.00445  21436775.2664                   21436771.7894
 11  8  3  0  8 30.0000000  0  8G09G10G17G28G12G04G27G02
 -33860703.71547 -25952946.05544  22038522.0004                   22038520.3204
 -24777225.83646 -19213446.85544  22330389.7894                   22330389.4964
 -84652495.02347 -65877679.02745  21765786.8524                   21765784.6954
-104017344.61346 -79700956.12943  22489747.9384                   22489746.8984
  -6220211.52746  -4803618.94943  23909020.9304                   23909019.3054
 -65904884.19147 -48622341.99246  19911226.1334                   19911223.8914
 -47475547.90247 -36390789.93044  22411561.8364                   22411559.8794
 -38507551.03947 -29960530.57445  21405851.1954                   21405847.4344
 11  8  3  0  9  0.0000000  0  8G09G10G17G28G12G04G27G02
 -33953318.78947 -26025113.65244  22020898.2974                   22020895.9774
 -24964590.53546 -19359445.22743  22294735.4924                   22294734.6414
 -84721202.48447 -65931217.33245  21752712.3134                   21752710.1524
-104049053.03146 -79725664.05143  22483714.6954                   22483713.1294
  -6421268.18446  -4960286.38743  23870762.4224                   23870759.4534
 -65986831.31247 -48686196.87946  19895631.7344                   19895629.7974
 -47561044.93746 -36457411.01644  22395291.9694                   22395291.3634
 -38669649.64547 -30086841.12145  21375004.6024                   21375000.9924
 11  8  3  0  9 30.0000000  0  8G09G10G17G28G12G04G27G02
 -34045267.08647 -26096761.68044  22003400.8984                   22003398.8484
 -25151636.04346 -19505194.88743  22259142.4614                   22259141.1994
 -84789774.67647 -65984650.21945  21739663.6644                   21739660.8834
-104080358.30946 -79750057.81643  22477757.2584                   22477755.9024
  -6622226.52746  -5116877.23443  23832520.6174                   23832518.0744
 -66068220.64847 -48749617.14146  19880144.1254                   19880141.9654
 -47646041.16847 -36523641.85944  22379118.0234                   22379116.6764
 -38831336.19947 -30212830.60945  21344237.2344                   21344232.8914
 11  8  3  0 10  0.0000000  0  8G09G10G17G28G12G04G27G02
 -34136547.70747 -26167889.45744  21986030.8284                   21986029.1134
 -25338356.94546 -19650691.61744  22223610.7114                   22223609.8524
 -84858209.43747 -66037976.01245  21726640.6254                   21726638.1644
-104111259.24646 -79774136.54743  22471876.5864                   22471875.4144
  -6823082.33646  -5273388.13343  23794298.2894                   23794296.6054
 -66149051.68747 -48812602.34846  19864762.5944                   19864760.3754
 -47730536.12946 -36589482.12144  22363039.1254                   22363037.7504
 -38992608.40647 -30338497.23045  21313547.2274                   21313543.4264
 11  8  3  0 10 30.0000000  0  8G09G10G17G28G12G04G27G02
 -34227161.54747 -26238497.64544  21968787.9454                   21968785.5084
 -25524749.27046 -19795932.31244  22188140.6094                   22188140.2034
 -84926505.94147 -66091194.08645  21713644.1644                   21713641.9224
-104141756.19146 -79797900.48043  22466074.0084                   22466072.8284
  -7023833.28246  -5429817.38643  23756096.4224                   23756094.7774
 -66229325.95747 -48875153.72746  19849486.7194                   19849484.2974
 -47814530.60947 -36654932.39144  22347055.6724                   22347053.8594
 -39153464.94547 -30463839.94145  21282937.9304                   21282933.5164
 11  8  3  0 11  0.0000000  0  8G09G10G17G28G12G04G27G02
 -32741684.29347 -25080982.90644  22251463.9614                   22251462.9614
 -24135381.15646 -18713307.72344  22452528.6094                   22452527.7894
 -83419239.10947 -64916700.46145  22000467.4454                   22000465.5744
-102596426.29346 -78593747.39143  22760139.2974                   22760139.0824
  -5649048.08646  -4358556.10943  24017708.9924                   24017707.7074
 -64733619.71947 -47709668.34045  20134110.0164                   20134107.7034
 -46322600.57047 -35492389.54744  22630959.6954                   22630959.2974
 -37738477.46147 -29361252.25045  21552200.6094                   21552196.9144
 11  8  3  0 11 30.0000000  0  8G09G10G17G28G12G04G27G02
 -32830966.01247 -25150553.09844  22234473.7034                   22234473.3634
 -24321104.27746 -18858026.95343  22417186.1094                   22417185.4924
 -83487256.46547 -64969701.02345  21987524.5314                   21987522.2814
-102626115.35946 -78616881.77343  22754490.9224                   22754489.5634
  -5849580.55946  -4514815.08643  23979549.5314                   23979547.0434
 -64812782.82847 -47771353.86746  20119046.0864                   20119043.9574
 -46405595.95347 -35557061.30944  22615166.8524                   22615165.8594
 -37898499.00847 -29485944.32045  21521749.5474                   21521745.7194
 11  8  3  0 12  0.0000000  0  8G09G10G17G28G12G04G27G02
 -32919583.11747 -25219605.39844  22217611.3674                   22217609.8244
 -24506487.10946 -19002481.01644  22381909.6254                   22381909.1914
 -83555133.03547 -65022591.85545  21974607.6094                   21974605.3524
-102655401.56246 -78639702.25443  22748917.2504                   22748916.3054
  -6049999.93046  -4670985.96143  23941410.5234                   23941408.6414
 -64891392.32847 -47832608.01646  20104087.1954                   20104084.8404
 -46488093.12947 -35621344.84044  22599467.9454                   22599467.2584
 -38058101.43747 -29610309.80545  21491378.3984                   21491373.9184
 11  8  3  0 12 30.0000000  0  8G09G10G17G28G12G04G27G02
 -33007536.82047 -25288140.78544  22200874.2504                   22200872.8674
 -24691526.46546 -19146667.44144  22346697.3134                   22346696.6484
 -83622869.02347 -65075373.16045  21961718.4224                   21961716.3954
-102684285.55546 -78662209.34043  22743421.5944                   22743420.0124
  -6250304.15246  -4827067.08243  23903294.0164                   23903292.0314
 -64969449.89547 -47893432.08245  20089232.9774                   20089231.0634
 -46570093.37147 -35685241.15244  22583864.1254                   22583862.9064
 -38217284.22747 -29734348.29345  21461086.4844                   21461083.2814
 11  8  3  0 13  0.0000000  0  8G09G10G17G28G12G04G27G02
 -33094830.64847 -25356161.95744  22184263.2274                   22184261.2384
 -24876220.90646 -19290585.09844  22311551.6564                   22311550.1764
 -83690465.87147 -65128046.04745  21948855.0554                   21948852.3674
-102712770.31246 -78684405.33243  22738000.0554                   22737999.6174
  -6450492.93446  -4983058.33243  23865199.6484                   23865197.4024
 -65046959.40247 -47953829.09845  20074483.7974                   20074481.3094
 -46651600.13747 -35748752.97744  22568354.1884                   22568353.0864
 -38376048.87147 -29858060.96545  21430874.2974                   21430870.7424
 11  8  3  0 13 30.0000000  0  8G09G10G17G28G12G04G27G02
 -33181463.37947 -25423667.98844  22167776.6884                   22167775.3874
 -25060564.32046 -19434229.23044  22276471.7894                   22276470.7814
 -83757920.51247 -65180608.12545  21936018.8594                   21936016.4774
-102740853.81246 -78706288.62943  22732657.0704                   22732655.4924
  -6650561.62146  -5138955.96543  23827127.4224                   23827124.9024
 -65123919.53547 -48013798.01646  20059838.8754                   20059836.5434
 -46732612.06647 -35811879.18044  22552937.7814                   22552936.8054
 -38534392.10247 -29981445.25045  21400742.9774                   21400739.0004
 11  8  3  0 14  0.0000000  0  8G09G10G17G28G12G04G27G02
 -33267438.40247 -25490661.52744  22151417.0004                   22151415.4384
 -25244555.44946 -19577598.85543  22241458.8524                   22241457.8754
 -83825235.07047 -65233061.05145  21923209.2734                   21923206.5084
-102768539.44146 -78727861.91443  22727388.3834                   22727387.1454
  -6850510.02046  -5294759.86343  23789078.5234                   23789076.5474
 -65200334.41447 -48073342.06646  20045296.7274                   20045295.0004
 -46813132.94947 -35874622.74644  22537615.7344                   22537613.8164
 -38692315.45747 -30104502.37545  21370691.4454                   21370687.2894
 11  8  3  0 14 30.0000000  0  8G09G10G17G28G12G04G27G02
 -33352757.49247 -25557143.94544  22135180.3054                   22135179.8014
 -25428191.16446 -19720691.55144  22206514.1414                   22206513.1294
 -83892409.41447 -65285404.70745  21910425.8054                   21910423.9454
-102795828.54746 -78749126.23443  22722195.9924                   22722194.4774
  -7050336.62546  -5450468.88343  23751052.9384                   23751050.8634
 -65276206.32047 -48132463.02745  20030859.0704                   20030857.3054
 -46893164.69547 -35936985.17244  22522385.4534                   22522384.7344
 -38849818.92247 -30227232.30945  21340719.4694                   21340715.5124
 11  8  3  0 15  0.0000000  0  8G09G10G17G28G12G04G27G02
 -33437419.00047 -25623113.97344  22119070.9614                   22119069.3984
 -25611465.24246 -19863502.43744  22171638.9224                   22171637.8674
 -83959440.29347 -65337636.57045  21897670.7584                   21897668.1804
-102822718.58246 -78770079.57843  22717079.0164                   22717077.1914
  -7250035.72346  -5606078.51643  23713051.0394                   23713049.0124
 -65351533.63347 -48191159.62146  20016524.8984                   20016522.8054
 -46972705.36347 -35998964.94144  22507249.6024                   22507248.9024
 -39006898.76247 -30349632.13345  21310827.9774                   21310824.1844
 11  8  3  0 15 30.0000000  0  8G09G10G17G28G12G04G27G02
 -33521426.16847 -25688574.12544  22103084.4534                   22103082.2854
 -25794375.88746 -20006030.11744  22136831.6094                   22136830.6564
 -84026329.25847 -65389757.86745  21884942.3444                   21884940.0824
-102849212.41846 -78790724.23443  22712037.1884                   22712036.1374
  -7449607.20746  -5761588.74243  23675073.4844                   23675072.4694
 -65426320.03547 -48249434.73045  20002293.3524                   20002291.7814
 -47051758.14147 -36060564.53944  22492206.1884                   22492205.4804
 -39163556.16047 -30471702.79745  21281016.6804                   21281013.0664
 11  8  3  0 16  0.0000000  0  8G09G10G17G28G12G04G27G02
 -33604782.61347 -25753527.22744  22087222.3834                   22087220.8674
 -25976922.05946 -20148273.80944  22102094.1564                   22102093.5234
 -84093077.73447 -65441769.70345  21872240.5634                   21872238.3914
-102875313.11346 -78811062.50043  22707070.8984                   22707069.3014
  -7649050.61346  -5916999.12143  23637121.3284                   23637120.0554
 -65500569.04347 -48307291.09446  19988164.2814                   19988162.2304
 -47130326.48847 -36121786.68444  22477255.4224                   22477254.6254
 -39319792.76247 -30593445.56245  21251286.0234                   21251282.1954
 11  8  3  0 16 30.0000000  0  8G09G10G17G28G12G04G27G02
 -33687486.44947 -25817971.80944  22071483.9844                   22071482.7734
 -26159096.76646 -20290228.05144  22067427.5314                   22067426.8204
 -84159682.34847 -65493669.41045  21859566.3754                   21859563.9064
-102901018.52046 -78831092.77343  22702179.2504                   22702177.6914
  -7848360.59846  -6072305.57843  23599194.0314                   23599192.6054
 -65574279.54347 -48364727.84046  19974137.5784                   19974135.6054
 -47208408.74247 -36182630.02744  22462397.1484                   22462395.7424
 -39475604.76247 -30714857.47345  21221635.9614                   21221631.7934
 11  8  3  0 17  0.0000000  0  8G09G10G17G28G12G04G27G02
 -33769539.49247 -25881909.26644  22055870.3204                   22055868.7544
 -26340896.82446 -20431890.35244  22032832.1724                   22032831.3094
 -84226142.67247 -65545456.70345  21846919.1024                   21846916.7074
-102926329.41846 -78850815.66843  22697361.9144                   22697361.1054
  -8047535.21946  -6227506.49643  23561291.5314                   23561290.5514
 -65647453.19547 -48421746.27346  19960213.1334                   19960211.1804
 -47286006.61747 -36243095.92644  22447630.8134                   22447629.1414
 -39630991.77347 -30835938.21945  21192067.4144                   21192062.8714
 11  8  3  0 17 30.0000000  0  8G09G10G17G28G12G04G27G02
 -33850941.75847 -25945339.62544  22040379.9454                   22040378.1024
 -26522317.39546 -20573256.95744  21998308.8834                   21998308.4184
 -84292457.11347 -65597130.30945  21834299.8054                   21834297.8204
-102951245.53546 -78870230.86743  22692621.7584                   22692620.3554
  -8246570.66046  -6382599.02743  23523415.8594                   23523415.1844
 -65720090.67247 -48478346.89546  19946391.0944                   19946388.9064
 -47363120.02047 -36303184.32044  22432956.6804                   22432955.3244
 -39785951.72347 -30956686.20745  21162578.9064                   21162574.8484
 11  8  3  0 18  0.0000000  0  8G09G10G17G28G12G04G27G02
 -33931697.35947 -26008266.09844  22025013.1094                   22025011.3164
 -26703357.71546 -20714327.26244  21963857.7504                   21963857.4184
 -84358627.84847 -65648691.94145  21821707.7194                   21821705.8444
-102975770.39546 -78889341.21943  22687955.0004                   22687952.8204
  -8445467.02346  -6537583.13343  23485567.9614                   23485566.3984
 -65792195.95747 -48534532.82045  19932669.9384                   19932667.2854
 -47439752.86346 -36362898.26644  22418373.1484                   22418372.5044
 -39940486.79347 -31077103.10245  21133171.8754                   21133167.5634
 11  8  3  0 18 30.0000000  0  8G09G10G17G28G12G04G27G02
 -32436385.28147 -24843087.86344  22309561.5234                   22309559.5394
 -25308588.28946 -19627493.86744  22229273.9224                   22229272.9884
 -82849231.89547 -64472539.27045  22108935.8134                   22108934.1644
-101424484.05546 -77680546.72743  22983154.0394                   22983153.4104
  -7068795.12946  -5464851.73043  23747539.6334                   23747538.3324
 -64288348.47747 -47362703.60946  20218842.2974                   20218840.3404
 -45940484.05947 -35194636.89544  22703675.5164                   22703673.7274
 -38519171.05147 -29969584.30945  21403639.5084                   21403634.9494
 11  8  3  0 19  0.0000000  0  8G09G10G17G28G12G04G27G02
 -32515848.70347 -24905007.46544  22294439.4144                   22294438.0394
 -25488853.93746 -19767960.55544  22194970.2734                   22194969.2274
 -82915109.71947 -64523872.65644  22096399.9454                   22096398.1764
-101448225.44946 -77699046.60243  22978637.1174                   22978635.6134
  -7267402.57046  -5619610.71543  23709746.4144                   23709744.6724
 -64359391.14847 -47418061.53546  20205323.2344                   20205321.5004
 -46016156.76247 -35253602.68444  22689274.6884                   22689274.0434
 -38672850.90647 -30089334.81245  21374395.1414                   21374390.8554
 11  8  3  0 19 30.0000000  0  8G09G10G17G28G12G04G27G02
 -32594666.49247 -24966423.96944  22279441.5314                   22279440.0514
 -25668725.06246 -19908119.80544  22160742.5004                   22160741.0514
 -82980838.55947 -64575089.95745  22083892.2114                   22083890.3714
-101471574.54746 -77717240.75843  22974193.5314                   22974192.6914
  -7465860.02046  -5774252.84443  23671981.0864                   23671979.5784
 -64429903.21947 -47473006.00046  20191905.4144                   20191903.4264
 -46091349.88747 -35312194.75844  22674966.1024                   22674965.3244
 -38826100.55147 -30208750.09045  21345232.4384                   21345228.7344
 11  8  3  0 20  0.0000000  0  8G09G10G17G28G12G04G27G02
 -32672840.61747 -25027338.89544  22264565.2114                   22264563.7274
 -25848198.45746 -20047969.12144  22126589.2894                   22126588.1454
 -83046418.19947 -64626190.99645  22071413.4384                   22071410.7934
-101494532.61746 -77735130.25443  22969824.7034                   22969823.2544
  -7664165.44146  -5928776.49243  23634244.5084                   23634242.8914
 -64499886.86747 -47527538.71145  20178588.2584                   20178586.0744
 -46166065.05546 -35370414.41844  22660748.4384                   22660747.1604
 -38978919.69147 -30327829.89845  21316151.6644                   21316147.9884
 11  8  3  0 20 30.0000000  0  8G09G10G17G28G12G04G27G02
 -32750373.55147 -25087754.21144  22249810.8364                   22249809.8984
 -26027271.96946 -20187506.85544  22092513.0864                   22092511.8284
 -83111849.15647 -64677176.16445  22058962.1254                   22058960.2664
-101517101.84046 -77752716.72343  22965530.1644                   22965529.0354
  -7862317.52046  -6083180.67643  23596537.3914                   23596535.1484
 -64569344.76647 -47581661.75445  20165370.5634                   20165368.5744
 -46240304.83246 -35428263.62544  22646621.0394                   22646619.5084
 -39131309.11347 -30446574.86345  21287152.6094                   21287149.4924
 11  8  3  0 21  0.0000000  0  8G09G10G17G28G12G04G27G02
 -32827268.59447 -25147672.47344  22235178.8284                   22235177.1764
 -26205943.75846 -20326731.55944  22058512.1484                   22058511.1644
 -83177132.58647 -64728046.36345  22046539.1174                   22046536.9804
-101539284.80546 -77770002.19143  22961309.0164                   22961307.6524
  -8060315.28146  -6237464.58643  23558860.2274                   23558857.5124
 -64638280.39847 -47635377.82445  20152252.9224                   20152250.5664
 -46314072.47746 -35485744.96544  22632583.4144                   22632582.8094
 -39283269.64847 -30564985.63345  21258235.5234                   21258232.2894
 11  8  3  0 21 30.0000000  0  8G09G10G17G28G12G04G27G02
 -32903524.64846 -25207092.79744  22220667.9454                   22220665.9454
 -26384207.59846 -20465638.39544  22024590.2274                   22024589.0124
 -83242265.10547 -64778798.99645  22034144.3594                   22034142.5314
-101561079.46946 -77786985.14843  22957161.8524                   22957160.1024
  -8258153.63346  -6391624.28943  23521212.6724                   23521210.2704
 -64706692.71147 -47688686.11745  20139234.0234                   20139232.3094
 -46387366.56646 -35542857.28544  22618636.4844                   22618635.2384
 -39434798.02747 -30683059.66445  21229401.2034                   21229397.1564
 11  8  3  0 22  0.0000000  0  9G09G10G17G28G12G04G05G27G02
 -32979142.65647 -25266015.97344  22206278.2664                   22206276.5984
 -26562059.51246 -20604224.22344  21990745.5084                   21990745.1024
 -83307245.60246 -64829433.14545  22021779.3984                   22021777.3364
-101582486.24246 -77803665.83243  22953087.6724                   22953086.6844
  -8455829.41446  -6545657.28943  23483595.4144                   23483593.3794
 -64774582.77347 -47741587.45745  20126315.0704                   20126312.9144
   4422380.07456   3535342.30552  24690129.3914                   24690133.7854
 -46460187.89146 -35599601.23044  22604779.0234                   22604777.8674
 -39585893.04347 -30800796.00845  21200648.5634                   21200644.8954
 11  8  3  0 22 30.0000000  0  9G09G10G17G28G12G04G05G27G02
 -33054128.17647 -25324446.27344  22192008.5164                   22192007.0744
 -26739499.37546 -20742488.99244  21956980.1174                   21956979.1254
 -83372077.28947 -64879951.34845  22009442.2734                   22009440.3324
-101603509.85246 -77820047.93043  22949087.2894                   22949086.3284
  -8653343.96546  -6699564.66043  23446009.4144                   23446007.8014
 -64841956.12147 -47794086.16846  20113494.0704                   20113492.0354
   4215123.34845   3373843.84442  24650689.2194                   24650693.8984
 -46532542.01646 -35655981.09844  22591010.1174                   22591008.9024
 -39736558.02347 -30918197.27045  21171978.3284                   21171973.9264
 11  8  3  0 23  0.0000000  0  9G09G10G17G28G12G04G05G27G02
 -33128490.25847 -25382390.80144  22177858.1484                   22177856.6454
 -26916531.41446 -20880435.95744  21923291.8674                   21923290.4184
 -83436767.05947 -64930358.96945  21997131.9304                   21997130.5864
-101624158.84446 -77836138.13743  22945158.4384                   22945156.9654
  -8850702.34046  -6853350.36743  23408453.3524                   23408451.5554
 -64908822.10247 -47846189.52046  20100770.4844                   20100767.9384
   4007830.98845   3212317.61742  24611244.0394                   24611247.9414
 -46604437.88747 -35712003.91044  22577329.2274                   22577327.7774
 -39886800.07047 -31035268.95745  21143388.1254                   21143383.7274
 11  8  3  0 23 30.0000000  0  9G09G10G17G28G12G04G05G27G02
 -33202230.23047 -25439850.55544  22163826.7734                   22163824.3164
 -27093151.64146 -21018062.03544  21889681.7114                   21889680.8444
 -83501313.82847 -64980655.16845  21984849.4064                   21984847.6804
-101644433.69946 -77851936.82443  22941299.5164                   22941298.8524
  -9047901.35546  -7007011.85543  23370928.0634                   23370926.4614
 -64975181.87147 -47897898.43746  20088142.1884                   20088139.9774
   3800506.61345   3050766.42642  24571789.6334                   24571794.8954
 -46675876.18746 -35767670.16844  22563734.8054                   22563733.9614
 -40036618.00047 -31152010.17645  21114878.1804                   21114874.4454
 11  8  3  0 24  0.0000000  0  9G09G10G17G28G12G04G05G27G02
 -33275351.82447 -25496828.43744  22149911.0474                   22149909.2894
 -27269358.71546 -21155366.19544  21856151.1174                   21856149.4494
 -83565719.17247 -65030841.16045  21972593.3444                   21972591.3914
-101664337.66046 -77867446.48443  22937512.9064                   22937511.3094
  -9244940.60246  -7160548.86343  23333432.3984                   23333430.8834
 -65041039.54747 -47949216.10945  20075610.1484                   20075607.8324
   3593151.02045   2889190.90642  24532331.4534                   24532336.5514
 -46746860.59847 -35822982.73844  22550227.3134                   22550226.3524
 -40186013.68047 -31268422.36345  21086449.5784                   21086445.3754
 11  8  3  0 24 30.0000000  0  9G09G10G17G28G12G04G05G27G02
 -33347852.10247 -25553322.21144  22136115.6414                   22136113.2344
 -27445144.75046 -21292342.27044  21822699.8594                   21822698.5204
 -83629977.66047 -65080912.71945  21960366.3984                   21960363.6684
-101683866.66046 -77882663.94143  22933796.2424                   22933795.6094
  -9441812.67246  -7313955.58244  23295969.4534                   23295967.5314
 -65106392.00847 -48000140.10245  20063174.0634                   20063171.4844
   3385771.68045   2727596.95743  24492868.5234                   24492873.0824
 -46817388.09046 -35877939.28944  22536806.3984                   22536805.1604
 -40334981.52347 -31384501.18045  21058101.8834                   21058097.5314
 11  8  3  0 25  0.0000000  0  9G09G10G17G28G12G04G05G27G02
 -33419733.16847 -25609333.47344  22122436.8054                   22122434.8594
 -27620506.18746 -21428987.48444  21789329.8364                   21789327.9734
 -83694088.89847 -65130869.55545  21948165.6954                   21948163.6374
-101703022.25446 -77897590.45343  22930151.5164                   22930150.5004
  -9638515.41046  -7467230.38344  23258537.8754                   23258535.9884
 -65171241.56647 -48050672.23045  20050833.5004                   20050830.9654
   3178371.12946   2565986.39142  24453400.8984                   24453406.0704
 -46887460.72346 -35932541.37544  22523472.0314                   22523470.5824
 -40483521.58647 -31500246.66045  21029835.4064                   21029831.4144
 11  8  3  0 25 30.0000000  0  9G09G10G17G28G12G04G05G27G02
 -33490992.94147 -25664860.59044  22108876.5084                   22108875.0274
 -27795435.71946 -21565296.15644  21756042.0554                   21756040.7274
 -83758048.55147 -65180708.27045  21935994.6174                   21935992.7774
-101721801.59446 -77912223.80543  22926577.3054                   22926577.0234
  -9835042.54347  -7620368.36344  23221140.3984                   23221138.7584
 -65235585.94547 -48100810.70345  20038589.0164                   20038586.9574
   2970955.95345   2404364.43842  24413929.9144                   24413935.9144
 -46957076.39146 -35986787.40244  22510224.4064                   22510223.3954
 -40631629.67647 -31615655.53545  21001651.7664                   21001647.2464
 11  8  3  0 26  0.0000000  0  9G09G10G17G28G12G04G05G27G02
 -33561632.58247 -25719904.52044  22095433.8834                   22095432.6844
 -27969929.68747 -21701265.43444  21722837.4144                   21722835.5394
 -83821855.35547 -65230427.87545  21923852.4774                   21923849.9344
-101740205.18446 -77926564.35943  22923075.6564                   22923074.4064
 -10031390.83647  -7773366.96944  23183776.7194                   23183774.4384
 -65299426.49247 -48150556.58645  20026440.7114                   20026438.1644
   2763529.66845   2242733.86742  24374458.3984                   24374463.4224
 -47026235.75046 -36040677.87544  22497063.3674                   22497062.6214
 -40779304.71547 -31730726.96145  20973549.8284                   20973546.0234
 11  8  3  0 26 30.0000000  0  9G09G10G17G28G12G04G05G27G02
 -32056232.43747 -24546865.46144  22381902.1334                   22381900.7624
 -26568559.19946 -20609288.37144  21989508.2194                   21989507.4884
 -82310087.14147 -64052426.68444  22211532.2974                   22211530.2234
-100182813.95346 -76713012.83643  23219438.4774                   23219436.1024
  -8652131.75047  -6698619.59044  23446240.5704                   23446238.9064
 -63787343.55947 -46972310.14846  20314180.5394                   20314178.1254
   4131521.78545   3308702.06642  24634778.6334                   24634783.2114
 -45519518.86746 -34866612.82844  22783782.8594                   22783781.9534
 -39351122.09847 -30617857.36345  21245324.1334                   21245319.6604
 11  8  3  0 27  0.0000000  0  9G09G10G17G28G12G04G05G27G02
 -32125638.49247 -24600948.14144  22368694.6884                   22368693.2894
 -26742172.10246 -20744571.09044  21956470.6564                   21956469.6334
 -82373587.16447 -64101907.23844  22199448.5784                   22199446.5314
-100200469.69946 -76726770.68743  23216077.2274                   23216076.6914
  -8848115.42246  -6851334.07444  23408946.3914                   23408944.4844
 -63850182.61347 -47021275.66045  20302222.5394                   20302220.6294
   3924081.44945   3147060.61342  24595303.4844                   24595308.3284
 -45587771.58246 -34919796.83244  22770794.6414                   22770793.6214
 -39497930.41447 -30732253.43445  21217387.1484                   21217383.1524
 11  8  3  0 27 30.0000000  0  9G09G10G17G28G12G04G05G27G02
 -32194427.17647 -24654549.73444  22355604.3984                   22355603.0664
 -26915336.05546 -20879504.00044  21923518.9924                   21923517.6174
 -82436929.37147 -64151264.84844  22187395.6804                   22187393.1254
-100217749.76646 -76740235.72343  23212789.3444                   23212788.2894
  -9043909.29346  -7003900.68044  23371687.5704                   23371686.0084
 -63912520.23047 -47069850.44146  20290360.2664                   20290357.8164
   3716641.72745   2985419.60542  24555828.8674                   24555833.6134
 -45655570.00846 -34972626.82044  22757892.8984                   22757892.3874
 -39644301.22747 -30846308.59045  21189533.4614                   21189529.3054
 11  8  3  0 28  0.0000000  0  9G09G10G17G28G12G04G05G27G02
 -32262604.85546 -24707675.23444  22342630.3284                   22342629.2464
 -27088052.40246 -21014088.10944  21890651.9064                   21890650.8164
 -82500117.62947 -64200502.48044  22175370.7664                   22175368.5164
-100234659.94546 -76753412.57443  23209571.2344                   23209570.5704
  -9239515.30146  -7156320.89544  23334464.4384                   23334462.4344
 -63974363.02747 -47118039.64846  20278592.0394                   20278589.7074
   3509200.74245   2823777.62143  24516353.2664                   24516357.9924
 -45722920.51246 -35025107.77344  22745076.9694                   22745075.5824
 -39790238.91847 -30960026.24645  21161762.9774                   21161758.6374
 11  8  3  0 28 30.0000000  0  9G09G10G17G28G12G04G05G27G02
 -32330170.82847 -24760324.09044  22329773.2894                   22329771.9024
 -27260314.78946 -21148318.48044  21857871.3674                   21857870.2894
 -82563148.66847 -64249617.60245  22163376.2974                   22163374.0664
-100251198.48446 -76766299.88743  23206424.0164                   23206423.1844
  -9434928.57046  -7308590.94143  23297278.9144                   23297276.8054
 -64035710.03547 -47165842.52745  20266917.6024                   20266915.8524
   3301764.26245   2662139.12542  24476880.0164                   24476883.6954
 -45789822.04746 -35077238.89544  22732345.6334                   22732344.6214
 -39935740.44947 -31073404.02745  21134074.7814                   21134070.6484
 11  8  3  0 29  0.0000000  0  9G09G10G17G28G12G04G05G27G02
 -32397126.72347 -24812497.54744  22317032.3834                   22317030.5474
 -27432119.66446 -21282192.34844  21825177.9304                   21825177.0784
 -82626021.82047 -64298609.70345  22151412.4534                   22151410.1564
-100267366.46146 -76778898.36343  23203346.8284                   23203347.5944
  -9630146.10246  -7460708.46144  23260129.8524                   23260127.7424
 -64096562.90647 -47213260.36345  20255338.3444                   20255335.9064
   3094335.44545   2500506.61742  24437407.6484                   24437411.3874
 -45856276.17246 -35129021.39843  22719699.3054                   22719698.6454
 -40080805.12547 -31186441.40645  21106470.1884                   21106465.6564
 11  8  3  0 29 30.0000000  0  9G09G10G17G28G12G04G05G27G02
 -32463474.56246 -24864197.19944  22304407.0084                   22304405.4884
 -27603463.38346 -21415706.87944  21792572.5394                   21792571.7304
 -82688736.01647 -64347477.93445  22139477.8284                   22139476.2034
-100283164.73846 -76791208.80543  23200341.7114                   23200341.1524
  -9825164.84846  -7612671.07843  23223018.9774                   23223016.5984
 -64156923.52347 -47260294.63345  20243851.5634                   20243849.8324
   2886917.55945   2338882.61343  24397938.2194                   24397941.2304
 -45922284.43747 -35180456.46544  22707138.8594                   22707137.6994
 -40225432.60547 -31299138.11345  21078947.9924                   21078944.0744
 11  8  3  0 30  0.0000000  0  9G09G10G17G28G12G04G05G27G02
 -32529218.64147 -24915426.40644  22291896.7504                   22291894.6684
 -27774345.37146 -21548861.61344  21760054.6484                   21760053.4224
 -82751292.63746 -64396223.37145  22127574.2274                   22127572.0704
-100298597.28546 -76803234.31243  23197404.7584                   23197404.8244
 -10019985.19546  -7764479.09043  23185946.3364                   23185944.2114
 -64216796.22347 -47306948.70345  20232458.0004                   20232456.3874
   2679510.54345   2177267.14542  24358468.3284                   24358472.6024
 -45987851.24646 -35231547.54743  22694662.1094                   22694661.2544
 -40369625.12147 -31411495.89545  21051508.8444                   21051504.7934
 11  8  3  0 30 30.0000000  0  9G09G10G17G28G12G04G05G27G02
 -32594359.66846 -24966185.66844  22279500.1254                   22279499.0274
 -27944760.81246 -21681652.80544  21727625.8204                   21727624.3954
 -82813690.47346 -64444845.08244  22115700.6414                   22115698.4104
-100313663.30546 -76814974.13342  23194537.6954                   23194537.5434
 -10214602.85246  -7916129.16843  23148912.0864                   23148908.7934
 -64276181.37547 -47353222.85945  20221158.2504                   20221155.7544
   2472118.85946   2015663.53543  24319003.5394                   24319006.5634
 -46052976.69146 -35282294.69144  22682269.0704                   22682268.1914
 -40513380.99247 -31523513.43445  21024153.4384                   21024149.4104
 11  8  3  0 31  0.0000000  0  9G09G10G17G28G12G04G05G27G02
 -32658899.03547 -25016476.12544  22267218.8204                   22267217.1684
 -28114705.30546 -21814077.02744  21695286.0164                   21695284.8794
 -82875928.00047 -64493341.89144  22103856.4614                   22103854.5904
-100328363.50446 -76826428.97742  23191741.5234                   23191740.7584
 -10409014.06646  -8067618.36744  23111916.5784                   23111914.2974
 -64335080.17247 -47399118.03945  20209950.3444                   20209947.6994
   2264746.71146   1854075.16443  24279540.6414                   24279544.5514
 -46117661.53546 -35332698.52744  22669960.2734                   22669959.7304
 -40656698.66447 -31635189.52045  20996880.7584                   20996876.5164
 11  8  3  0 31 30.0000000  0  9G09G10G17G28G12G04G05G27G02
 -32722841.06647 -25066301.12144  22255051.1024                   22255049.7894
 -28284178.03947 -21946133.63344  21663036.8754                   21663035.4024
 -82938006.50847 -64541714.77345  22092043.6724                   22092041.8324
-100342701.21946 -76837601.29343  23189012.4774                   23189011.9734
 -10603218.73047  -8218946.60944  23074959.7344                   23074958.7584
 -64393497.13347 -47444637.76645  20198833.3594                   20198831.5824
   2057394.18446   1692502.09843  24240083.1644                   24240086.6994
 -46181910.07446 -35382762.38344  22657734.5554                   22657733.3134
 -40799580.55147 -31746526.02345  20969691.2194                   20969686.9454
 11  8  3  0 32  0.0000000  0  9G09G10G17G28G12G04G05G27G02
 -32786183.63347 -25115659.00844  22242997.8284                   22242996.3134
 -28453171.68447 -22077816.93444  21630878.7114                   21630877.1914
 -82999921.24247 -64589960.04744  22080261.6884                   22080259.5784
-100356673.56246 -76848488.92642  23186353.7194                   23186353.1524
 -10797210.15647  -8370108.71144  23038045.3984                   23038043.1994
 -64451429.59047 -47489779.95746  20187809.4224                   20187807.2664
   1850068.44546   1530949.90643  24200629.9384                   24200633.2424
 -46245719.88746 -35432484.35543  22645591.2034                   22645590.6684
 -40942022.05547 -31857519.37545  20942585.2034                   20942581.3244
 11  8  3  0 32 30.0000000  0  9G09G10G17G28G12G04G05G27G02
 -32848928.85547 -25164551.43744  22231056.9224                   22231056.5514
 -28621682.84847 -22209124.27044  21598811.5634                   21598809.9454
 -83061671.52347 -64638077.16845  22068510.8754                   22068508.9884
-100370281.85245 -76859092.91042  23183764.4844                   23183764.5514
 -10990985.71947  -8521102.58644  23001171.3204                   23001168.8794
 -64508879.78547 -47534546.35946  20176876.6254                   20176874.9064
   1642772.65246   1369421.02043  24161183.2114                   24161185.2114
 -46309092.82446 -35481865.93744  22633531.7814                   22633530.9774
 -41084023.06247 -31968169.50045  20915563.3674                   20915559.6174
 11  8  3  0 33  0.0000000  0  9G09G10G17G28G12G04G05G27G02
 -32911080.14147 -25212981.06644  22219230.3984                   22219229.2814
 -28789709.37147 -22340053.98044  21566837.0634                   21566835.6024
 -83123257.84847 -64686066.52045  22056790.9614                   22056788.9304
-100383528.51246 -76869415.05542  23181243.7194                   23181243.2424
 -11184544.00047  -8671927.16044  22964338.7194                   22964336.0664
 -64565850.76247 -47578939.34845  20166035.7194                   20166033.5554
   1435508.46545   1207916.77043  24121740.9144                   24121744.5394
 -46372031.93046 -35530909.44144  22621554.6024                   22621554.3634
 -41225584.41047 -32078477.01645  20888625.4614                   20888621.2544
 11  8  3  0 33 30.0000000  0  9G09G10G17G28G12G04G05G27G02
 -32972638.93447 -25260948.98044  22207515.9144                   22207514.8554
 -28957247.39147 -22470603.03544  21534956.1414                   21534954.1374
 -83184678.57447 -64733926.85545  22045104.3524                   22045101.4144
-100396413.87146 -76879455.70742  23178791.9384                   23178791.8484
 -11377881.33647  -8822579.56644  22927547.7424                   22927545.1994
 -64622343.78147 -47622959.89845  20155284.9224                   20155283.0784
   1228279.40645   1046439.85243  24082306.2974                   24082309.3634
 -46434538.29746 -35579615.77044  22609661.2194                   22609659.7584
 -41366705.11747 -32188441.17645  20861770.5394                   20861766.5984
 11  8  3  0 34  0.0000000  0  9G09G10G17G28G12G04G05G27G02
 -31458185.10547 -24080855.14144  22495707.4774                   22495705.8054
 -27548867.50847 -21373164.10244  21802961.5784                   21802960.1094
 -81670510.86747 -63554055.94144  22333240.2584                   22333238.1724
 -98833518.31646 -75661615.11343  23476200.1644                   23476200.7344
  -9995568.31646  -7745452.46144  23190592.7974                   23190590.2114
 -63102938.34847 -46439007.62545  20444418.0634                   20444416.3914
   2596516.23846   2112598.74243  24342674.3134                   24342676.3444
 -44921191.51646 -34400384.55943  22897641.1024                   22897640.4614
 -39931959.95347 -31070457.89145  21134793.5474                   21134789.7034
 11  8  3  0 34 30.0000000  0  9G09G10G17G28G12G04G05G27G02
 -31518562.99647 -24127902.89544  22484218.5234                   22484216.4534
 -27715416.02347 -21502942.10944  21771268.7664                   21771266.7934
 -81731596.03947 -63601654.78945  22321616.0004                   22321614.1724
 -98845682.28146 -75671093.64543  23473886.2194                   23473885.9844
 -10188453.43047  -7895752.50044  23153887.7814                   23153885.7274
 -63158478.47347 -46482285.66045  20433850.0234                   20433847.5204
   2389369.83645   1951186.22742  24303254.2664                   24303256.7154
 -44982835.63746 -34448418.98844  22885910.1804                   22885910.0394
 -40072196.09447 -31179732.78545  21108107.5864                   21108103.2384
 11  8  3  0 35  0.0000000  0  9G09G10G17G28G12G04G05G27G02
 -31578351.46147 -24174491.35944  22472840.5704                   22472838.7734
 -27881462.77746 -21632329.14844  21739670.6484                   21739669.4654
 -81792510.13747 -63649120.34044  22310024.2734                   22310022.3364
 -98857485.43446 -75680290.96543  23471640.5864                   23471640.2274
 -10381106.07447  -8045871.38744  23117226.8204                   23117224.7734
 -63213543.09447 -46525193.16445  20423371.1334                   20423369.0394
   2182271.00446   1789810.77342  24263844.6804                   24263847.1764
 -45044049.18746 -34496117.90644  22874262.3914                   22874261.6994
 -40211987.58247 -31288661.18445  21081506.0394                   21081501.8634
 11  8  3  0 35 30.0000000  0  9G09G10G17G28G12G04G05G27G02
 -31637553.50046 -24220622.86344  22461574.3984                   22461573.9804
 -28047005.40647 -21761323.35944  21708169.2894                   21708167.4774
 -81853253.65647 -63696452.97344  22298465.0394                   22298463.2274
 -98868929.71946 -75689208.74242  23469462.0164                   23469462.7624
 -10573524.48447  -8195807.77044  23080610.8134                   23080608.7934
 -63268134.89547 -46567732.23445  20412982.4224                   20412980.9304
   1975222.18445   1628474.32042  24224444.4144                   24224446.7814
 -45104834.84446 -34543483.41044  22862695.1174                   22862694.5824
 -40351334.92247 -31397243.50045  21054989.2734                   21054985.0744
 11  8  3  0 36  0.0000000  0  9G09G10G17G28G12G04G05G27G02
 -31696169.14546 -24266297.44144  22450420.0704                   22450419.4184
 -28212038.08246 -21889920.19944  21676764.4224                   21676762.6254
 -81913823.02047 -63743649.90644  22286939.7664                   22286937.5594
 -98880013.75046 -75697845.77043  23467353.8134                   23467353.4344
 -10765703.30147  -8345557.46144  23044040.4144                   23044038.2704
 -63322253.21547 -46609902.35945  20402684.2734                   20402682.5514
   1768228.73846   1467180.96943  24185054.8754                   24185056.9694
 -45165191.91446 -34590514.94544  22851210.4224                   22851209.0234
 -40490235.44547 -31505477.65245  21028557.0864                   21028552.9414
 11  8  3  0 36 30.0000000  0  9G09G10G17G28G12G04G05G27G02
 -31754198.55146 -24311515.22344  22439378.1024                   22439376.8714
 -28376555.54746 -22018115.59844  21645457.7584                   21645456.1254
 -81974215.66047 -63790709.12144  22275446.8834                   22275444.5004
 -98890737.06246 -75706201.68442  23465312.3834                   23465312.9414
 -10957638.07046  -8495116.98444  23007516.6414                   23007514.1804
 -63375898.32047 -46651703.75045  20392476.4694                   20392473.9534
   1561295.72745   1305934.75043  24145676.4774                   24145678.5124
 -45225120.42246 -34637212.52744  22839804.9614                   22839805.2424
 -40628687.21147 -31613362.10945  21002211.3914                   21002206.1844
 11  8  3  0 37  0.0000000  0  9G09G10G17G28G12G04G05G27G02
 -31811644.89146 -24356278.66044  22428446.4774                   22428444.6884
 -28540555.67647 -22145907.87144  21614249.4774                   21614247.7704
 -82034431.49647 -63837630.57844  22263988.9144                   22263986.0354
 -98901101.93046 -75714278.32442  23463340.3054                   23463340.4884
 -11149327.02347  -8644484.94944  22971039.7734                   22971036.3204
 -63429073.02047 -46693138.58245  20382357.2584                   20382355.3204
   1354425.17645   1144737.16043  24106310.3134                   24106312.1724
 -45284623.17646 -34683578.37544  22828482.8444                   22828481.8634
 -40766690.88347 -31720897.41045  20975949.3984                   20975945.2894
 11  8  3  0 37 30.0000000  0  9G09G10G17G28G12G04G05G27G02
 -31868508.33646 -24400587.89844  22417625.9384                   22417624.0474
 -28704033.11346 -22273292.85944  21583140.5784                   21583138.9264
 -82094467.79747 -63884412.14545  22252564.3754                   22252561.4734
 -98911107.50045 -75722074.96542  23461436.4144                   23461436.4494
 -11340765.18446  -8793657.53544  22934610.0944                   22934607.3874
 -63481777.32447 -46734206.87145  20372327.9064                   20372326.0594
   1147622.25045    983592.28943  24066956.4304                   24066959.0084
 -45343700.00446 -34729612.31244  22817240.2194                   22817240.0824
 -40904243.89147 -31828081.54745  20949774.0554                   20949769.8594
 11  8  3  0 38  0.0000000  0  9G09G10G17G28G12G04G05G27G02
 -31924791.53546 -24444445.00844  22406916.4774                   22406914.1644
 -28866985.12147 -22400268.42644  21552131.9144                   21552130.4844
 -82154324.39147 -63931053.66444  22241173.7344                   22241171.4654
 -98920755.68745 -75729593.12542  23459600.4304                   23459600.7774
 -11531950.25847  -8942632.89544  22898228.6804                   22898226.1644
 -63534013.35947 -46774910.27346  20362387.7584                   20362385.5744
    940889.85946    822502.36343  24027616.1954                   24027619.0314
 -45402353.15246 -34775316.10543  22806079.0474                   22806079.1134
 -41041346.79747 -31934914.95745  20923684.3834                   20923680.3164
 11  8  3  0 38 30.0000000  0  9G09G10G17G28G12G04G05G27G02
 -31980496.40646 -24487851.43744  22396314.8524                   22396313.8714
 -29029408.18046 -22526831.80144  21521223.9064                   21521222.5824
 -82213999.85947 -63977554.05544  22229817.7114                   22229815.1884
 -98930046.75445 -75736833.04742  23457832.5634                   23457833.4884
 -11722878.78147  -9091408.34044  22861896.1484                   22861893.6294
 -63585782.65247 -46815249.98446  20352536.2274                   20352534.1484
    734231.23446    661469.93043  23988290.6954                   23988293.0744
 -45460584.17246 -34820690.97344  22794998.4454                   22794998.2584
 -41177998.82847 -32041397.03145  20897679.9454                   20897676.2854
 11  8  3  0 39  0.0000000  0  9G09G10G17G28G12G04G05G27G02
 -32035623.05146 -24530807.32444  22385824.9224                   22385823.5394
 -29191296.68447 -22652978.64144  21490417.1254                   21490415.7464
 -82273491.12147 -64023910.91444  22218496.3984                   22218494.4884
 -98938980.24645 -75743794.34842  23456133.3054                   23456133.5474
 -11913546.38347  -9239980.46944  22825613.2344                   22825610.5744
 -63637085.18747 -46855225.98845  20342773.6644                   20342771.4264
    527652.14145    500499.44543  23948979.4614                   23948981.4924
 -45518392.71946 -34865736.62544  22783997.7504                   22783997.7894
 -41314197.92647 -32147526.17245  20871762.4774                   20871758.1174
 11  8  3  0 39 30.0000000  0  9G09G10G17G28G12G04G05G27G02
 -32090172.18446 -24573313.21944  22375443.7504                   22375443.4304
 -29352645.66847 -22778705.07844  21459713.7974                   21459712.2074
 -82332795.71547 -64070122.31244  22207211.6254                   22207209.6334
 -98947555.43445 -75750476.37542  23454501.4064                   23454502.2154
 -12103947.32047  -9388344.82844  22789381.3834                   22789377.9964
 -63687921.00047 -46894838.31245  20333100.1414                   20333098.0704
    321157.00846    339594.39143  23909684.6804                   23909686.7544
 -45575779.04346 -34910453.28543  22773077.6024                   22773077.5904
 -41449941.94147 -32253300.69945  20845931.1334                   20845926.7664
 11  8  3  0 40  0.0000000  0  9G09G10G17G28G12G04G05G27G02
 -32144148.12147 -24615372.44544  22365173.4064                   22365172.3444
 -29513454.23447 -22904010.43744  21429112.8754                   21429110.9454
 -82391915.08247 -64116189.35244  22195961.9304                   22195959.1334
 -98955775.91445 -75756882.05142  23452936.1334                   23452937.7344
 -12294081.76247  -9536501.50844  22753199.5004                   22753197.2344
 -63738294.09447 -46934090.07045  20323514.1724                   20323512.3204
    114746.87545    178755.57043  23870405.9384                   23870407.6414
 -45632747.18046 -34954844.09044  22762236.8674                   22762236.8954
 -41585232.87147 -32358722.17245  20820186.3834                   20820181.9924
 11  8  3  0 40 30.0000000  0  9G09G10G17G28G12G04G05G27G02
 -32197552.48846 -24656986.28944  22355010.6804                   22355009.9304
 -29673718.16847 -23028891.38345  21398614.9304                   21398613.9534
 -82450847.57047 -64162110.81644  22184747.2274                   22184745.0744
 -98963642.37545 -75763011.88742  23451440.3594                   23451441.2304
 -12483946.23447  -9684447.82444  22717069.9844                   22717067.3714
 -63788205.87547 -46972982.37145  20314016.7814                   20314014.5124
    -91573.97345     17986.33243  23831144.2344                   23831146.2424
 -45689298.35546 -34998910.02344  22751476.0474                   22751475.4884
 -41720069.76647 -32463789.87145  20794527.4534                   20794523.2664
 11  8  3  0 41  0.0000000  0  9G09G10G17G28G12G04G05G27G02
 -32250387.27046 -24698156.31244  22344956.8134                   22344955.6644
 -29833434.33647 -23153345.51244  21368222.4384                   21368220.8524
 -82509591.83247 -64207885.59044  22173569.1804                   22173566.1024
 -98971155.39545 -75768866.28942  23450010.2114                   23450012.0784
 -12673537.18447  -9832181.00844  22680991.4844                   22680988.6994
 -63837657.70747 -47011516.27345  20304605.9844                   20304604.3594
   -297802.48446   -142710.96143  23791900.1884                   23791901.6254
 -45745433.97746 -35042652.11343  22740793.2814                   22740793.0744
 -41854452.05947 -32568503.32045  20768955.5784                   20768951.2894
 11  8  3  0 41 30.0000000  0  9G09G10G17G28G12G04G05G27G02
 -32302654.68046 -24738884.21944  22335010.8444                   22335009.6764
 -29992599.18747 -23277370.02344  21337933.4614                   21337932.4924
 -82568146.68447 -64253512.76244  22162425.7894                   22162423.8284
 -98978316.40245 -75774446.43442  23448648.0864                   23448648.7854
 -12862851.51246  -9979698.64844  22644966.3134                   22644963.9574
 -63886651.44147 -47049693.21945  20295283.2504                   20295281.0664
   -503935.29746   -303333.73443  23752674.9144                   23752675.6024
 -45801155.94146 -35086071.88343  22730190.0864                   22730189.0704
 -41988379.57447 -32672862.39545  20743469.6094                   20743465.2704
 11  8  3  0 42  0.0000000  0  9G09G10G17G28G12G04G05G27G02
 -30778933.08646 -23551568.76644  22624965.1954                   22624964.3244
 -28575782.37147 -22173356.88344  21607545.3914                   21607544.0164
 -81051087.65247 -63071388.87144  22451112.8984                   22451110.4964
 -97409704.27045 -74552151.35942  23747145.2734                   23747146.0864
 -11476458.20346  -8899392.15644  22908787.4224                   22908785.5354
 -62359765.48047 -45859911.96145  20585840.0164                   20585837.8324
    865459.88346    763727.66443  24013260.9774                   24013262.3874
 -44281042.07446 -33901567.62143  23019458.1884                   23019457.6604
 -40546425.68747 -31549261.93745  21017864.6254                   21017860.0204
 11  8  3  0 42 30.0000000  0  9G09G10G17G28G12G04G05G27G02
 -30830070.37146 -23591416.03944  22615234.2344                   22615233.5274
 -28733833.19147 -22296513.32444  21577470.0314                   21577467.9884
 -81109259.44547 -63116717.57845  22440043.5634                   22440041.2894
 -97416162.76245 -74557184.03542  23745916.1024                   23745916.9884
 -11665208.81246  -9046470.51244  22872870.1024                   22872867.7234
 -62407846.68747 -45897377.84445  20576690.2424                   20576688.2274
    659530.67246    603263.57843  23974074.0084                   23974075.2074
 -44335940.14546 -33944345.40243  23009011.2424                   23009011.0044
 -40679441.09847 -31652910.28545  20992552.8984                   20992548.1334
 11  8  3  0 43  0.0000000  0  9G09G10G17G28G12G04G05G27G02
 -30880646.42647 -23630826.00444  22605609.6564                   22605609.1214
 -28891322.42647 -22419232.17244  21547500.6954                   21547498.8874
 -81167238.53547 -63161896.12945  22429009.9384                   22429008.3524
 -97422271.99245 -74561944.61342  23744753.6484                   23744754.1604
 -11853673.35947  -9193325.96944  22837006.2504                   22837003.9534
 -62455474.60947 -45934490.51245  20567626.8134                   20567625.0044
    453707.87546    442882.42643  23934907.7194                   23934908.6254
 -44390429.22746 -33986804.49243  22998642.7664                   22998641.8554
 -40812000.24247 -31756203.11345  20967327.3364                   20967322.8134
 11  8  3  0 43 30.0000000  0  9G09G10G17G28G12G04G05G27G02
 -30930661.31246 -23669798.68044  22596092.1644                   22596091.5904
 -29048244.38347 -22541508.98044  21517638.7734                   21517637.0004
 -81225021.36347 -63206921.73044  22418014.3284                   22418012.9494
 -97428031.09045 -74566432.30542  23743657.1644                   23743658.5354
 -12041846.51247  -9339954.34844  22801198.0164                   22801195.8754
 -62502648.77047 -45971249.61745  20558649.9064                   20558648.1564
    247997.07046    282588.48443  23895762.0394                   23895762.4224
 -44444508.95346 -34028944.58643  22988351.5314                   22988351.3324
 -40944100.66847 -31859138.47745  20942189.0554                   20942185.0944
 11  8  3  0 44  0.0000000  0  9G09G10G17G28G12G04G05G27G02
 -30980125.44546 -23708342.21544  22586679.7664                   22586679.2664
 -29204604.08647 -22663347.68044  21487884.3134                   21487883.0164
 -81282615.17247 -63251800.04344  22407054.6334                   22407052.8364
 -97433449.46145 -74570654.48842  23742626.2424                   23742628.0314
 -12229733.07847  -9486359.41844  22765444.6174                   22765442.1254
 -62549379.23847 -46007662.97745  20549757.5234                   20549755.4734
     42393.44546    122378.09443  23856636.2504                   23856637.6374
 -44498189.31646 -34070773.54743  22978135.9454                   22978136.5274
 -41075750.40647 -31961722.66845  20917137.4454                   20917133.1134
 11  8  3  0 44 30.0000000  0  9G09G10G17G28G12G04G05G27G02
 -31029043.12946 -23746459.95744  22577371.2584                   22577369.8674
 -29360400.39547 -22784747.36744  21458238.0164                   21458235.8954
 -81340021.00847 -63296531.88744  22396130.4924                   22396128.7854
 -97438529.92245 -74574613.43042  23741659.5704                   23741661.1994
 -12417332.29747  -9632540.58644  22729745.1484                   22729743.2774
 -62595669.71147 -46043733.48045  20540948.5474                   20540946.6564
   -163101.42646    -37747.56243  23817531.6484                   23817532.6254
 -44551474.31246 -34112294.36743  22967996.3834                   22967996.1724
 -41206951.06247 -32063956.92245  20892170.2034                   20892166.2624
 11  8  3  0 45  0.0000000  0  9G09G10G17G28G12G04G05G27G02
 -31077416.76246 -23784153.74244  22568166.2344                   22568164.8204
 -29515630.28947 -22905705.69144  21428698.4924                   21428696.2304
 -81397238.30947 -63341116.82444  22385242.7664                   22385241.1134
 -97443274.55545 -74578310.69942  23740756.8594                   23740757.9304
 -12604641.77747  -9778495.99244  22694101.5314                   22694099.3834
 -62641522.38347 -46079462.84845  20532223.1174                   20532221.2544
   -368484.42746   -197786.05943  23778447.6484                   23778449.0514
 -44604366.13346 -34153508.85943  22957932.0634                   22957931.6644
 -41337702.89847 -32165841.45745  20867289.4534                   20867284.8324
 11  8  3  0 45 30.0000000  0  9G09G10G17G28G12G04G05G27G02
 -31125247.11747 -23821424.19544  22559063.4694                   22559062.8754
 -29670288.89547 -23026218.84844  21399267.5944                   21399266.4454
 -81454263.75047 -63385552.26644  22374390.4454                   22374389.3244
 -97447682.51245 -74581745.53942  23739918.8364                   23739919.5004
 -12791656.15246  -9924221.44144  22658513.8524                   22658511.2504
 -62686937.21147 -46114851.02745  20523581.1024                   20523579.1684
   -573750.74246   -357733.63743  23739387.2814                   23739388.4104
 -44656864.78946 -34194416.95743  22947941.2034                   22947941.8164
 -41468003.87147 -32267374.66845  20842493.3204                   20842489.5594
 11  8  3  0 46  0.0000000  0  9G09G10G17G28G12G04G05G27G02
 -31172541.42647 -23858276.95744  22550064.6334                   22550063.4774
 -29824378.03147 -23146288.25044  21369945.5234                   21369943.8444
 -81511101.65647 -63429841.56644  22363575.4924                   22363573.5274
 -97451759.93445 -74584922.85242  23739143.3134                   23739143.5864
 -12978377.43747 -10069718.48444  22622982.0704                   22622980.0474
 -62731920.97747 -46149903.32845  20515021.1024                   20515019.2504
   -778901.69546   -517591.32043  23700348.8524                   23700349.1914
 -44708976.98846 -34235023.94143  22938025.5784                   22938025.4614
 -41597858.77347 -32368560.28545  20817783.3134                   20817779.0394
 11  8  3  0 46 30.0000000  0  9G09G10G17G28G12G04G05G27G02
 -31219299.60947 -23894711.95744  22541167.0474                   22541166.3594
 -29977891.76247 -23265909.30144  21340732.7194                   21340731.2774
 -81567748.23847 -63473981.80144  22352795.8134                   22352793.7894
 -97455505.41445 -74587841.52342  23738429.4774                   23738431.5124
 -13164799.98047 -10214982.78144  22587507.3364                   22587504.8674
 -62776472.85947 -46184619.07845  20506542.9534                   20506541.3444
   -983931.30146   -677354.41843  23661332.0784                   23661333.6214
 -44760702.03146 -34275329.24643  22928182.0164                   22928181.9844
 -41727264.81647 -32469396.13745  20793158.3754                   20793153.7074
 11  8  3  0 47  0.0000000  0  9G09G10G17G28G12G04G05G27G02
 -31265525.68046 -23930732.32444  22532370.1094                   22532369.8754
 -30130828.93447 -23385081.08644  21311630.1644                   21311627.8404
 -81624204.13347 -63517973.43744  22342053.0944                   22342050.6564
 -97458922.00845 -74590503.94942  23737780.4694                   23737781.8444
 -13350922.60247 -10360013.35944  22552088.9534                   22552086.7704
 -62820596.27747 -46219000.96945  20498146.6884                   20498145.1024
  -1188838.18446   -837021.93443  23622339.8444                   23622340.0044
 -44812043.43446 -34315335.62543  22918412.5704                   22918412.3714
 -41856223.25047 -32569883.21545  20768618.2274                   20768613.6294
 11  8  3  0 47 30.0000000  0  9G09G10G17G28G12G04G05G27G02
 -31311223.14846 -23966340.80143  22523674.5864                   22523673.1844
 -30283187.47747 -23503801.99244  21282636.5704                   21282635.1254
 -81680469.42647 -63561816.54744  22331345.5634                   22331343.2664
 -97462012.03545 -74592911.92242  23737191.4694                   23737193.8094
 -13536743.03147 -10504808.47344  22516728.4064                   22516725.8674
 -62864294.41847 -46253051.46945  20489831.1094                   20489828.8714
  -1393619.72346   -996591.73443  23583370.6334                   23583371.8914
 -44863004.18446 -34355045.37544  22908715.0234                   22908715.3244
 -41984735.32447 -32670022.48445  20744162.9064                   20744158.2274
 11  8  3  0 48  0.0000000  0  9G09G10G17G28G12G04G05G27G02
 -31356398.86746 -24001542.71144  22515077.6564                   22515077.1564
 -30434968.44947 -23622072.83644  21253754.0474                   21253751.8324
 -81736547.33647 -63605513.64144  22320674.8754                   22320672.7624
 -97464780.87945 -74595069.56242  23736665.6334                   23736667.1564
 -13722262.89847 -10649369.37144  22481425.4384                   22481422.8524
 -62907573.28147 -46286775.26645  20481595.8054                   20481593.1374
  -1598277.25446  -1156064.94943  23544425.7034                   23544426.1564
 -44913590.78146 -34394463.57043  22899088.5084                   22899089.0004
 -42112805.23447 -32769817.20345  20719792.3054                   20719788.1684
 11  8  3  0 48 30.0000000  0  9G09G10G17G28G12G04G05G27G02
 -31401054.12946 -24036339.06643  22506580.0084                   22506578.9574
 -30586167.85547 -23739890.52044  21224981.6094                   21224979.5864
 -81792435.65247 -63649062.98044  22310039.3984                   22310037.4614
 -97467229.22745 -74596977.44542  23736199.4064                   23736201.4534
 -13907477.80147 -10793692.64844  22446179.6724                   22446177.2624
 -62950433.69147 -46320172.98445  20473439.3984                   20473437.3714
  -1802805.95746  -1315437.78543  23505505.8284                   23505505.7734
 -44963803.84446 -34433590.70743  22889534.2664                   22889533.4224
 -42240431.79747 -32869266.45745  20695505.8204                   20695501.1214
 11  8  3  0 49  0.0000000  0  9G09G10G17G28G12G04G05G27G02
 -31445194.89846 -24070734.53144  22498180.2424                   22498179.2544
 -30736786.20747 -23857255.43044  21196319.4924                   21196318.1454
 -81848137.04347 -63692466.68444  22299439.8754                   22299437.7274
 -97469362.19945 -74598639.59842  23735793.5864                   23735795.3014
 -14092388.19547 -10937778.64544  22410992.7274                   22410990.1884
 -62992880.99647 -46353248.81645  20465361.7584                   20465360.3054
  -2007206.00446  -1474710.32043  23466609.0474                   23466609.6214
 -45013648.95746 -34472431.14144  22880048.4774                   22880048.4454
 -42367618.50047 -32968372.97345  20671303.0234                   20671298.1724
 11  8  3  0 49 30.0000000  0  9G09G10G17G28G12G04G05G27G02
 -31488825.98446 -24104732.84843  22489876.9844                   22489876.5274
 -30886823.03147 -23974167.20745  21167769.1884                   21167767.0634
 -81903652.84047 -63735725.78944  22288875.5084                   22288873.6844
 -97471182.86745 -74600058.46542  23735446.6254                   23735449.2114
 -14276993.48047 -11081626.90644  22375863.7034                   22375861.0984
 -63034919.43747 -46386006.04345  20457362.3134                   20457360.2114
  -2211476.50046  -1633881.93443  23427737.3674                   23427738.1604
 -45063130.57846 -34510988.32843  22870632.7344                   22870632.5944
 -42494367.52347 -33067138.42645  20647183.5084                   20647178.9804
 11  8  3  0 50  0.0000000  0  9G09G10G17G28G12G04G05G27G02
 -29956528.34846 -22910734.76243  22781464.5944                   22781464.2464
 -29460850.10547 -22863019.44145  21439122.1724                   21439120.9614
 -80383560.03947 -62551237.90244  22578139.5394                   22578137.8404
 -95897272.75845 -73373635.10542  24034952.5164                   24034954.6484
 -12885864.40647  -9997630.18444  22640586.5314                   22640583.9844
 -61501129.26247 -45190844.87945  20749232.5944                   20749230.9774
   -840187.04746   -565344.53143  23688685.1884                   23688685.4104
 -43536828.79746 -33321662.34043  23161077.8524                   23161077.8444
 -41045254.56247 -31937959.48045  20922939.9774                   20922935.9264
 11  8  3  0 50 30.0000000  0  9G09G10G17G28G12G04G05G27G02
 -29999148.16046 -22943945.05943  22773354.2194                   22773353.7584
 -29609714.97747 -22979018.01644  21410795.2584                   21410792.3324
 -80438702.32047 -62594205.95744  22567646.1174                   22567644.7304
 -95898473.85545 -73374571.19142  24034723.5474                   24034726.4884
 -13069851.08647 -10140996.42244  22605575.2344                   22605572.6764
 -61542356.06247 -45222969.67645  20741387.9454                   20741385.7304
  -1044188.71546   -724306.65643  23649864.5474                   23649864.5204
 -43585589.80946 -33359657.98844  23151799.6174                   23151799.3134
 -41171128.80547 -32036043.28945  20898987.3204                   20898982.6024
 11  8  3  0 51  0.0000000  0  9G09G10G17G28G12G04G05G27G02
 -30041269.27346 -22976766.77343  22765338.0944                   22765337.9064
 -29757992.61747 -23094559.00444  21382578.0864                   21382575.9304
 -80493659.03147 -62637029.40244  22557188.2894                   22557186.3714
 -95899370.60945 -73375270.05942  24034554.4534                   24034555.3984
 -13253527.05147 -10284120.51644  22570622.6954                   22570619.9804
 -61583183.14147 -45254783.00045  20733619.0784                   20733616.6484
  -1248054.29746   -883162.77343  23611070.0164                   23611070.0984
 -43633996.71546 -33397377.74243  23142587.5634                   23142587.3484
 -41296568.60547 -32133788.58245  20875116.4924                   20875112.0704
 11  8  3  0 51 30.0000000  0  9G09G10G17G28G12G04G05G27G02
 -30082894.12546 -23009201.77343  22757417.3914                   22757416.4264
 -29905680.00447 -23209640.04345  21354474.3444                   21354472.4454
 -80548429.46146 -62679707.68044  22546765.8134                   22546763.6994
 -95899964.05145 -73375732.56642  24034440.3594                   24034442.9344
 -13436888.72347 -10426999.70744  22535729.9304                   22535727.2424
 -61623612.10947 -45286286.09845  20725925.6884                   20725923.2974
  -1451780.05146  -1041909.94543  23572302.3524                   23572302.5164
 -43682051.43046 -33434823.05143  23133442.9454                   23133443.0314
 -41421573.98047 -32231195.35545  20851328.9534                   20851324.6054
 11  8  3  0 52  0.0000000  0  9G09G10G17G28G12G04G05G27G02
 -30124027.56246 -23041253.86343  22749590.5394                   22749589.4184
 -30052776.64547 -23324260.77745  21326482.2274                   21326480.6414
 -80603014.71147 -62722241.64844  22536378.1174                   22536376.5314
 -95900257.68745 -73375961.52042  24034383.9534                   24034387.4924
 -13619935.84847 -10569633.79744  22500896.8594                   22500894.7774
 -61663647.16047 -45317482.26245  20718306.8204                   20718304.8364
  -1655364.91046  -1200547.29743  23533560.5944                   23533561.4024
 -43729758.16046 -33471997.20743  23124365.4844                   23124365.2664
 -41546147.03547 -32328265.25045  20827623.6954                   20827619.2664
 11  8  3  0 52 30.0000000  0  9G09G10G17G28G12G04G05G27G02
 -30164673.75046 -23072926.28943  22741855.1564                   22741854.9774
 -30199281.06647 -23438420.03544  21298603.4064                   21298601.7234
 -80657415.24247 -62764631.68744  22526026.5704                   22526024.1214
 -95900254.67645 -73375959.33642  24034383.9304                   24034388.4924
 -13802666.54747 -10712021.33245  22466124.0784                   22466121.9144
 -61703291.68447 -45348374.14145  20710762.8754                   20710760.4534
  -1858806.91446  -1359073.37543  23494847.2664                   23494847.8914
 -43777120.43046 -33508902.96143  23115351.7274                   23115352.6644
 -41670289.53947 -32424999.64545  20804000.1724                   20803995.5274
 11  8  3  0 53  0.0000000  0  9G09G10G17G28G12G04G05G27G02
 -30204835.01246 -23104220.83643  22734212.7034                   22734213.5084
 -30345190.27047 -23552115.49644  21270838.2894                   21270835.9614
 -80711629.89147 -62806876.91844  22515709.9534                   22515707.2664
 -95899956.25845 -73375726.87142  24034441.9534                   24034446.7664
 -13985077.74647 -10854159.89844  22431413.1094                   22431410.1134
 -61742547.27047 -45378962.93445  20703292.4144                   20703290.5044
  -2062102.61346  -1517485.44543  23456161.4534                   23456161.5784
 -43824140.28546 -33545541.87543  23106405.3754                   23106405.2034
 -41794001.19147 -32521398.32445  20780458.5314                   20780454.4924
 11  8  3  0 53 30.0000000  0  9G09G10G17G28G12G04G05G27G02
 -30244514.02346 -23135139.60244  22726663.0474                   22726662.8094
 -30490501.74647 -23665345.18745  21243185.7814                   21243184.5594
 -80765657.71947 -62848976.53544  22505428.7734                   22505426.2704
 -95899363.98445 -73375265.51642  24034555.2274                   24034558.6484
 -14167166.58247 -10996047.27345  22396762.2114                   22396760.0824
 -61781416.15247 -45409250.40245  20695896.1724                   20695893.9574
  -2265248.69146  -1675780.95743  23417504.7114                   23417504.2234
 -43870819.77346 -33581915.57043  23097521.6954                   23097521.8014
 -41917282.00847 -32617461.27745  20756998.9454                   20756994.4414
 11  8  3  0 54  0.0000000  0  9G09G10G17G28G12G04G05G27G02
 -30283715.73846 -23165686.45344  22719202.7034                   22719202.8714
 -30635214.72747 -23778108.50845  21215648.0474                   21215646.2704
 -80819499.72747 -62890931.37944  22495183.5704                   22495180.4774
 -95898481.27345 -73374577.80542  24034723.5634                   24034727.2854
 -14348932.20347 -11137682.80144  22362173.2194                   22362171.0434
 -61819902.14547 -45439239.51245  20688572.5474                   20688570.7704
  -2468243.94146  -1833958.92243  23378875.5234                   23378874.8094
 -43917163.18446 -33618027.41843  23088703.0554                   23088703.0354
 -42040134.25447 -32713190.27345  20733620.7664                   20733616.6994
 11  8  3  0 54 30.0000000  0  9G09G10G17G28G12G04G05G27G02
 -30322443.71546 -23195864.14544  22711833.5394                   22711832.7114
 -30779327.26647 -23890403.97744  21188224.6564                   21188222.5634
 -80873156.23447 -62932741.68044  22484972.7344                   22484970.9264
 -95897310.75045 -73373665.82042  24034946.9534                   24034949.7934
 -14530372.33247 -11279064.68045  22327647.2664                   22327644.2974
 -61858008.32047 -45468932.65245  20681320.7814                   20681318.8134
  -2671085.80946  -1992017.38743  23340274.9064                   23340275.2154
 -43963173.58246 -33653879.77043  23079948.2584                   23079947.1054
 -42162559.18047 -32808586.29345  20710324.0704                   20710320.0434
 11  8  3  0 55  0.0000000  0  9G09G10G17G28G12G04G05G27G02
 -30360703.41846 -23225676.96143  22704552.8914                   22704552.2894
 -30922839.37947 -24002231.57045  21160915.1804                   21160913.2274
 -80926628.87147 -62974408.69944  22474797.2274                   22474795.4344
 -95895856.51645 -73372532.78542  24035223.5704                   24035226.4844
 -14711486.86347 -11420192.86345  22293181.8754                   22293179.1374
 -61895739.29747 -45498333.43745  20674141.5394                   20674140.0474
  -2873774.04746  -2149956.13743  23301704.8444                   23301704.9494
 -44008855.75046 -33689476.32043  23071254.6724                   23071254.1374
 -42284559.74247 -32903651.64145  20687108.7344                   20687103.8954
 11  8  3  0 55 30.0000000  0  9G09G10G17G28G12G04G05G27G02
 -30398497.68746 -23255127.10944  22697360.8364                   22697360.8404
 -31065748.62547 -24113589.39544  21133720.3834                   21133718.4384
 -80979916.71147 -63015931.71144  22464656.7894                   22464655.1954
 -95894120.17245 -73371179.88342  24035552.8524                   24035556.8954
 -14892272.96947 -11561065.12945  22258779.7344                   22258777.2154
 -61933097.08247 -45527443.42245  20667032.2894                   20667030.3984
  -3076305.03946  -2307772.35943  23263164.5394                   23263164.6414
 -44054211.89546 -33724818.84843  23062624.0864                   23062623.8244
 -42406135.72747 -32998386.14546  20663972.9844                   20663968.9184
 11  8  3  0 56  0.0000000  0  9G09G10G17G28G12G04G05G27G02
 -30435831.97346 -23284218.81243  22690256.5394                   22690255.7854
 -31208054.89847 -24224477.35945  21106640.2734                   21106638.6914
 -81033021.18746 -63057311.86744  22454551.4144                   22454549.7464
 -95892106.07045 -73369610.61342  24035936.7974                   24035940.1994
 -15072730.19147 -11701681.12544  22224439.3594                   22224436.8014
 -61970086.20747 -45556266.13745  20659993.6334                   20659991.4804
  -3278678.05946  -2465465.50043  23224654.2274                   23224654.2704
 -44099247.08646 -33759911.26243  23054053.6724                   23054054.1684
 -42527290.19147 -33092792.20345  20640918.2034                   20640913.5904
 11  8  3  0 56 30.0000000  0  9G09G10G17G28G12G04G05G27G02
 -30472706.51646 -23312952.25844  22683239.1414                   22683239.2274
 -31349753.66047 -24334891.96145  21079675.5474                   21079673.8014
 -81085939.66847 -63098547.08244  22444481.2584                   22444479.7424
 -95889813.78145 -73367824.54742  24036373.7034                   24036376.1524
 -15252853.27747 -11842036.75444  22190163.1884                   22190160.4924
 -62006706.69547 -45584801.59845  20653025.1024                   20653022.3444
  -3480888.07446  -2623031.59043  23186174.2194                   23186174.9654
 -44143961.45346 -33794753.72743  23045544.9534                   23045545.2704
 -42648021.41447 -33186868.46545  20617943.7194                   20617939.0124
 11  8  3  0 57  0.0000000  0  9G09G10G17G28G12G04G05G27G02
 -30509124.52346 -23341329.98844  22676309.5944                   22676309.2154
 -31490842.47347 -24444831.25445  21052827.5704                   21052825.7854
 -81138671.12947 -63139636.55944  22434446.5864                   22434445.0044
 -95887244.76645 -73365822.85542  24036861.8054                   24036865.3284
 -15432639.73047 -11982130.06244  22155951.1094                   22155948.5124
 -62042960.62547 -45613051.41845  20646125.8754                   20646124.0164
  -3682931.71546  -2780468.07843  23147726.9454                   23147726.2504
 -44188357.21546 -33829347.87143  23037097.1644                   23037096.6804
 -42768329.50047 -33280614.99645  20595050.7034                   20595045.2584
 11  8  3  0 57 30.0000000  0  9G09G10G17G28G12G04G05G27G02
 -30545090.30146 -23369355.32844  22669465.0634                   22669464.6844
 -31631319.79747 -24554294.07044  21026095.1564                   21026093.4774
 -81191215.60546 -63180580.35244  22424448.1414                   22424446.0434
 -95884401.96545 -73363607.81242  24037402.3984                   24037406.7934
 -15612087.41047 -12121959.38344  22121803.0634                   22121800.4844
 -62078850.96547 -45641017.93745  20639296.4224                   20639294.1414
  -3884806.71946  -2937773.13743  23109311.4924                   23109311.0864
 -44232437.44146 -33863696.18743  23028709.0084                   23028708.7814
 -42888215.76247 -33374032.83245  20572235.4774                   20572232.1564
 11  8  3  0 58  0.0000000  0  9G09G10G17G28G12G04G05G27G02
 -29005184.82446 -22169429.00843  22962499.1804                   22962499.4384
 -30195757.95347 -23435674.41845  21299273.6804                   21299271.6604
 -79668150.34047 -61993776.25044  22714277.6334                   22714275.3594
 -94305866.480 5                  24337788.258
 -14215767.27347 -11033917.68044  22387514.3524                   22387511.7234
 -60538958.27047 -44441101.55945  20932328.7424                   20932325.8874
  -2511082.59446  -1867338.62543  23370722.6174                   23370722.2424
 -42700782.95346 -32670199.26243  23320173.2194                   23320172.5314
 -41432256.08247 -32239518.77345  20849297.2974                   20849291.2034
 11  8  3  0 58 30.0000000  0  9G09G10G17G28G12G04G05G27G02
 -29040256.11746 -22196757.36543  22955826.4304                   22955824.9964
 -30335006.60547 -23544179.82445  21272775.5784                   21272773.7344
 -79720320.78547 -62034428.55944  22704350.3444                   22704347.7504
 -94302482.422 5                  24338432.984
 -14394531.13347 -11173214.17244  22353496.3984                   22353493.7274
 -60574129.61747 -44468507.82045  20925635.4924                   20925633.5394
  -2712612.56246  -2024374.83643  23332372.0004                   23332372.4414
 -42744241.42246 -32704063.07043  23311902.7194                   23311903.0084
 -41551301.82447 -32332281.66845  20826642.1094                   20826638.1174
 11  8  3  0 59  0.0000000  0  9G09G10G17G28G12G04G05G27G02
 -29074885.87946 -22223741.62543  22949235.9534                   22949235.6524
 -30473639.07047 -23652205.08645  21246394.4694                   21246392.4344
 -79772304.07847 -62074935.03944  22694458.4694                   22694456.3134
 -94298831.816 5                  24339127.680
 -14572950.22747 -11312242.00445  22319544.7114                   22319542.1644
 -60608946.25047 -44495637.67645  20919009.9064                   20919007.7544
  -2913966.67646  -2181274.03143  23294055.9924                   23294054.8914
 -42787393.90646 -32737688.48443  23303691.1174                   23303692.0084
 -41669929.39547 -32424718.72346  20804068.8364                   20804063.6334
 11  8  3  0 59 30.0000000  0  9G09G10G17G28G12G04G05G27G02
 -29109077.66446 -22250384.64543  22942730.0164                   22942729.2344
 -30611653.79747 -23759748.99245  21220131.3984                   21220129.3954
 -79824100.27346 -62115295.72744  22684601.6414                   22684599.8204
 -94294917.555 5                  24339872.047
 -14751022.19947 -11450999.35245  22285657.8834                   22285655.5394
 -60643410.77747 -44522493.16045  20912451.4224                   20912449.4024
  -3115142.29346  -2338034.10943  23255773.5234                   23255773.0124
 -42830243.43746 -32771077.83643  23295537.6884                   23295538.2854
 -41788139.48847 -32516830.46146  20781574.2584                   20781569.4104
 11  8  3  1  0  0.0000000  0  9G09G10G17G28G12G04G05G27G02
 -29142834.34446 -22276688.60243  22936306.0474                   22936305.3404
 -30749047.87147 -23866809.28545  21193986.1644                   21193984.2154
 -79875708.38347 -62155509.85944  22674780.3364                   22674778.6374
 -94290740.793 5                  24340666.805
 -14928744.36347 -11589484.13345  22251838.2814                   22251836.3874
 -60677525.22347 -44549075.85545  20905959.6644                   20905957.8444
  -3316136.05146  -2494652.50043  23217525.0944                   23217524.1644
 -42872792.35946 -32804232.91843  23287441.2894                   23287441.6294
 -41905932.55947 -32608617.24645  20759158.7734                   20759153.5514
 11  8  3  1  0 30.0000000  0  9G09G10G17G28G12G04G05G27G02
 -29176160.88746 -22302657.39543  22929964.4774                   22929963.1174
 -30885820.85947 -23973385.60545  21167959.2734                   21167956.9384
 -79927129.35547 -62195578.17644  22664995.1884                   22664993.7704
 -94286304.941 5                  24341512.078
 -15106115.48047 -11727695.35245  22218086.3524                   22218084.1844
 -60711293.12547 -44575388.52045  20899533.9384                   20899531.8674
  -3516946.44546  -2651128.00843  23179312.2504                   23179311.6804
 -42915044.85946 -32837157.02343  23279399.9384                   23279400.7704
 -42023310.58247 -32700080.62145  20736821.5474                   20736817.5634
 11  8  3  1  1  0.0000000  0  9G09G10G17G28G12G04G05G27G02
 -29209057.44546 -22328291.10943  22923704.6884                   22923703.6954
 -31021967.78947 -24079474.09444  21142050.7274                   21142049.4224
 -79978359.60547 -62235497.86744  22655247.2504                   22655245.4264
 -94281609.12114                  24342405.414
 -15283129.89147 -11865628.64145  22184401.4844                   22184399.0514
 -60744714.15247 -44601430.89145  20893174.1174                   20893172.1134
  -3717567.65646  -2807456.09043  23141135.2034                   23141134.5984
 -42957000.45346 -32869849.77743  23271416.9844                   23271417.1954
 -42140271.31247 -32791218.84446  20714565.1724                   20714560.6684
 11  8  3  1  1 30.0000000  0  8G09G10G17G12G04G05G27G02
 -29241529.65246 -22353594.18443  22917525.1884                   22917524.5634
 -31157489.16047 -24185075.13345  21116262.4384                   21116260.0864
 -80029401.12147 -62275270.50444  22645534.3984                   22645532.5784
 -15459787.38747 -12003283.80545  22150784.7194                   22150782.2734
 -60777793.00447 -44627206.62945  20886879.8284                   20886877.8714
  -3917999.36746  -2963636.53943  23102994.1484                   23102993.1414
 -42998664.46946 -32902315.35943  23263488.8984                   23263489.1684
 -42256818.30547 -32882034.66446  20692387.1334                   20692382.4304
 11  8  3  1  2  0.0000000  0  8G09G10G17G12G04G05G27G02
 -29273579.64546 -22378568.23843  22911425.6804                   22911426.0204
 -31292381.92247 -24290186.35945  21090592.8914                   21090591.3754
 -80080251.98847 -62314894.57844  22635857.3834                   22635855.8054
 -15636084.65647 -12140658.29745  22117236.8754                   22117233.7424
 -60810530.94547 -44652716.73445  20880650.2194                   20880648.0354
  -4118237.14846  -3119665.84843  23064890.4064                   23064889.4574
 -43040038.24246 -32934554.75843  23255614.4304                   23255615.5984
 -42372950.69147 -32972527.42646  20670287.7114                   20670283.4964
 11  8  3  1  2 30.0000000  0  8G09G10G17G12G04G05G27G02
 -29305207.96146 -22403213.75043  22905407.8134                   22905407.1334
 -31426641.21947 -24394803.98445  21065044.3594                   21065042.6954
 -80130908.34047 -62354367.07044  22626217.4534                   22626215.6174
 -15812015.79347 -12277747.46545  22083757.8594                   22083755.4734
 -60842927.44147 -44677960.77045  20874485.0394                   20874483.0634
  -4318275.35546  -3275539.60243  23026824.1414                   23026823.7034
 -43081121.65246 -32966567.87943  23247797.5634                   23247798.4964
 -42488666.55947 -33062695.62546  20648268.1334                   20648263.0704
 11  8  3  1  3  0.0000000  0  8G09G10G17G12G04G05G27G02
 -29336411.45746 -22427528.17243  22899469.5084                   22899469.0234
 -31560258.87947 -24498921.61345  21039617.8284                   21039616.0904
 -80181364.43746 -62393683.52744  22616616.2814                   22616614.5274
 -15987572.40647 -12414544.79345  22050350.3524                   22050348.2234
 -60874978.71147 -44702935.78145  20868385.7424                   20868384.1454
  -4518104.68446  -3431250.65644  22988797.4924                   22988797.1214
 -43121910.98446 -32998351.89143  23240036.2344                   23240036.5824
 -42603960.02047 -33152534.66446  20626328.3444                   20626323.7584
 11  8  3  1  3 30.0000000  0  8G09G10G17G12G04G05G27G02
 -29367194.73046 -22451515.23043  22893611.1884                   22893611.0944
 -31693234.02747 -24602538.60245  21014313.4224                   21014311.4844
 -80231620.56247 -62432844.16444  22607053.5004                   22607051.4024
 -16162752.98447 -12551049.12545  22017014.4614                   22017012.2814
 -60906687.97347 -44727644.31245  20862351.6174                   20862349.8364
  -4717723.38746  -3586797.56243  22950811.0944                   22950811.1884
 -43162410.01246 -33029909.68743  23232329.7114                   23232329.6844
 -42718833.28547 -33242046.29346  20604468.4534                   20604464.0204
 11  8  3  1  4  0.0000000  0  8G09G10G17G12G04G05G27G02
 -29397557.50446 -22475174.59243  22887833.4144                   22887832.7584
 -31825561.90647 -24705651.20345  20989132.0944                   20989130.4064
 -80281672.56246 -62471845.75444  22597527.7814                   22597527.0124
 -16337551.46947 -12687255.71145  21983751.0554                   21983749.2234
 -60938054.36347 -44752085.68045  20856382.7034                   20856381.1254
  -4917124.98046  -3742175.30144  22912866.3984                   22912865.9614
 -43202618.23046 -33061240.87943  23224677.5864                   23224678.9224
 -42833283.42247 -33331228.21545  20582689.0784                   20582685.0234
 11  8  3  1  4 30.0000000  0  8G09G10G17G12G04G05G27G02
 -29427507.14146 -22498512.03143  22882134.8524                   22882134.5514
 -31957244.07047 -24808260.66845  20964074.5554                   20964072.0084
 -80331523.64146 -62510690.77044  22588042.8444                   22588040.4964
 -16511968.94947 -12823165.40645  21950561.2344                   21950558.6804
 -60969083.95347 -44776264.59845  20850478.1644                   20850476.1454
  -5116310.44946  -3897384.60943  22874961.8444                   22874962.1724
 -43242542.25445 -33092350.65243  23217080.0864                   23217081.8054
 -42947315.19547 -33420084.14146  20560989.6644                   20560985.2854
 11  8  3  1  5  0.0000000  0  8G09G10G17G12G04G05G27G02
 -29457046.94146 -22521530.14143  22876513.6094                   22876512.9574
 -32088278.76647 -24910365.60945  20939138.6414                   20939137.1024
 -80381173.03546 -62549378.61344  22578594.3524                   22578591.8674
 -16686002.87147 -12958776.22345  21917443.2584                   21917440.8874
 -60999779.22347 -44800183.00045  20844637.5554                   20844635.0314
  -5315276.80146  -4052423.19543  22837099.9694                   22837099.9454
 -43282184.74246 -33123241.00043  23209536.2974                   23209538.5044
 -43060929.51247 -33508614.75846  20539369.4694                   20539365.1524
 11  8  3  1  5 30.0000000  0  8G09G10G17G12G04G05G27G02
 -29486180.41446 -22544231.59443  22870969.8984                   22870969.2934
 -32218664.50447 -25011964.85945  20914327.1484                   20914325.2664
 -80430620.83646 -62587909.40244  22569184.2894                   22569182.6914
 -16859651.16447 -13094086.55945  21884399.1174                   21884396.9264
 -61030142.72347 -44823842.89145  20838859.5234                   20838857.1884
  -5514021.39546  -4207288.97344  22799280.8524                   22799279.7274
 -43321548.57046 -33153914.21143  23202046.4534                   23202047.1604
 -43174127.05547 -33596820.62546  20517828.9304                   20517824.7154
 11  8  3  1  6  0.0000000  0  8G09G10G17G12G04G05G27G02
 -27939493.62146 -21339021.19543  23165294.3754                   23165294.4844
 -30772978.85247 -23885456.53545  21189431.9064                   21189430.2664
 -78904448.15646 -61398683.94944  22859605.3674                   22859604.2544
 -15457489.14847 -12001492.74645  22151222.3054                   22151219.5314
 -59484759.15647 -43619647.91845  21132935.5314                   21132934.1174
  -4137118.36346  -3134377.40644  23061296.2584                   23061295.9574
 -41785218.60946 -31956774.07043  23494400.6094                   23494401.2624
 -41711488.69547 -32457102.41045  20796159.8754                   20796155.1724
 11  8  3  1  6 30.0000000  0  8G09G10G17G12G04G05G27G02
 -27967826.35546 -21361098.73443  23159902.4924                   23159902.4534
 -30902063.39847 -23986041.87145  21164868.0314                   21164865.8634
 -78953492.27046 -61436900.16044  22850273.0164                   22850271.0354
 -15630360.53947 -12136197.69945  22118326.0004                   22118323.0044
 -59514467.89847 -43642797.59045  21127282.9694                   21127280.5124
  -4335412.62946  -3288892.29344  23023561.9534                   23023561.3484
 -41824035.02346 -31987020.74643  23487013.9694                   23487014.7854
 -41823857.51647 -32544662.50846  20774776.7274                   20774772.0394
 11  8  3  1  7  0.0000000  0  8G09G10G17G12G04G05G27G02
 -27995766.38746 -21382870.25443  23154585.8054                   23154585.9774
 -31030497.46147 -24086120.33245  21140427.3444                   21140425.3324
 -79002336.83246 -61474960.87544  22840978.0084                   22840976.2814
 -15802841.88347 -12270598.71945  22085503.5084                   22085500.5904
 -59543855.53547 -43665697.05145  21121690.1174                   21121688.1454
  -4533479.85246  -3443230.28144  22985871.5704                   22985870.5084
 -41862584.51646 -32017059.45343  23479677.7274                   23479678.9694
 -41935815.63747 -32631902.59045  20753471.9064                   20753467.3524
 11  8  3  1  7 30.0000000  0  8G09G10G17G12G04G05G27G02
 -28023316.08246 -21404337.61743  23149343.8204                   23149343.4264
 -31158278.43747 -24185689.90245  21116111.8444                   21116109.9414
 -79050980.11346 -61512864.75844  22831721.5554                   22831720.3834
 -15974929.90247 -12404693.25045  22052755.7664                   22052753.8134
 -59572923.28547 -43688347.26245  21116158.5474                   21116156.7934
  -4731315.96946  -3597388.17244  22948223.9064                   22948223.5744
 -41900868.79746 -32046891.40643  23472392.5004                   23472394.0594
 -42047362.90247 -32718822.52046  20732244.7114                   20732240.2814
 11  8  3  1  8  0.0000000  0  8G09G10G17G12G04G05G27G02
 -28050480.25846 -21425504.60243  23144174.4534                   23144174.6334
 -31285405.90247 -24284750.23845  21091920.1804                   21091918.2384
 -79099422.86346 -61550612.36744  22822502.8914                   22822501.0784
 -16146623.60947 -12538480.52045  22020083.6724                   22020081.5664
 -59601674.86347 -43710751.09445  21110687.7114                   21110685.9184
  -4928919.62946  -3751364.93444  22910621.2034                   22910620.3484
 -41938892.12546 -32076520.07043  23465157.0784                   23465158.3594
 -42158501.43747 -32805423.96945  20711095.7814                   20711091.3954
 11  8  3  1  8 30.0000000  0  8G09G10G17G12G04G05G27G02
 -28077259.36346 -21446371.53143  23139079.4064                   23139079.2974
 -31411875.64147 -24383298.04745  21067853.8914                   21067852.1644
 -79147661.62546 -61588201.03144  22813324.0784                   22813322.2074
 -16317917.17647 -12671956.02045  21987487.9534                   21987485.7194
 -59630109.78147 -43732908.18745  21105276.3524                   21105274.7154
  -5126284.70746  -3905155.81644  22873064.3134                   22873062.7384
 -41976654.25846 -32105945.21443  23457971.9694                   23457972.5824
 -42269229.59847 -32891705.64546  20690025.2664                   20690020.7734
 11  8  3  1  9  0.0000000  0  8G09G10G17G12G04G05G27G02
 -28103656.89846 -21466941.12943  23134056.1484                   23134055.7424
 -31537686.15247 -24481332.18745  21043912.9534                   21043910.7584
 -79195696.30546 -61625630.68044  22804182.9304                   22804181.1884
 -16488808.80147 -12805118.28545  21954967.9144                   21954965.7074
 -59658230.87547 -43754820.74245  21099925.4774                   21099923.9104
  -5323408.97346  -4058759.02744  22835551.6954                   22835551.0824
 -42014158.27346 -32135169.18043  23450836.0164                   23450835.9264
 -42379548.30547 -32977668.25846  20669032.0394                   20669027.8914
 11  8  3  1  9 30.0000000  0  8G09G10G17G12G04G05G27G02
 -28129679.25446 -21487218.37143  23129104.0784                   23129103.9304
 -31662838.46147 -24578853.43745  21020097.2734                   21020095.0664
 -79243529.20346 -61662903.07844  22795081.2664                   22795079.2234
 -16659298.71547 -12937967.53145  21922525.3054                   21922522.5434
 -59686043.16047 -43776492.66845  21094632.8594                   21094630.7424
  -5520292.12946  -4212174.38744  22798086.3674                   22798085.7344
 -42051409.87546 -32164196.51242  23443746.8594                   23443747.1054
 -42489461.19147 -33063314.64845  20648116.4534                   20648111.7234
 11  8  3  1 10  0.0000000  0  8G09G10G17G12G04G05G27G02
 -28155328.62546 -21507204.99643  23124223.0944                   23124222.9614
 -31787330.10247 -24675859.88345  20996407.0864                   20996405.4344
 -79291158.62946 -61700016.94544  22786017.4534                   22786014.8634
 -16829383.21147 -13070500.88745  21890158.6024                   21890156.8054
 -59713547.50847 -43797924.64545  21089398.7114                   21089397.4384
  -5716929.96946  -4365398.58244  22760667.9774                   22760666.5234
 -42088410.62946 -32193028.32042  23436706.2734                   23436706.0084
 -42598967.99247 -33148644.60545  20627278.4064                   20627273.3674
 11  8  3  1 10 30.0000000  0  8G09G10G17G12G04G05G27G02
 -28180609.76646 -21526904.67643  23119411.9924                   23119412.1294
 -31911160.93747 -24772351.40645  20972843.4454                   20972840.8164
 -79338585.03146 -61736972.60944  22776992.5944                   22776991.1954
 -16999060.83647 -13202717.20345  21857870.7424                   21857867.9694
 -59740747.50847 -43819119.45745  21084223.1094                   21084221.3524
  -5913320.55146  -4518430.10544  22723295.5634                   22723294.5044
 -42125164.56246 -32221667.85543  23429712.6804                   23429711.6134
 -42708070.48047 -33233659.52045  20606516.7974                   20606511.8984
 11  8  3  1 11  0.0000000  0  8G09G10G17G12G04G05G27G02
 -28205526.60246 -21546320.50443  23114670.6334                   23114670.1724
 -32034329.72347 -24868327.05545  20949404.9774                   20949402.8014
 -79385808.50446 -61773770.14844  22768005.6174                   22768004.2424
 -17168329.80547 -13334615.07445  21825659.5164                   21825656.8914
 -59767646.10247 -43840079.41845  21079104.4384                   21079102.5864
  -6109461.82046  -4671267.35944  22685971.0164                   22685969.8204
 -42161674.83246 -32250117.48043  23422764.1174                   23422764.3484
 -42816770.34847 -33318360.70346  20585831.1884                   20585827.0044
 11  8  3  1 11 30.0000000  0  8G09G10G17G12G04G05G27G02
 -28230080.81646 -21565453.77743  23109997.8284                   23109998.7544
 -32156833.19547 -24963784.27745  20926093.2194                   20926090.5824
 -79432826.60946 -61810407.67244  22759059.0634                   22759057.1174
 -17337185.49247 -13466190.91845  21793527.3134                   21793524.8874
 -59794243.93447 -43860805.01245  21074043.4144                   21074041.0164
  -6305348.75046  -4823906.45744  22648694.9454                   22648694.0234
 -42197942.35246 -32278377.94943  23415862.7814                   23415862.8204
 -42925066.88347 -33402747.59445  20565223.5004                   20565218.8134
 11  8  3  1 12  0.0000000  0  8G09G10G17G12G04G05G27G02
 -28254277.25046 -21584308.21543  23105393.3054                   23105394.2194
 -32278671.63747 -25058723.28545  20902908.0784                   20902905.7464
 -79479640.36746 -61846885.95344  22750150.4304                   22750148.9454
 -17505626.88347 -13597443.93745  21761473.2814                   21761471.4064
 -59820544.92247 -43881299.31245  21069038.0314                   21069036.1884
  -6500980.23046  -4976346.47744  22611468.1564                   22611466.4454
 -42233971.48846 -32306452.67243  23409006.1884                   23409007.2894
 -43032962.64547 -33486822.20345  20544691.7034                   20544687.0234
 11  8  3  1 12 30.0000000  0  8G09G10G17G12G04G05G27G02
 -28278118.45746 -21602885.89143  23100857.7814                   23100857.2464
 -32399842.90247 -25153142.42645  20879850.7194                   20879847.3984
 -79526248.36346 -61883203.88344  22741280.6954                   22741279.9574
 -17673651.15647 -13728371.92245  21729499.9614                   21729497.5204
 -59846550.20347 -43901563.19545  21064089.8204                   21064087.7234
  -6696352.16046  -5128584.24644  22574289.7274                   22574288.4024
 -42269763.89546 -32334342.94943  23402195.5084                   23402196.9384
 -43140457.25047 -33570584.21145  20524235.8594                   20524231.4024
 11  8  3  1 13  0.0000000  0  8G09G10G17G12G04G05G27G02
 -28301610.27046 -21621191.25843  23096387.2034                   23096387.2854
 -32520348.09447 -25247042.55945  20856918.6254                   20856916.4264
 -79572652.81646 -61919363.24644  22732450.3204                   22732449.0164
 -17841258.01647 -13858974.65645  21697605.3984                   21697602.6254
 -59872264.74247 -43921600.52045  21059196.3284                   21059194.2934
  -6891464.43446  -5280619.70344  22537160.4614                   22537159.8834
 -42305325.02746 -32362053.02743  23395427.8204                   23395429.4414
 -43247554.22747 -33654036.39545  20503856.0474                   20503851.2704
 11  8  3  1 13 30.0000000  0  8G09G10G17G12G04G05G27G02
 -28324756.70346 -21639227.53943  23091982.3444                   23091982.3594
 -32640185.93747 -25340422.66845  20834114.4224                   20834111.6604
 -79618853.40246 -61955363.71144  22723658.9064                   22723657.4964
 -18008445.37147 -13989250.49245  21665790.8754                   21665788.0554
 -59897691.25447 -43941413.41045  21054357.6094                   21054355.5904
  -7086314.41846  -5432450.78544  22500082.0944                   22500081.2664
 -42340658.44546 -32389585.68443  23388704.7504                   23388705.9024
 -43354254.87947 -33737179.73846  20483551.4694                   20483546.5944
 11  8  3  1 14  0.0000000  0  8G09G10G17G12G04G05G27G02
 -26772137.66846 -20429394.61743  23387436.3674                   23387436.3634
 -31183929.00847 -24205677.00445  21111230.4384                   21111228.0234
 -78089425.10946 -60763601.44544  23014699.5474                   23014697.9494
 -16599782.60247 -12891591.17645  21933850.2034                   21933847.9574
 -58347408.70347 -42733401.04745  21349366.8984                   21349364.6914
  -5705470.18046  -4356468.18444  22762847.8364                   22762846.7504
 -40800343.02046 -31189340.02043  23681817.7424                   23681818.6844
 -41885134.04347 -32592410.24646  20763116.2814                   20763111.4224
 11  8  3  1 14 30.0000000  0  8G09G10G17G12G04G05G27G02
 -26794598.46146 -20446896.62543  23383161.9774                   23383162.6174
 -31302424.01647 -24298010.75445  21088681.8204                   21088679.2234
 -78135211.57846 -60799279.21944  23005987.5784                   23005985.4924
 -16766118.83247 -13021203.80145  21902197.5784                   21902195.0784
 -58372261.20347 -42752766.66045  21344637.3204                   21344635.5704
  -5899781.71546  -4507879.68044  22725871.5164                   22725870.4734
 -40835224.17246 -31216520.22343  23675179.9144                   23675181.0394
 -41991040.23047 -32674934.53946  20742962.6414                   20742957.9884
 11  8  3  1 15  0.0000000  0  8G09G10G17G12G04G05G27G02
 -26816724.17646 -20464137.50043  23378950.6954                   23378952.2664
 -31420248.05547 -24389821.68445  21066260.2814                   21066258.6094
 -78180792.60546 -60834796.94144  22997313.1804                   22997311.4454
 -16932027.81647 -13150483.50045  21870625.9534                   21870623.5514
 -58396832.30147 -42771912.99245  21339961.7424                   21339959.4844
  -6093821.96546  -4659079.78944  22688946.9384                   22688945.6914
 -40869885.71146 -31243529.33643  23668583.6094                   23668585.3054
 -42096552.96947 -32757152.24246  20722884.2344                   20722879.9264
 11  8  3  1 15 30.0000000  0  8G09G10G17G12G04G05G27G02
 -26838516.90646 -20481118.94943  23374805.1174                   23374804.8674
 -31537398.57047 -24481107.78145  21043967.6254                   21043965.6024
 -78226166.45746 -60870153.21644  22988679.0864                   22988677.4924
 -17097506.10247 -13279427.60545  21839136.8444                   21839133.9574
 -58421123.30947 -42790841.06645  21335339.2344                   21335337.4224
  -6287586.98446  -4810065.43744  22652074.4844                   22652073.4734
 -40904329.12546 -31270368.43743  23662029.9384                   23662029.8324
 -42201671.96947 -32839063.14546  20702881.0944                   20702876.0514
 11  8  3  1 16  0.0000000  0  8G09G10G17G12G04G05G27G02
 -26859983.56646 -20497846.28543  23370719.2584                   23370720.2194
 -31653877.89147 -24571870.87945  21021801.8594                   21021799.7074
 -78271335.94946 -60905350.25844  22980082.9844                   22980081.3984
 -17262554.85247 -13408037.00845  21807729.0554                   21807726.3444
 -58445139.89547 -42809555.31245  21330769.2424                   21330767.4184
  -6481076.92246  -4960836.73444  22615254.2194                   22615252.9614
 -40938560.77746 -31297042.59043  23655515.7424                   23655516.9184
 -42306401.72347 -32920670.72346  20682951.2664                   20682946.8244
 11  8  3  1 16 30.0000000  0  9G09G10G17G25G12G04G05G27G02
 -26881126.03545 -20514321.03143  23366696.9694                   23366696.7814
 -31769682.90247 -24662108.52345  20999765.2584                   20999762.6684
 -78316298.81646 -60940386.28144  22971527.3754                   22971525.0704
  15492212.61755  12154383.64552  24691916.4694                   24691917.8364
 -17427169.30547 -13536307.98445  21776404.1414                   21776400.8204
 -58468882.37547 -42828055.95745  21326251.0164                   21326249.6414
  -6674287.35946  -5111390.26244  22578487.8834                   22578486.3984
 -40972581.80145 -31323552.60943  23649041.2584                   23649043.1374
 -42410741.39147 -33001974.35546  20663096.3444                   20663091.6954
 11  8  3  1 17  0.0000000  0  9G09G10G17G25G12G04G05G27G02
 -26901951.77346 -20530548.95343  23362733.7344                   23362733.9734
 -31884817.00047 -24751823.39545  20977856.0164                   20977853.6054
 -78361058.88746 -60975264.28944  22963009.9304                   22963008.3714
  15293932.89845  11999880.06343  24654184.3594                   24654186.8094
 -17591351.84047 -13664242.41845  21745160.8054                   21745157.9224
 -58492357.44547 -42846348.23445  21321783.5554                   21321781.6374
  -6867219.25446  -5261726.71544  22541773.7504                   22541772.8364
 -41006399.06245 -31349903.82443  23642606.4454                   23642608.2234
 -42514696.25047 -33082978.12546  20643314.3134                   20643309.9534
 11  8  3  1 17 30.0000000  0  9G09G10G17G25G12G04G05G27G02
 -26922468.01246 -20546535.72742  23358829.0634                   23358829.5664
 -31999282.84047 -24841017.52345  20956073.6954                   20956071.4694
 -78405619.37946 -61009986.77344  22954530.1484                   22954528.3794
  15095820.48446  11845506.76643  24616485.4384                   24616486.7734
 -17755103.71947 -13791841.27345  21713999.6564                   21713997.2894
 -58515571.00447 -42864436.75445  21317366.5944                   21317364.3634
  -7059874.09446  -5411847.30944  22505112.7344                   22505111.6724
 -41040019.28546 -31376101.47743  23636208.3984                   23636210.4304
 -42618270.89147 -33163685.62146  20623604.6804                   20623599.5434
 11  8  3  1 18  0.0000000  0  9G09G10G17G25G12G04G05G27G02
 -26942681.89146 -20562286.83643  23354983.1884                   23354983.0824
 -32113082.70347 -24929692.72345  20934417.5944                   20934416.1644
 -78449983.38746 -61044556.14844  22946087.7114                   22946086.2074
  14897874.00846  11691262.87943  24578817.9224                   24578818.7734
 -17918425.75447 -13919105.16845  21682920.8754                   21682918.1454
 -58538529.11347 -42882326.19945  21312997.5784                   21312995.7734
  -7252252.09846  -5561752.16044  22468504.5944                   22468503.4064
 -41073448.69146 -31402150.53543  23629846.9924                   23629848.6134
 -42721470.10947 -33244100.59446  20603966.6804                   20603961.5004
 11  8  3  1 18 30.0000000  0  9G09G10G17G25G12G04G05G27G02
 -26962593.37946 -20577802.35943  23351194.1954                   23351194.0004
 -32226212.32847 -25017845.66045  20912889.7344                   20912888.1374
 -78494146.92246 -61078969.31644  22937684.1334                   22937682.1414
  14700099.53546  11537152.96543  24541181.8674                   24541182.4924
 -18081312.24647 -14046029.69945  21651925.0004                   21651921.9614
 -58561230.36747 -42900015.50845  21308678.3444                   21308676.2664
  -7444347.03546  -5711436.45744  22431949.5864                   22431948.8874
 -41106686.78545 -31428050.43743  23623522.2734                   23623524.0434
 -42824291.47347 -33324221.12546  20584400.4694                   20584395.3714
 11  8  3  1 19  0.0000000  0  9G09G10G17G25G12G04G05G27G02
 -26982205.52746 -20593084.60943  23347461.8674                   23347461.7504
 -32338670.16047 -25105475.12545  20891490.8674                   20891488.2894
 -78538108.88746 -61113225.38744  22929318.3134                   22929316.3204
  14502499.87546  11383179.22743  24503580.0004                   24503580.3364
 -18243760.28147 -14172612.57445  21621012.0474                   21621009.0434
 -58583676.38747 -42917505.93045  21304406.8444                   21304404.7814
  -7636155.39547  -5860897.44944  22395450.2504                   22395449.0044
 -41139735.79345 -31453803.01642  23617233.4844                   23617234.7934
 -42926735.23047 -33404047.42246  20564905.7424                   20564901.0904
 11  8  3  1 19 30.0000000  0  9G09G10G17G25G12G04G05G27G02
 -27001521.77046 -20608136.29343  23343786.9454                   23343786.4734
 -32450454.96147 -25192580.13745  20870218.9304                   20870216.3244
 -78581868.78146 -61147324.02344  22920990.5554                   22920989.3754
  14305077.23846  11229343.50443  24466012.0234                   24466012.5514
 -18405767.69547 -14298852.09445  21590182.5864                   21590179.9614
 -58605869.98447 -42934799.66045  21300183.1024                   21300181.0124
  -7827674.34446  -6010132.92644  22359005.6334                   22359004.2664
 -41172598.84846 -31479410.66842  23610979.7344                   23610981.5354
 -43028802.52047 -33483580.36346  20545482.7664                   20545478.2934
 11  8  3  1 20  0.0000000  0  9G09G10G17G25G12G04G05G27G02
 -27020542.95346 -20622958.07043  23340167.3914                   23340167.2934
 -32561563.05547 -25279157.84445  20849075.3754                   20849073.4534
 -78625423.57846 -61181262.83644  22912702.5474                   22912701.3554
  14107837.00446  11075649.87543  24428478.7734                   24428479.1454
 -18567328.76647 -14424743.82445  21559438.6414                   21559436.1134
 -58627810.07847 -42951895.84845  21296008.1094                   21296005.9884
  -8018898.10947  -6159138.38744  22322616.3204                   22322615.4304
 -41205275.66046 -31504873.16443  23604761.0864                   23604763.6294
 -43130491.75447 -33562818.71146  20526132.2584                   20526127.7424
 11  8  3  1 20 30.0000000  0  9G09G10G17G25G12G04G05G27G02
 -27039273.76646 -20637553.60943  23336601.7504                   23336603.2854
 -32671994.98447 -25365208.68445  20828060.3284                   20828058.2304
 -78668774.01246 -61215042.40644  22904452.9064                   22904452.3014
  13910780.34046  10922099.22743  24390979.6484                   24390980.8984
 -18728442.89547 -14550287.28545  21528779.4454                   21528776.8674
 -58649500.44147 -42968797.44945  21291880.6804                   21291878.6094
  -8209825.15247  -6307912.62944  22286284.2344                   22286283.2074
 -41237770.64546 -31530194.04742  23598578.5784                   23598579.8164
 -43231805.43747 -33641764.43446  20506852.9224                   20506848.4344
 11  8  3  1 21  0.0000000  0  9G09G10G17G25G12G04G05G27G02
 -27057718.64846 -20651926.35543  23333092.5704                   23333093.5314
 -32781750.87947 -25450732.73045  20807174.8364                   20807172.4264
 -78711920.51646 -61248663.07444  22896242.8524                   22896241.7114
  13713908.62546  10768692.67643  24353516.0394                   24353516.9694
 -18889108.28147 -14675481.06245  21498206.3984                   21498203.0664
 -58670944.07447 -42985506.79345  21287799.8674                   21287797.8364
  -8400453.84046  -6456454.39844  22250008.7274                   22250007.4924
 -41270087.57046 -31555376.15243  23592428.8284                   23592430.5784
 -43332745.34447 -33720418.90246  20487644.2814                   20487639.9884
 11  8  3  1 21 30.0000000  0  9G09G10G17G25G12G04G05G27G02
 -27075876.50446 -20666075.39143  23329637.8364                   23329638.2584
 -32890824.87147 -25535725.43445  20786418.5864                   20786416.6524
 -78754857.87146 -61282120.76644  22888072.7424                   22888070.9494
  13517229.11746  10615435.91443  24316089.6564                   24316091.6414
 -19049318.05547 -14800319.82845  21467718.9844                   21467716.3754
 -58692138.66847 -43002022.09045  21283766.9774                   21283765.4534
  -8590776.17646  -6604757.44944  22213791.7034                   22213790.2814
 -41302224.30945 -31580417.87942  23586312.6094                   23586314.9694
 -43433307.82047 -33798779.27346  20468508.2114                   20468503.4734
 11  8  3  1 22  0.0000000  0  9G09G10G17G25G12G04G05G27G02
 -27093753.23046 -20680005.37943  23326234.9844                   23326236.0044
 -32999218.71147 -25620188.15245  20765792.0944                   20765789.9884
 -78797588.19546 -61315417.14144  22879941.5084                   22879939.7194
  13320741.89846  10462329.00843  24278698.9384                   24278701.6054
 -19209072.30947 -14924803.63745  21437318.6954                   21437316.0004
 -58713088.89147 -43018346.96544  21279780.2504                   21279778.0234
  -8780791.72746  -6752821.42244  22177632.7814                   22177631.4264
 -41334186.32046 -31605323.43742  23580231.3204                   23580232.9344
 -43533496.36747 -33876848.27046  20449443.0234                   20449438.3954
 11  8  3  1 22 30.0000000  0  9G09G10G17G25G12G04G05G27G02
 -25535931.48446 -19466118.41043  23622678.8984                   23622679.7704
 -31531507.73447 -24476517.24645  21045087.8674                   21045085.9654
 -77264689.18746 -60120950.39144  23171641.9694                   23171640.8834
  14699876.00846  11536978.96942  24541139.5394                   24541141.4024
 -17792943.12147 -13821326.32045  21706799.5864                   21706796.1764
 -57158375.89147 -41806882.30945  21575631.7424                   21575630.3834
  -7395070.98446  -5673038.96544  22441327.0944                   22441325.0744
 -39790555.04745 -30402493.99642  23873974.4064                   23873976.6054
 -42057888.60547 -32727024.04346  20730242.1644                   20730237.6604
 11  8  3  1 23  0.0000000  0  9G09G10G17G25G12G04G05G27G02
 -25553255.23046 -19479617.52343  23619382.3284                   23619383.6724
 -31638537.99647 -24559917.43745  21024721.0084                   21024718.7154
 -77307001.98846 -60153921.42244  23163589.8134                   23163588.5944
  14503781.57046  11384178.15642  24503823.3984                   24503825.7774
 -17951777.89847 -13945093.64545  21676574.3134                   21676571.1844
 -57178842.56247 -41822830.39144  21571738.1564                   21571735.3444
  -7584463.29746  -5820617.31644  22405286.7114                   22405284.7154
 -39822175.00045 -30427132.97742  23867956.4534                   23867959.7664
 -42157331.44147 -32804511.95346  20711318.4534                   20711313.6524
 11  8  3  1 23 30.0000000  0  9G09G10G17G25G12G04G05G27G02
 -25570307.23846 -19492904.87943  23616137.1804                   23616138.4804
 -31744884.86347 -24642785.10545  21004483.9064                   21004481.6294
 -77349105.55146 -60186729.39844  23155579.0554                   23155576.8134
  14307887.55546  11231533.48843  24466546.4144                   24466548.2034
 -18110149.08647 -14068499.72345  21646436.8674                   21646434.3914
 -57199070.66847 -41838592.56644  21567888.4384                   21567886.5084
  -7773539.34446  -5967949.22344  22369306.8284                   22369304.9104
 -39853627.87545 -30451641.86342  23861971.9614                   23861974.9344
 -42256402.96147 -32881710.52346  20692465.7344                   20692460.8714
 11  8  3  1 24  0.0000000  0  9G09G10G17G25G12G04G05G27G02
 -25587093.09046 -19505984.89543  23612943.6564                   23612944.6684
 -31850549.95347 -24725121.52045  20984376.8594                   20984374.6564
 -77391001.40246 -60219375.55144  23147605.4064                   23147604.2854
  14112194.35246  11079045.33243  24429306.0704                   24429308.7074
 -18268056.52047 -14191544.45345  21616388.0554                   21616384.8594
 -57219064.26647 -41854171.99645  21564083.3524                   21564082.1254
  -7962298.49646  -6115034.21144  22333386.5164                   22333384.5044
 -39884918.37545 -30476024.21542  23856017.9144                   23856020.6294
 -42355106.07847 -32958622.03946  20673682.9384                   20673678.0044
 11  8  3  1 24 30.0000000  0  9G09G10G17G25G12G04G05G27G02
 -25603613.57046 -19518858.09843  23609799.7894                   23609800.3914
 -31955529.68447 -24806923.89545  20964399.3594                   20964397.3984
 -77432685.96146 -60251857.02744  23139672.9534                   23139671.6724
  13916707.48446  10926717.89843  24392107.2194                   24392108.5314
 -18425495.01647 -14314223.77045  21586428.0234                   21586425.4344
 -57238822.85547 -41869568.30945  21560324.0944                   21560321.7624
  -8150734.71546  -6261867.55144  22297528.1484                   22297526.7974
 -39916046.80546 -30500280.23043  23850094.7664                   23850096.7664
 -42453439.14847 -33035245.20346  20654970.5474                   20654966.5784
 11  8  3  1 25  0.0000000  0  9G09G10G17G25G12G04G05G27G02
 -25619875.76646 -19531530.06643  23606705.4384                   23606705.9804
 -32059826.77347 -24888194.33245  20944552.5004                   20944550.1294
 -77474162.12546 -60284176.12144  23131780.5314                   23131779.1564
  13721425.56646  10774550.22343  24354946.7344                   24354947.8164
 -18582465.82047 -14436538.64545  21556557.7584                   21556555.3674
 -57258351.96547 -41884785.80945  21556607.7194                   21556605.8164
  -8338849.05946  -6408450.09844  22261731.3984                   22261730.2114
 -39947019.47745 -30524414.84042  23844200.9614                   23844202.7274
 -42551406.80947 -33111583.63746  20636328.0704                   20636323.7194
 11  8  3  1 25 30.0000000  0  9G09G10G17G25G12G04G05G27G02
 -25635881.84846 -19544002.41043  23603659.6724                   23603659.9924
 -32163439.21547 -24968931.28945  20924835.3524                   20924832.9344
 -77515428.33646 -60316331.62143  23123928.2894                   23123925.9064
  13526352.53946  10622545.26643  24317825.2734                   24317826.5234
 -18738965.43047 -14558486.36345  21526777.0474                   21526773.8094
 -57277652.53947 -41899825.21945  21552934.9694                   21552932.7384
  -8526637.31646  -6554778.54344  22225996.7894                   22225994.9384
 -39977837.85545 -30548429.34443  23838337.2664                   23838338.6134
 -42649008.80547 -33187637.12546  20617755.3524                   20617750.7074
 11  8  3  1 26  0.0000000  0  9G09G10G17G25G12G04G05G27G02
 -25651634.32046 -19556277.17643  23600661.0704                   23600662.9844
 -32266365.65247 -25049133.68045  20905249.1564                   20905247.3874
 -77556483.57446 -60348322.72344  23116116.0784                   23116113.8634
  13331491.69146  10470705.65643  24280743.7664                   24280745.2774
 -18894990.56247 -14680064.36745  21497086.8834                   21497083.6334
 -57296726.01247 -41914687.69145  21549304.9774                   21549303.6804
  -8714095.58646  -6700849.84444  22190324.0164                   22190323.1914
 -40008504.03545 -30572325.20342  23832499.9614                   23832503.3014
 -42746245.48047 -33263405.96145  20599251.6484                   20599247.3284
 11  8  3  1 26 30.0000000  0  9G09G10G17G25G12G04G05G27G02
 -25667137.67246 -19568357.76643  23597711.5864                   23597713.1334
 -32368606.38347 -25128801.76645  20885793.1724                   20885790.9414
 -77597328.11746 -60380149.64144  23108343.2344                   23108342.0554
  13136844.43846  10319032.57043  24243704.2584                   24243705.5824
 -19050539.79747 -14801271.53945  21467486.0004                   21467483.3914
 -57315575.41447 -41929375.55145  21545718.2584                   21545716.7234
  -8901222.17647  -6846662.69544  22154715.0634                   22154713.6174
 -40039021.85545 -30596105.52343  23826693.0314                   23826695.7934
 -42843118.62147 -33338891.50846  20580817.1024                   20580812.7734
 11  8  3  1 27  0.0000000  0  9G09G10G17G25G12G04G05G27G02
 -25682396.08646 -19580247.55943  23594808.3284                   23594809.4024
 -32470161.42647 -25207935.53545  20866468.9534                   20866466.0744
 -77637962.16446 -60411812.56644  23100611.3054                   23100609.0044
  12942413.00046  10167527.56643  24206705.4614                   24206705.7584
 -19205611.55547 -14922106.64145  21437977.2424                   21437974.5004
 -57334203.54747 -41943890.99645  21542173.1024                   21542171.2704
  -9088014.59447  -6992215.16045  22119169.6484                   22119168.8094
 -40069394.46145 -30619772.59843  23820913.8834                   23820916.2194
 -42939630.37547 -33414095.46546  20562451.6564                   20562447.0084
 11  8  3  1 27 30.0000000  0  9G09G10G17G25G12G04G05G27G02
 -25697413.44146 -19591949.48443  23591952.0004                   23591951.8054
 -32571030.81247 -25286535.02745  20847273.8444                   20847271.3914
 -77678385.27046 -60443311.06244  23092918.1884                   23092916.8794
  12748199.28546  10016192.28943  24169747.6564                   24169747.6914
 -19360203.65647 -15042567.99245  21408559.2114                   21408556.4184
 -57352612.76247 -41958235.83645  21538670.1884                   21538668.5554
  -9274470.35247  -7137505.28944  22083688.4304                   22083686.7464
 -40099625.29345 -30643329.18442  23815160.7424                   23815163.5234
 -43035782.29747 -33489019.02346  20544155.1484                   20544150.1334
 11  8  3  1 28  0.0000000  0  9G09G10G17G25G12G04G05G27G02
 -25712195.19146 -19603467.75843  23589138.1414                   23589139.2584
 -32671216.12947 -25364601.49245  20828208.5864                   20828207.0704
 -77718599.27346 -60474646.66443  23085266.5394                   23085264.4304
  12554203.95346   9865027.14543  24132831.1484                   24132831.4104
 -19514315.89847 -15162655.43745  21379232.6254                   21379229.6334
 -57370807.00047 -41972413.16845  21535208.4694                   21535206.3714
  -9460588.43746  -7282532.32044  22048271.2894                   22048269.0434
 -40129718.87946 -30666778.84443  23809435.0084                   23809437.2464
 -43131577.33647 -33563664.50846  20525925.9614                   20525921.1604
 11  8  3  1 28 30.0000000  0  9G09G10G17G25G12G04G05G27G02
 -25726744.25046 -19614804.84843  23586368.8444                   23586370.3094
 -32770716.42647 -25442134.15645  20809274.6254                   20809272.0594
 -77758603.52346 -60505818.82443  23077654.1644                   23077651.5084
  12360429.83646   9714034.40643  24095957.2274                   24095957.5704
 -19667945.79747 -15282367.03545  21349998.1414                   21349995.2344
 -57388788.41447 -41986424.66445  21531786.7344                   21531784.9264
  -9646366.14147  -7427294.10244  22012918.1644                   22012917.0084
 -40159677.88346 -30690123.71943  23803733.7814                   23803735.9574
 -43227016.13347 -33638032.40646  20507764.1094                   20507759.3554
 11  8  3  1 29  0.0000000  0  9G09G10G17G25G12G04G05G27G02
 -25741064.70746 -19625963.74243  23583645.4304                   23583645.4454
 -32869531.71147 -25519133.04345  20790470.6644                   20790468.1174
 -77798397.53946 -60536827.16843  23070080.2344                   23070079.1334
  12166879.06646   9563215.65243  24059125.7584                   24059125.7464
 -19821091.21547 -15401701.11345  21320855.0784                   21320852.4574
 -57406559.21547 -42000272.04345  21528404.5164                   21528402.6334
  -9831800.70346  -7571788.50044  21977631.3524                   21977630.1844
 -40189505.32446 -30713365.91843  23798058.9384                   23798060.0514
 -43322100.12147 -33712123.81646  20489670.7664                   20489665.5944
 11  8  3  1 29 30.0000000  0  9G09G10G17G25G12G04G05G27G02
 -25755160.75846 -19636947.78142  23580962.2894                   23580962.9574
 -32967662.27347 -25595598.39545  20771796.6804                   20771794.7774
 -77837981.58646 -60567671.88343  23062547.7344                   23062546.7464
  11973553.56646   9412572.48843  24022337.3524                   24022337.7704
 -19973750.54747 -15520656.41445  21291804.7424                   21291802.3834
 -57424122.40247 -42013957.65244  21525062.6564                   21525061.1414
 -10016890.39846  -7716014.18045  21942410.4774                   21942408.7234
 -40219204.76245 -30736508.49642  23792406.8674                   23792408.4844
 -43416831.27047 -33785940.28146  20471643.2114                   20471638.6954
 11  8  3  1 30  0.0000000  0  9G09G10G17G25G12G04G05G27G02
 -25769036.54746 -19647760.15643  23578321.4774                   23578321.8754
 -33065108.28547 -25671530.32045  20753253.6804                   20753251.1804
 -77877356.28946 -60598353.48043  23055055.4224                   23055053.2304
  11780455.00046   9262106.09843  23985590.9694                   23985592.3834
 -20125923.14847 -15639232.45345  21262847.6094                   21262844.8484
 -57441480.60547 -42027483.55544  21521759.5004                   21521757.6024
 -10201632.25447  -7859968.81645  21907255.4144                   21907253.8404
 -40248780.03146 -30759554.28143  23786779.2344                   23786780.8634
 -43511211.46147 -33859483.28146  20453683.7194                   20453678.9384
 11  8  3  1 30 30.0000000  0  9G09G10G17G25G12G04G05G27G02
 -25782696.41846 -19658404.30543  23575721.9694                   23575723.0984
 -33161870.52347 -25746929.44945  20734840.1174                   20734837.4024
 -77916521.66446 -60628871.99643  23047602.8364                   23047601.2114
  11587585.07046   9111817.83642  23948889.3204                   23948890.4574
 -20277606.94147 -15757427.60245  21233982.9064                   21233980.3444
 -57458636.69947 -42040851.95344  21518495.0394                   21518492.9534
 -10386024.73046  -8003651.19145  21872166.2894                   21872164.8094
 -40278234.69545 -30782506.11742  23781173.5944                   23781176.0594
 -43605242.79347 -33932754.45346  20435789.7814                   20435785.6414
 11  8  3  1 31  0.0000000  0  9G09G10G17G25G12G04G05G27G02
 -24220721.89546 -18441281.37943  23872957.1024                   23872956.4884
 -31682524.12147 -24594191.96945  21016350.5784                   21016348.5164
 -76380054.95346 -59431625.19943  23339982.0554                   23339981.4304
  12970374.00046  10189315.77343  24212025.7504                   24212026.7584
 -18853373.62947 -14647635.39845  21505005.9924                   21505003.1254
 -55900171.36347 -40826463.38344  21815061.0234                   21815058.8674
  -8994637.79746  -6919453.52745  22136937.8054                   22136936.4384
 -38732149.34045 -29577764.37542  24075384.4144                   24075387.0434
 -42123501.95747 -32778151.19546  20717756.1954                   20717751.1134
 11  8  3  1 31 30.0000000  0  9G09G10G17G25G12G04G05G27G02
 -24233958.74646 -18451595.86343  23870437.8914                   23870438.5354
 -31777916.46547 -24668523.65245  20998198.0784                   20998195.4884
 -76418799.53546 -59461815.80143  23332609.5004                   23332607.8834
  12777970.21946  10039390.74243  24175412.1884                   24175413.1214
 -19004072.15247 -14765062.78945  21476328.2424                   21476325.5434
 -55916928.77347 -40839521.11344  21811872.0164                   21811870.0594
  -9178322.09846  -7062584.09045  22101984.7194                   22101982.4414
 -38761369.95345 -29600533.81642  24069823.0704                   24069826.8364
 -42216837.92247 -32850880.50046  20699995.1804                   20699990.0394
 11  8  3  1 32  0.0000000  0  9G09G10G17G25G12G04G05G27G02
 -24246989.44546 -18461749.75842  23867958.3594                   23867958.7814
 -31872623.33247 -24742321.18745  20980175.6884                   20980172.9844
 -76457332.98846 -59491841.89843  23325276.7734                   23325275.2854
  12585803.50046   9889650.47743  24138844.2504                   24138845.1994
 -19154274.59847 -14882103.64545  21447745.6024                   21447742.7384
 -55933489.70747 -40852425.73444  21808720.6174                   21808718.9184
  -9361648.23047  -7205435.56245  22067098.6884                   22067096.7504
 -38790477.59045 -29623215.22742  24064284.5164                   24064288.0314
 -42309827.51247 -32923339.90646  20682299.5234                   20682294.6374
 11  8  3  1 32 30.0000000  0  9G09G10G17G25G12G04G05G27G02
 -24259818.76246 -18471746.73443  23865517.2114                   23865517.7664
 -31966645.92647 -24815585.53545  20962284.0314                   20962281.6414
 -76495656.27346 -59521704.23043  23317983.4534                   23317982.7034
  12393874.88346   9740095.75843  24102321.5784                   24102322.4454
 -19303980.10947 -14998757.27345  21419258.0634                   21419254.9774
 -55949857.59447 -40865179.94144  21805605.8364                   21805604.3874
  -9544614.26647  -7348006.43444  22032281.2894                   22032279.6764
 -38819476.66045 -29645812.00442  24058767.5704                   24058770.4184
 -42402473.58247 -32995531.64546  20664668.9614                   20664664.5704
 11  8  3  1 33  0.0000000  0  9G09G10G17G25G12G04G05G27G02
 -24272451.10546 -18481590.27043  23863113.6024                   23863114.1174
 -32059985.12147 -24888317.35945  20944522.3834                   20944519.2934
 -76533769.90646 -59551403.15243  23310731.6884                   23310730.0594
  12202186.02046   9590727.83643  24065844.1024                   24065844.4264
 -19453187.77347 -15115022.96545  21390864.7114                   21390861.9224
 -55966035.43747 -40877786.06644  21802527.2194                   21802525.4694
  -9727218.49247  -7490295.37145  21997532.8134                   21997531.3834
 -38848370.84445 -29668327.05942  24053267.9694                   24053272.1994
 -42494778.16447 -33067457.27746  20647104.9224                   20647099.9774
 11  8  3  1 33 30.0000000  0  9G09G10G17G25G12G04G05G27G02
 -24284890.59046 -18491283.46542  23860745.8834                   23860746.7624
 -32152641.03147 -24960516.75445  20926890.6094                   20926888.1524
 -76571673.94946 -59580938.79343  23303519.2274                   23303517.4064
  12010738.68046   9441548.11743  24029412.7504                   24029412.9614
 -19601895.80547 -15230899.32845  21362566.2504                   21362563.7274
 -55982026.10547 -40890246.33244  21799484.4694                   21799482.5004
  -9909459.09447  -7632300.96945  21962853.4304                   21962851.5004
 -38877163.66045 -29690763.14142  24047789.4064                   24047792.8014
 -42586743.02747 -33139118.18746  20629604.1254                   20629599.1844
 11  8  3  1 34  0.0000000  0  9G09G10G17G25G12G04G05G27G02
 -24297140.69945 -18500829.14543  23858415.1724                   23858416.1414
 -32244614.05147 -25032184.03145  20909388.8524                   20909385.7504
 -76609368.43446 -59610311.12143  23296345.8754                   23296344.1804
  11819535.50846   9292558.64843  23993028.3284                   23993028.7034
 -19750102.31647 -15346384.90645  21334363.1724                   21334360.9224
 -55997831.75047 -40902562.44544  21796476.5084                   21796475.0594
 -10091333.17247  -7774020.98045  21928243.9144                   21928241.7734
 -38905858.10545 -29713122.62142  24042329.3834                   24042333.0904
 -42678369.84047 -33210515.69146  20612168.3754                   20612163.3444
 11  8  3  1 34 30.0000000  0  9G09G10G17G25G12G04G05G27G02
 -24309207.41445 -18510231.88743  23856118.7584                   23856119.6174
 -32335906.98047 -25103321.35945  20892016.0944                   20892013.5434
 -76646855.40646 -59639521.78143  23289211.9454                   23289210.8484
  11628576.40646   9143759.38343  23956689.9224                   23956690.5314
 -19897807.66847 -15461479.98445  21306256.6414                   21306253.5554
 -56013456.81647 -40914737.83244  21793503.3984                   21793501.4414
 -10272840.73847  -7915455.37945  21893704.6414                   21893702.4534
 -38934459.60945 -29735409.62542  24036886.5004                   24036889.8134
 -42769662.06247 -33281652.47746  20594795.9534                   20594790.6884
 11  8  3  1 35  0.0000000  0  9G09G10G17G25G12G04G05G27G02
 -24321091.87145 -18519492.69543  23853856.4304                   23853858.2464
 -32426516.88347 -25173926.46145  20874773.8594                   20874771.3674
 -76684131.50046 -59668568.07043  23282118.1174                   23282117.0824
  11437866.45346   8995154.23643  23920399.0784                   23920399.6524
 -20045007.24647 -15576180.93745  21278245.1884                   21278242.3444
 -56028900.75447 -40926772.08244  21790564.5314                   21790563.0634
 -10453976.39147  -8056599.97345  21859234.8054                   21859233.1684
 -38962968.25045 -29757624.27042  24031461.9694                   24031465.2344
 -42860618.43047 -33352527.54346  20577486.8834                   20577482.3874
 11  8  3  1 35 30.0000000  0  9G09G10G17G25G12G04G05G27G02
 -24332799.41045 -18528615.50043  23851629.3284                   23851630.8444
 -32516445.53947 -25244000.71945  20857660.1414                   20857658.1174
 -76721198.98446 -59697451.81643  23275065.4614                   23275063.5474
  11247406.33246   8846743.80543  23884154.9064                   23884156.1604
 -20191700.67647 -15690487.49645  21250330.3134                   21250327.4144
 -56044167.62947 -40938668.35244  21787659.0554                   21787657.2934
 -10634739.09847  -8197453.97345  21824836.9774                   21824835.1524
 -38991388.77045 -29779770.23042  24026053.2584                   24026056.9494
 -42951242.08647 -33423143.36346  20560242.2424                   20560237.4884
 11  8  3  1 36  0.0000000  0  9G09G10G17G25G12G04G05G27G02
 -24344333.79746 -18537603.47743  23849433.7894                   23849435.7274
 -32605692.93047 -25313544.12945  20840677.3444                   20840674.5634
 -76758057.35946 -59726172.62143  23268051.7504                   23268049.4384
  11057198.43446   8698529.93443  23847960.3834                   23847961.0164
 -20337886.38347 -15804398.42645  21222511.9384                   21222509.1724
 -56059259.53947 -40950428.28945  21784787.6094                   21784785.7704
 -10815126.50847  -8338015.53145  21790510.3054                   21790508.7664
 -39019724.27345 -29801849.93742  24020661.9454                   24020664.4614
 -43041534.41047 -33493501.00046  20543060.4774                   20543055.3164
 11  8  3  1 36 30.0000000  0  9G09G10G17G25G12G04G05G27G02
 -24355698.32046 -18546459.04343  23847272.0864                   23847273.3674
 -32694259.39547 -25382556.93445  20823823.3444                   20823820.8014
 -76794706.26246 -59754730.23044  23261077.1804                   23261074.7734
  10867245.18846   8550514.52343  23811811.9384                   23811813.5314
 -20483562.39147 -15917912.19545  21194790.8204                   21194787.8674
 -56074178.45747 -40962053.43044  21781948.5234                   21781946.7034
 -10995135.81247  -8478282.46545  21756255.3754                   21756253.6484
 -39047977.88745 -29823865.87142  24015284.5634                   24015288.1764
 -43131496.74247 -33563601.50446  20525940.3134                   20525936.5234
 11  8  3  1 37  0.0000000  0  9G09G10G17G25G12G04G05G27G02
 -24366895.72346 -18555184.40243  23845141.6174                   23845143.2154
 -32782144.24647 -25451038.61745  20807099.1804                   20807097.2424
 -76831144.42646 -59783123.57444  23254143.3524                   23254141.6844
  10677549.96946   8402700.13743  23775715.4614                   23775715.6174
 -20628725.85247 -16031026.57445  21167167.4844                   21167164.2934
 -56088925.68047 -40973544.79344  21779142.7504                   21779140.3634
 -11174763.80147  -8618252.25845  21722073.3444                   21722071.9064
 -39076151.27345 -29845819.32442  24009924.6254                   24009926.9804
 -43221129.51647 -33633445.21146  20508884.8134                   20508879.4844
 11  8  3  1 37 30.0000000  0  9G09G10G17G25G12G04G05G27G02
 -24377930.43446 -18563783.01643  23843041.9144                   23843043.3284
 -32869348.43747 -25518989.90245  20790504.8364                   20790502.7774
 -76867372.52046 -59811353.26643  23247249.6334                   23247247.8014
  10488114.31346   8255088.01643  23739667.4774                   23739667.4454
 -20773375.44547 -16143740.52745  21139641.0704                   21139638.1724
 -56103504.32847 -40984904.78144  21776367.6414                   21776366.2544
 -11354008.59847  -8757923.46145  21687964.2424                   21687962.4654
 -39104248.43445 -29867713.34442  24004576.9064                   24004579.8954
 -43310434.66447 -33703033.62146  20491890.3134                   20491885.5394
 11  8  3  1 38  0.0000000  0  9G09G10G17G25G12G04G05G27G02
 -24388806.97346 -18572258.34043  23840972.2034                   23840973.8794
 -32955873.28547 -25586411.82845  20774039.7894                   20774037.2194
 -76903391.14846 -59839419.72743  23240395.0474                   23240393.3874
  10298939.87546   8107679.45343  23703667.8984                   23703669.1954
 -20917510.35947 -16256053.43045  21112213.5864                   21112210.5084
 -56117917.18747 -40996135.59444  21773625.0634                   21773623.1994
 -11532868.30547  -8897294.61345  21653928.4144                   21653926.1414
 -39132273.03945 -29889550.79342  23999244.1724                   23999247.0904
 -43399414.94547 -33772368.89546  20474957.3754                   20474952.6564
 11  8  3  1 38 30.0000000  0  9G09G10G17G25G12G04G05G27G02
 -24399531.33246 -18580615.09443  23838932.2734                   23838932.7234
 -33041721.53147 -25653306.54345  20757703.9064                   20757700.9654
 -76939202.53546 -59867324.71143  23233580.6094                   23233579.0314
  10110026.51646   7960474.28143  23667719.1484                   23667719.3634
 -21061131.03147 -16367965.63345  21084883.0944                   21084880.2814
 -56132169.00447 -41007240.93044  21770913.2504                   21770911.2814
 -11711343.05147  -9036365.78145  21619965.7344                   21619963.8754
 -39160230.45745 -29911335.91843  23993924.1884                   23993927.5904
 -43488073.97347 -33841453.84046  20458086.7194                   20458081.7114
 11  8  3  1 39  0.0000000  0  9G09G10G17G25G12G04G05G27G02
 -24410104.65646 -18588854.10543  23836919.4844                   23836920.7154
 -33126891.04347 -25719672.35545  20741496.2504                   20741494.2154
 -76974804.09846 -59895066.18443  23226805.5084                   23226803.7464
   9921379.28946   7813476.52043  23631821.1804                   23631821.0474
 -21204233.28547 -16479473.86345  21057652.0314                   21057648.7384
 -56146259.00447 -41018220.16044  21768232.4924                   21768230.1484
 -11889427.89847  -9175133.13745  21586077.2974                   21586075.3914
 -39188121.16845 -29933069.06643  23988618.0474                   23988619.8634
 -43576410.40647 -33910287.40246  20441276.3674                   20441271.6254
 11  8  3  1 39 30.0000000  0  9G09G10G17G25G12G04G05G27G02
 -22845111.14146 -17369378.74643  24134727.9064                   24134729.2544
 -31635960.41047 -24557908.19545  21025211.3834                   21025208.8524
 -75434775.14146 -58695043.60943  23519863.2734                   23519861.7624
  11308425.69946   8894291.98043  23895766.8524                   23895766.7734
 -19771391.41847 -15362973.69545  21330312.5004                   21330309.9774
 -54584770.38747 -39801475.79344  22065373.4844                   22065371.6684
 -10491695.22747  -8085990.74245  21852057.2034                   21852055.3674
 -37640528.22745 -28727152.63743  24283114.5234                   24283117.5044
 -42089003.82047 -32751269.26246  20724320.6484                   20724315.8594
 11  8  3  1 40  0.0000000  0  9G09G10G17G25G12G04G05G27G02
 -22855395.20346 -17377392.42343  24132771.8674                   24132772.0664
 -31719775.57847 -24623218.69545  21009261.4694                   21009259.3794
 -75469958.51246 -58722459.23043  23513167.7194                   23513166.8204
  11120315.50846   8747712.64843  23859970.8674                   23859970.7734
 -19913453.30947 -15473671.25445  21303279.3364                   21303276.4184
 -54598545.99247 -39812210.03144  22062751.7584                   22062750.2274
 -10668994.30547  -8224145.80145  21818318.3054                   21818316.4654
 -37668296.52745 -28748790.39842  24277830.7894                   24277834.0594
 -42176701.72747 -32819605.28946  20707631.7894                   20707627.4734
 11  8  3  1 40 30.0000000  0  9G09G10G17G25G12G04G05G27G02
 -22865540.54746 -17385297.95342  24130840.8054                   24130841.7194
 -31802914.87547 -24688002.51645  20993440.8914                   20993438.3834
 -75504932.92246 -58749712.02043  23506513.3284                   23506511.1054
  10932476.89146   8601344.93843  23824226.0704                   23824226.4384
 -20054992.72747 -15583961.68745  21276344.8054                   21276341.9734
 -54612168.03147 -39822824.62144  22060160.3444                   22060158.3324
 -10845897.66047  -8361992.51245  21784654.3674                   21784652.6644
 -37696008.93045 -28770384.60542  24272556.8674                   24272560.1994
 -42264083.07447 -32887694.64846  20691003.5554                   20690999.1254
 11  8  3  1 41  0.0000000  0  9G09G10G17G25G12G04G05G27G02
 -22875548.91046 -17393096.69543  24128935.7344                   24128937.2234
 -31885376.98847 -24752258.67245  20977748.4844                   20977746.0634
 -75539696.52346 -58776800.55543  23499898.0004                   23499896.2114
  10744914.13746   8455192.22743  23788534.3914                   23788534.6914
 -20196006.11747 -15693842.23845  21249510.7734                   21249508.1094
 -54625636.68047 -39833319.66044  22057596.7734                   22057595.3484
 -11022400.56247  -8499527.18445  21751067.1334                   21751064.7234
 -37723666.14845 -28791935.87142  24267294.3754                   24267297.9694
 -42351147.44947 -32955536.99646  20674436.3444                   20674431.4694
 11  8  3  1 41 30.0000000  0  9G09G10G17G25G12G04G05G27G02
 -22885422.03146 -17400790.14142  24127056.8444                   24127059.0634
 -31967160.38747 -24815985.98045  20962186.4224                   20962183.1174
 -75574247.30146 -58803723.21943  23493322.4614                   23493321.5274
  10557631.50846   8309257.74643  23752895.1024                   23752896.1024
 -20336489.87147 -15803310.07445  21222777.8674                   21222775.1804
 -54638952.34847 -39843695.50844  22055063.2974                   22055061.0984
 -11198498.92647  -8636746.63345  21717556.3914                   21717554.5984
 -37751269.383 5                  24262041.148
 -42437894.37947 -33023131.99646  20657929.1254                   20657924.5514
 11  8  3  1 42  0.0000000  0  9G09G10G17G25G12G04G05G27G02
 -22895165.89146 -17408382.84842  24125203.4774                   24125205.5004
 -32048268.30947 -24879186.94545  20946751.2274                   20946749.0744
 -75608587.19946 -58830481.60543  23486788.8834                   23486786.2034
  10370629.09846   8163541.63743  23717309.3834                   23717310.3954
 -20476444.80547 -15912365.84045  21196145.2814                   21196142.2584
 -54652119.00847 -39853955.25444  22052557.6954                   22052555.7274
 -11374192.63747  -8773650.75445  21684123.0314                   21684121.0474
 -37778824.03115                  24256797.773
 -42524327.50847 -33090482.46946  20641481.3364                   20641476.3834
 11  8  3  1 42 30.0000000  0  9G09G10G17G25G12G04G05G27G02
 -22904785.59046 -17415878.86742  24123373.1484                   24123375.0944
 -32128702.85947 -24941863.20345  20931445.0864                   20931442.5124
 -75642718.07846 -58857077.11343  23480292.7424                   23480291.6254
  10183907.63346   8018044.43843  23681777.3054                   23681779.2194
 -20615870.85947 -16021009.49245  21169613.1254                   21169610.2344
 -54665140.70747 -39864102.04744  22050079.7894                   22050077.8404
 -11549480.86747  -8910238.91445  21650766.4774                   21650764.5634
 -37806334.68715                  24251564.094
 -42610450.09447 -33157590.95746  20625092.6024                   20625087.5204
 11  8  3  1 43  0.0000000  0  9G09G10G17G25G12G04G05G27G02
 -22914285.74246 -17423281.68442  24121564.9534                   24121567.1914
 -32208465.10547 -25004015.58245  20916267.2814                   20916264.4454
 -75676640.13746 -58883509.89143  23473838.1724                   23473836.2464
   9997468.73846   7872767.43843  23646299.3524                   23646300.4574
 -20754766.88747 -16129240.14145  21143182.3834                   21143178.8404
 -54678020.42647 -39874138.19144  22047628.8134                   22047626.8404
 -11724361.89547  -9046509.78545  21617488.1174                   21617486.2234
 -37833804.961 5                  24246335.234
 -42696264.35247 -33224459.20346  20608762.6724                   20608757.8594
 11  8  3  1 43 30.0000000  0  9G09G10G17G25G12G04G05G27G02
 -22923671.00045 -17430594.94142  24119778.9304                   24119781.6094
 -32287556.53147 -25065645.25445  20901216.8204                   20901213.3794
 -75710354.43046 -58909780.75843  23467421.9144                   23467420.4344
   9811314.01646   7727711.81343  23610875.7344                   23610876.0084
 -20893132.07447 -16237057.14845  21116852.2584                   21116849.3094
 -54690760.86747 -39884065.80544  22045203.6254                   22045202.7544
 -11898834.04747  -9182462.05945  21584286.6564                   21584284.7304
 -37861238.762 5                  24241115.336
 -42781772.48847 -33291088.90646  20592490.8134                   20592486.2584
 11  8  3  1 44  0.0000000  0  9G09G10G17G25G12G04G05G27G02
 -22932942.07045 -17437819.23842  24118015.4694                   24118017.1214
 -32365975.58647 -25126751.00045  20886293.8054                   20886291.2974
 -75743858.20746 -58935887.60943  23461046.7194                   23461045.1054
   9625448.11346   7582881.34443  23575506.2504                   23575507.5044
 -21030962.21947 -16344457.22745  21090623.7344                   21090621.0124
 -54703361.77047 -39893884.69144  22042806.1804                   22042804.5514
 -12072893.13747  -9318092.45345  21551164.7894                   21551162.8794
 -37888636.711 5                  24235902.430
 -42866973.49647 -33357479.27746  20576277.6884                   20576273.0354
 11  8  3  1 44 30.0000000  0  9G09G10G17G25G12G04G05G27G02
 -22942105.58645 -17444959.74242  24116271.8054                   24116273.4224
 -32443726.28547 -25187335.93745  20871498.1174                   20871495.8444
 -75777154.54746 -58961832.80943  23454710.9144                   23454709.1994
   9439870.46546   7438275.40243  23540191.9614                   23540192.6884
 -21168259.10547 -16451441.78545  21064497.4534                   21064494.1564
 -54715828.26647 -39903598.83644  22040434.3834                   22040432.1454
 -12246538.94947  -9453400.81645  21518120.5864                   21518118.8164
 -37916004.832 5                  24230692.617
 -42951872.04347 -33423633.96546  20560121.9304                   20560117.5314
 11  8  3  1 45  0.0000000  0  9G09G10G17G25G12G04G05G27G02
 -22951162.31645 -17452017.09442  24114549.3754                   24114550.3594
 -32520806.44547 -25247398.38745  20856830.3524                   20856828.0084
 -75810240.65246 -58987614.17643  23448414.5164                   23448413.2384
   9254586.31646   7293898.15643  23504934.0314                   23504934.8324
 -21305017.90647 -16558007.06245  21038473.0944                   21038470.0274
 -54728159.41847 -39913207.52044  22038087.5314                   22038085.4774
 -12419766.59847  -9588383.34045  21485156.7274                   21485154.6524
 -37943343.270 5                  24225491.766
 -43036466.97347 -33489552.07846  20544024.1954                   20544019.3164
 11  8  3  1 45 30.0000000  0  9G09G10G17G25G12G04G05G27G02
 -22960115.46945 -17458993.70742  24112844.0474                   24112847.0044
 -32597216.10947 -25306938.36345  20842289.4144                   20842287.4534
 -75843115.86346 -59013231.25043  23442158.4454                   23442157.5164
   9069598.50446   7149751.84044  23469731.7034                   23469732.6374
 -21441236.88347 -16664151.69545  21012551.5784                   21012548.2194
 -54740356.94147 -39922712.08244  22035766.5234                   22035764.6564
 -12592573.47747  -9723037.99645  21452272.4144                   21452270.4264
 -37970654.566 5                  24220294.102
 -43120758.62947 -33555233.86746  20527984.1484                   20527979.3874
 11  8  3  1 46  0.0000000  0  9G09G10G17G25G12G04G05G27G02
 -22968969.74645 -17465893.23042  24111159.4534                   24111161.8914
 -32672957.49647 -25365957.60945  20827877.0394                   20827873.8524
 -75875780.93046 -59038684.56643  23435942.5004                   23435941.9104
   8884908.23846   7005837.37943  23434586.6954                   23434586.3794
 -21576915.67247 -16769875.40245  20986732.4924                   20986729.7194
 -54752424.05547 -39932115.04344  22033470.5004                   22033468.7074
 -12764958.28547  -9857363.75845  21419469.0164                   21419466.8094
 -37997942.816 5                  24215101.227
 -43204750.07047 -33620681.72346  20512000.9384                   20511996.2584
 11  8  3  1 46 30.0000000  0  9G09G10G17G25G12G04G05G27G02
 -22977729.64546 -17472719.23442  24109493.0704                   24109494.5044
 -32748031.96547 -25424457.19145  20813590.8594                   20813587.8204
 -75908236.98846 -59063975.00043  23429767.3054                   23429764.4264
   8700517.04746   6862155.96143  23399498.2194                   23399498.2934
 -21712052.84847 -16875177.07045  20961016.5234                   20961013.6484
 -54764363.45747 -39941418.49244  22031198.5164                   22031196.5784
 -12936919.50847  -9991359.45345  21386745.3914                   21386743.2664
 -38025211.672 5                  24209914.906
 -43288443.49647 -33685897.36346  20496074.9534                   20496069.9304
 11  8  3  1 47  0.0000000  0  9G09G10G17G25G12G04G05G27G02
 -22986394.36345 -17479471.06643  24107842.8914                   24107846.3714
 -32822436.23847 -25482434.52345  20799431.4384                   20799429.3484
 -75940479.66046 -59089099.17243  23423631.3914                   23423629.3094
   8516431.68046   6718712.82843  23364467.3754                   23364468.0434
 -21846643.46147 -16980052.83645  20935405.0084                   20935401.9064
 -54776172.87547 -39950620.65644  22028950.3444                   22028949.2304
 -13108450.20747 -10125019.68445  21354104.5704                   21354102.2274
 -38052459.520 5                  24204728.516
 -43371836.01647 -33750878.53545  20480205.6414                   20480200.5354
 11  8  3  1 47 30.0000000  0  9G09G10G17G25G12G04G05G27G02
 -22994968.98846 -17486152.68443  24106212.3204                   24106214.8094
 -32896172.90647 -25539891.64845  20785400.2344                   20785397.6174
 -75972510.30546 -59114058.11743  23417534.9844                   23417533.7854
   8332652.72746   6575508.49643  23329495.5704                   23329495.6954
 -21980687.07447 -17084502.38745  20909897.2114                   20909894.0864
 -54787856.16047 -39959724.52744  22026727.3674                   22026726.1174
 -13279550.21547 -10258344.30945  21321544.6564                   21321542.9734
 -38079691.285 5                  24199546.867
 -43454931.12147 -33815627.95746  20464393.0944                   20464388.1174
 11  8  3  1 48  0.0000000  0  9G09G10G17G25G12G04G05G27G02
 -21428043.42646 -16265171.85943  24404387.5784                   24404390.2384
 -31393827.00847 -24369232.47345  21071287.4924                   21071284.5784
 -74428914.17246 -57911255.91443  23711273.0554                   23711270.2464
   9724602.41846   7660144.63743  23594374.6174                   23594375.2584
 -20538763.82447 -15960925.78945  21184286.1954                   21184283.1804
 -53224001.11747 -38741136.18744  22324319.6644                   22324317.5594
 -11874797.67247  -9163731.89545  21588860.5164                   21588858.1134
 -36531495.12946 -27597130.10953  24494158.3054                   24494162.3014
 -41962313.67247 -32652549.41445  20748428.2424                   20748423.9654
 11  8  3  1 48 30.0000000  0  9G09G10G17G25G12G04G05G27G02
 -21436460.10246 -16271730.44143  24402786.6644                   24402788.7154
 -31466242.67247 -24425660.24245  21057507.2734                   21057504.5234
 -74460532.04346 -57935893.22343  23705256.3204                   23705253.9064
   9541432.21546   7517414.65643  23559518.5704                   23559519.4844
 -20671720.25847 -16064528.17645  21158985.6954                   21158982.3554
 -53235449.25047 -38750056.78944  22322140.6414                   22322138.9654
 -12045040.10947  -9296388.28545  21556464.0004                   21556462.1414
 -36558714.55945 -27618340.19542  24488978.5314                   24488982.3914
 -42044829.20747 -32716847.21946  20732726.8134                   20732721.8284
 11  8  3  1 49  0.0000000  0  9G09G10G17G25G12G04G05G27G02
 -21444802.57846 -16278231.20343  24401199.5314                   24401201.8054
 -31537999.01647 -24481574.25045  21043852.2734                   21043849.3014
 -74491942.95246 -57960369.24143  23699278.3204                   23699276.6564
   9358570.42646   7374924.95343  23524720.6254                   23524721.6564
 -20804130.41847 -16167704.89845  21133788.3444                   21133785.6484
 -53246782.19147 -38758887.66844  22319983.9384                   22319982.5274
 -12214850.16447  -9428707.76245  21524151.0004                   21524148.6214
 -36585931.98045 -27639548.66042  24483799.5234                   24483802.8524
 -42127056.69147 -32780920.57046  20717079.1094                   20717074.4224
 11  8  3  1 49 30.0000000  0  9G09G10G17G25G12G04G05G27G02
 -21453074.58645 -16284677.00842  24399625.5314                   24399627.8364
 -31609096.99247 -24536975.24245  21030322.6644                   21030320.3164
 -74523146.89146 -57984684.01643  23693340.7894                   23693338.9384
   9176019.37946   7232677.45343  23489982.9844                   23489982.9844
 -20935993.44547 -16270455.28545  21108695.6254                   21108692.6954
 -53258002.03147 -38767630.39544  22317849.0784                   22317847.2154
 -12384225.48047  -9560688.48045  21491919.2814                   21491917.2704
 -36613150.11745 -27660757.77342  24478620.1804                   24478623.7274
 -42208997.67247 -32844770.67646  20701486.5004                   20701481.3244
 11  8  3  1 50  0.0000000  0  9G09G10G17G25G12G04G05G27G02
 -21461277.98445 -16291069.36342  24398064.5554                   24398066.8484
 -31679535.73847 -24591862.55145  21016918.5554                   21016916.0004
 -74554141.90646 -58008835.97743  23687442.9774                   23687440.7584
   8993783.19946   7090675.28143  23455304.1804                   23455304.4184
 -21067305.63347 -16372776.44545  21083707.4694                   21083704.3594
 -53269109.03547 -38776285.19944  22315735.7194                   22315733.5084
 -12553162.05147  -9692327.30545  21459771.9144                   21459769.3634
 -36640370.39845 -27681968.50442  24473440.4614                   24473444.4494
 -42290652.13347 -32908397.52046  20685947.6414                   20685943.4414
 11  8  3  1 50 30.0000000  0  9G09G10G17G25G12G04G05G27G02
 -21469415.43045 -16297410.33242  24396516.2344                   24396517.9614
 -31749316.00047 -24646236.76645  21003640.2664                   21003637.0434
 -74584927.90246 -58032825.08243  23681585.3594                   23681582.8524
   8811864.73446   6948920.69543  23420685.9774                   23420687.3014
 -21198065.16847 -16474666.97745  21058825.2974                   21058822.1294
 -53280104.73447 -38784853.29344  22313643.0084                   22313641.5554
 -12721657.08247  -9823622.08645  21427708.4924                   21427705.6334
 -36667595.25045 -27703182.82842  24468259.6254                   24468263.9574
 -42372020.70747 -32971801.60246  20670463.7344                   20670459.2734
 11  8  3  1 51  0.0000000  0  9G09G10G17G25G12G04G05G27G02
 -21477492.44545 -16303704.20742  24394979.5164                   24394981.2034
 -31818440.64547 -24700100.09845  20990485.9224                   20990483.1024
 -74615506.34046 -58056652.46143  23675766.5164                   23675763.0634
   8630264.69146   6807414.21543  23386128.8054                   23386129.6684
 -21328272.24247 -16576127.02045  21034047.3284                   21034044.3634
 -53290992.60547 -38793337.34844  22311571.5314                   22311569.4344
 -12889709.98047  -9954572.34845  21395728.5004                   21395726.8594
 -36694829.22355 -27724404.24652  24463074.7194                   24463082.5514
 -42453106.90647 -33034985.64546  20655033.9774                   20655028.8444
 11  8  3  1 51 30.0000000  0  9G09G10G17G25G12G04G05G27G02
 -21485509.64846 -16309951.47343  24393454.0864                   24393455.7464
 -31886907.62947 -24753450.96945  20977457.2424                   20977454.6684
 -74645874.34446 -58080315.81643  23669985.3134                   23669984.8164
   8448988.28146   6666159.98443  23351632.6804                   23351633.6024
 -21457922.52347 -16677153.19945  21009376.2194                   21009372.4454
 -53301771.98847 -38801736.88344  22309520.1334                   22309518.6334
 -13057315.85947 -10085174.27045  21363834.5314                   21363832.3364
 -36722072.348 5                  24457892.453
 -42533909.06247 -33097948.36345  20639658.0554                   20639652.4574
 11  8  3  1 52  0.0000000  0  9G09G10G17G25G12G04G05G27G02
                                  24391937.9384                   24391940.5204
 -31954721.14547 -24806292.65245  20964552.8134                   20964549.6334
 -74676034.52346 -58103817.24643  23664245.8054                   23664244.7154
   8268035.10546   6525157.56643  23317198.6564                   23317199.0164
 -21587017.63747 -16777746.77345  20984809.9844                   20984806.7584
 -53312447.27747 -38810055.29344  22307488.6564                   22307486.7704
 -13224475.19947 -10215428.26245  21332025.1414                   21332022.5634
 -36749330.273 5                  24452706.781
 -42614431.31647 -33160692.95746  20624334.5864                   20624329.9534
 11  8  3  1 52 30.0000000  0  9G09G10G17G25G12G04G05G27G02
 -21501384.23045 -16322321.46542  24390432.7114                   24390434.7194
 -32021880.05147 -24858624.24245  20951772.9844                   20951770.0124
 -74705984.84446 -58127155.17643  23658546.2664                   23658546.4774
   8087409.61346   6384410.53944  23282826.5164                   23282827.8754
 -21715554.24647 -16877905.14845  20960350.6174                   20960347.1524
 -53323018.25446 -38818292.41444  22305476.7664                   22305475.0554
 -13391183.71947 -10345330.95345  21300301.8444                   21300299.4884
 -36776603.734 5                  24447515.594
 -42694673.28147 -33223219.15245  20609065.0164                   20609060.6684
 11  8  3  1 53  0.0000000  0  9G09G10G17G25G12G04G05G27G02
 -21509246.16445 -16328447.80543  24388936.7194                   24388939.6254
 -32088385.12947 -24910446.37145  20939116.7424                   20939114.2034
 -74735725.07046 -58150329.37543  23652887.2584                   23652886.8364
   7907114.41046   6243920.84444  23248517.6174                   23248518.2114
 -21843530.59047 -16977626.96545  20935997.0704                   20935993.7274
 -53333486.78947 -38826449.71544  22303484.7734                   22303483.1134
 -13557438.94547 -10474880.42645  21268663.9774                   21268661.8164
 -36803895.37515                  24442323.445
 -42774636.17247 -33285527.88746  20593848.7424                   20593843.6764
 11  8  3  1 53 30.0000000  0  8G09G10G17G25G12G04G05G02
 -21517063.09445 -16334539.01642  24387448.8524                   24387452.2774
 -32154238.41047 -24961760.60245  20926585.3914                   20926583.0554
 -74765255.59446 -58173340.15643  23647268.8594                   23647266.8054
   7727151.43446   6103690.01644  23214271.8204                   23214272.4804
 -21970945.56247 -17076911.35245  20911750.9844                   20911747.7304
 -53343855.21947 -38834529.01244  22301512.1804                   22301510.3284
 -13723239.05147 -10604075.27045  21237113.3754                   21237111.0314
 -42854322.14847 -33347620.83646  20578684.9454                   20578680.0784
 11  8  3  1 54  0.0000000  0  8G09G10G17G25G12G04G05G02
 -21524840.46145 -16340599.46942  24385970.6954                   24385973.4304
 -32219443.28547 -25012569.58245  20914176.9614                   20914174.5164
 -74794578.46946 -58196189.18043  23641689.0004                   23641686.5354
   7547520.91846   5963718.26243  23180088.9454                   23180089.7814
 -22097800.16447 -17175759.07845  20887610.9384                   20887608.3094
 -53354127.43047 -38842533.35244  22299557.3834                   22299555.6954
 -13888584.36747 -10732915.72345  21205648.6804                   21205647.2424
 -42933734.59447 -33409500.65645  20563573.5004                   20563568.3134
 11  8  3  1 54 30.0000000  0  8G09G10G17G25G12G04G05G02
 -21532575.71145 -16346627.00042  24384496.5474                   24384500.7974
 -32283995.00847 -25062869.61345  20901893.9224                   20901891.1844
 -74823687.66446 -58218871.66843  23636149.4144                   23636147.4614
   7368231.33646   5824012.16043  23145971.3054                   23145971.6724
 -22224087.10247 -17274164.47345  20863579.6804                   20863577.0234
 -53364299.10947 -38850459.32444  22297621.6334                   22297619.6374
 -14053466.29747 -10861395.09445  21174273.3204                   21174270.8984
 -43012868.80147 -33471163.66046  20548514.8524                   20548509.7424
 11  8  3  1 55  0.0000000  0  8G09G10G17G25G12G04G05G02
 -21540270.35545 -16352622.95742  24383033.0164                   24383037.4024
 -32347892.89547 -25112660.15645  20889734.3914                   20889731.5434
 -74852581.24646 -58241386.11343  23630651.0634                   23630649.5704
   7189287.04346   5684575.12143  23111919.5314                   23111920.0434
 -22349803.11347 -17372124.99645  20839656.3444                   20839653.5904
 -53374370.13747 -38858306.89844  22295705.4614                   22295703.6564
 -14217880.73447 -10989510.18045  21142986.4064                   21142984.2544
 -43091724.28147 -33532609.47346  20533509.0164                   20533504.0354
 11  8  3  1 55 30.0000000  0  8G09G10G17G25G12G04G05G02
 -21547926.55545 -16358588.94942  24381576.7504                   24381580.2664
 -32411136.85947 -25161941.16045  20877699.5164                   20877696.6484
 -74881257.76646 -58263731.48043  23625194.9924                   23625192.4844
   7010691.59446   5545409.91043  23077934.3914                   23077933.7624
 -22474945.57047 -17469638.59045  20815842.7894                   20815839.6134
 -53384341.34447 -38866076.66444  22293807.5314                   22293805.7894
 -14381824.57047 -11117258.57845  21111788.4224                   21111786.4384
 -43170301.70747 -33593838.61746  20518556.4694                   20518551.2934
 11  8  3  1 56  0.0000000  0  8G09G10G17G25G12G04G05G02
 -21555548.94545 -16364528.62142  24380126.5474                   24380129.5274
 -32473729.46147 -25210714.60245  20865788.3054                   20865785.7974
 -74909718.77046 -58285908.88343  23619778.7344                   23619776.9534
   6832446.31346   5406517.53143  23044014.7114                   23044015.0234
 -22599514.66847 -17566705.41045  20792137.7114                   20792134.7384
 -53394215.43047 -38873770.77344  22291928.4384                   22291926.6414
 -14545296.65247 -11244639.37545  21080681.0634                   21080678.1484
 -43248603.23047 -33654852.77346  20503655.6414                   20503650.8674
 11  8  3  1 56 30.0000000  0  8G09G10G17G25G12G04G05G02
 -19987725.04345 -15142847.66442  24678473.1094                   24678476.4344
 -30960254.19547 -24031383.22345  21153793.0784                   21153790.6214
 -73362547.46145 -57080320.89143  23914195.1724                   23914193.6024
   8229974.96146   6495500.93843  23309955.8524                   23309955.6294
 -21148089.29747 -16435724.57845  21068335.3054                   21068331.9774
 -51828578.48447 -37653793.93444  22589859.3984                   22589857.7194
 -13132874.02047 -10144050.26245  21349455.7034                   21349453.6254
 -41751212.21547 -32488054.57845  20788599.9614                   20788594.7274
 11  8  3  1 57  0.0000000  0  8G09G10G17G25G12G04G05G02
 -19995296.859 5                  24677032.039
 -31021555.32047 -24079150.30545  21142128.0554                   21142125.6414
 -73390584.10546 -57102167.57043  23908860.5704                   23908858.4694
   8052429.71146   6357154.06643  23276169.8594                   23276169.8834
 -21271514.73847 -16531900.23445  21044848.3594                   21044844.8674
 -51838271.21147 -37661346.69944  22588015.0394                   22588013.8204
 -13295403.46547 -10270696.53145  21318528.0554                   21318525.5004
 -41828973.63347 -32548647.87146  20773802.5864                   20773797.5784
 11  8  3  1 57 30.0000000  0  8G09G10G17G25G12G04G05G02
 -20002848.121 5                  24675595.594
 -31082212.29347 -24126415.46545  21130585.4144                   21130582.8794
 -73418408.21546 -57123848.71543  23903564.6884                   23903563.6294
   7875238.68046   6219083.19143  23242451.0394                   23242452.0704
 -21394366.00847 -16627628.48845  21021469.8364                   21021467.1604
 -51847875.26647 -37668830.37944  22586187.7274                   22586185.6994
 -13457457.93447 -10396972.69145  21287690.2114                   21287687.2704
 -41906466.67647 -32609032.05146  20759055.5084                   20759050.7114
 11  8  3  1 58  0.0000000  0  8G09G10G17G25G12G04G05G02
 -20010383.227 6                  24674161.227
 -31142227.50047 -24173180.53945  21119164.8054                   21119162.0314
 -73446020.70746 -57145364.95743  23898310.7814                   23898308.7974
   7698403.13746   6081289.28543  23208800.3834                   23208801.3164
 -21516643.02347 -16722909.26245  20998201.3594                   20998198.4414
 -51857393.58647 -37676247.24244  22584376.8594                   22584374.2424
 -13619036.49647 -10522878.02045  21256942.4614                   21256939.9574
 -41983693.96147 -32669209.14145  20744359.8834                   20744355.1684
 11  8  3  1 58 30.0000000  0  8G09G10G17G25G12G04G05G02
 -20017906.605 5                  24672730.078
 -31201603.98047 -24219447.92645  21107865.8674                   21107862.9574
 -73473422.87546 -57166717.28543  23893095.8754                   23893094.3014
   7521924.21546   5943773.29743  23175218.0234                   23175218.9104
 -21638346.04347 -16817742.77745  20975042.2664                   20975039.1024
 -51866829.19147 -37683599.67644  22582580.4774                   22582578.9924
 -13780138.26247 -10648411.80945  21226285.4844                   21226282.9224
 -42060657.89547 -32729181.01646  20729714.6484                   20729709.5784
 11  8  3  1 59  0.0000000  0  8G09G10G17G25G12G04G05G02
 -20025419.246 5                  24671299.625
 -31260341.10947 -24265217.10945  21096688.1414                   21096685.6604
 -73500612.56646 -57187904.07043  23887922.9144                   23887920.2464
   7345806.56346   5806538.78944  23141704.0084                   23141704.3754
 -21759471.52747 -16912126.26245  20951992.9844                   20951990.0784
 -51876181.53147 -37690887.22344  22580801.0394                   22580799.3444
 -13940759.03547 -10773570.80545  21195720.2504                   21195718.1024
 -42137357.83247 -32788947.19146  20715118.9614                   20715114.1484
 11  8  3  1 59 30.0000000  0  8G09G10G17G25G12G04G05G02
 -20032927.16845 -15149111.86352  24669871.7734                   24669874.0984
 -31318442.63747 -24310491.02045  21085632.0864                   21085629.4494
 -73527592.13846 -57208927.11343  23882789.4224                   23882786.9144
   7170050.00446   5669585.66844  23108258.3984                   23108259.1764
 -21880020.44947 -17006060.46945  20929053.3594                   20929050.4224
 -51885454.92247 -37698113.24644  22579036.0784                   22579034.6644
 -14100898.98047 -10898355.13345  21165247.1094                   21165244.4734
 -42213797.75847 -32848510.76245  20700572.9224                   20700567.9694
 11  8  3  2  0  0.0000000  0  8G09G10G17G25G12G04G05G02
 -20040434.18045 -15154961.56642  24668444.2274                   24668446.4734
 -31375910.41847 -24355271.10245  21074696.3444                   21074693.9734
 -73554362.14146 -57229786.87143  23877694.1254                   23877693.3594
   6994656.55546   5532915.48444  23074882.2504                   23074882.8484
 -21999992.82847 -17099545.43445  20906222.5704                   20906219.8364
 -51894651.35546 -37705279.28144  22577286.5554                   22577284.3754
 -14260556.82847 -11022763.79345  21134864.7034                   21134862.3524
 -42289979.43447 -32907873.09045  20686075.6334                   20686070.6844
 11  8  3  2  0 30.0000000  0  8G09G10G17G25G12G04G05G02
 -20047943.13345 -15160812.77342  24667014.2974                   24667018.1804
 -31432745.41447 -24399558.09445  21063880.9614                   21063878.3914
 -73580922.04746 -57250482.88743  23872640.2974                   23872638.9024
   6819629.11346   5396530.49644  23041575.1254                   23041576.3364
 -22119386.73847 -17192579.63745  20883503.4454                   20883500.4964
 -51903771.95747 -37712386.26643  22575550.1804                   22575548.7734
 -14419729.76647 -11146794.60945  21104575.5234                   21104573.1724
 -42365903.84447 -32967034.95346  20671627.8914                   20671622.8914
 11  8  3  2  1  0.0000000  0  8G09G10G17G25G12G04G05G02
 -20055458.93746 -15166669.39842  24665585.4774                   24665587.5474
 -31488951.29347 -24443354.87145  21053186.0474                   21053182.4884
 -73607273.71946 -57271016.69143  23867626.4144                   23867623.6914
   6644968.24647   5260431.16044  23008338.7114                   23008338.9844
 -22238203.09047 -17285163.78545  20860892.6484                   20860890.1914
 -51912820.20747 -37719436.82043  22573828.7814                   22573827.1644
 -14578417.84447 -11270447.61345  21074377.5234                   21074374.8954
 -42441574.31247 -33025998.93745  20657228.2344                   20657223.1724
 11  8  3  2  1 30.0000000  0  8G09G10G17G25G12G04G05G02
 -20062985.70745 -15172534.54342  24664152.7504                   24664155.7704
 -31544530.47747 -24486663.32845  21042609.1644                   21042606.3324
 -73633418.25046 -57291389.08643  23862650.5164                   23862648.7704
   6470675.35946   5124618.58644  22975172.2664                   22975172.3674
 -22356441.51247 -17377297.61345  20838392.9774                   20838389.8794
 -51921798.84847 -37726433.17244  22572120.6094                   22572118.4104
 -14736619.94947 -11393721.94545  21044273.0394                   21044270.2934
 -42516992.80947 -33084766.59446  20642876.7584                   20642871.7774
 11  8  3  2  2  0.0000000  0  8G09G10G17G25G12G04G05G02
 -20070525.19545 -15178409.58242  24662718.0394                   24662720.7114
 -31599482.62547 -24529483.16045  21032152.1174                   21032149.1334
 -73659353.43446 -57311598.32443  23857715.9454                   23857713.8404
   6296754.79746   4989096.11744  22942075.7194                   22942076.1724
 -22474099.15647 -17468978.87945  20816003.6094                   20816000.8404
 -51930707.57847 -37733375.02744  22570424.7274                   22570423.3444
 -14894331.92247 -11516614.34845  21014261.4924                   21014258.4024
 -42592159.05547 -33143337.68445  20628572.8364                   20628567.9344
 11  8  3  2  2 30.0000000  0  8G09G10G17G25G12G04G05G02
 -20078078.78145 -15184295.54342  24661280.2664                   24661284.0274
 -31653807.96147 -24571814.59045  21021813.9384                   21021811.5634
 -73685078.00846 -57331643.46543  23852819.3674                   23852818.3874
   6123210.53546   4853866.85544  22909051.2274                   22909051.4024
 -22591173.06647 -17560205.29345  20793725.3284                   20793722.4064
 -51939546.34846 -37740262.38343  22568742.4144                   22568740.9304
 -15051550.47747 -11639122.27745  20984343.9144                   20984341.4304
 -42667072.99647 -33201712.16845  20614316.8834                   20614312.1414
 11  8  3  2  3  0.0000000  0  8G09G10G17G25G12G04G05G02
 -20085652.98045 -15190197.69142  24659839.2894                   24659842.3164
 -31707511.22747 -24613661.30145  21011594.8054                   21011592.3134
 -73710595.35946 -57351527.11743  23847963.9924                   23847962.1524
   5950041.49646   4718929.97344  22876098.7114                   22876098.4344
 -22707666.00847 -17650979.00445  20771557.3444                   20771554.3954
 -51948320.20747 -37747099.17244  22567073.3594                   22567071.9454
 -15208276.98847 -11761246.78945  20954518.9694                   20954516.9534
 -42741739.19147 -33259893.60946  20600108.5864                   20600103.9694
 11  8  3  2  3 30.0000000  0  8G09G10G17G25G12G04G05G02
 -20093249.76645 -15196117.36742  24658392.1174                   24658397.4694
 -31760592.23447 -24655023.11745  21001494.3204                   21001490.9804
 -73735903.70346 -57371247.91043  23843148.8834                   23843146.6804
   5777251.76646   4584288.67244  22843217.4534                   22843217.7624
 -22823575.30947 -17741297.92645  20749500.5474                   20749497.7154
 -51957029.23047 -37753885.41844  22565415.9844                   22565414.2384
 -15364507.73847 -11882984.98845  20924789.7504                   20924787.1334
 -42816157.46547 -33317881.85545  20585947.4694                   20585942.5124
 11  8  3  2  4  0.0000000  0  8G09G10G17G25G12G04G05G02
 -20100872.32055 -15202057.18052  24656942.0554                   24656947.6024
 -31813053.27747 -24695901.83245  20991510.9534                   20991508.0594
 -73761003.28146 -57390806.06643  23838372.4304                   23838370.3554
   5604843.48046   4449944.61344  22810408.9924                   22810409.6954
 -22938900.38347 -17831161.60245  20727554.8754                   20727551.9024
 -51965675.12547 -37760622.48044  22563770.6254                   22563768.9454
 -15520240.97347 -12004335.52045  20895154.7504                   20895152.3834
 -42890329.48447 -33375678.22345  20571832.6954                   20571827.9614
 11  8  3  2  4 30.0000000  0  8G09G10G17G25G12G04G05G02
 -20108525.42245 -15208020.73042  24655486.5864                   24655491.2384
 -31864897.79347 -24736300.15645  20981644.7584                   20981642.4924
 -73785895.77746 -57410202.85243  23833634.6724                   23833633.1914
   5432817.39546   4315898.35244  22777673.7344                   22777673.1954
 -23053641.71947 -17920570.43445  20705720.3754                   20705717.2544
 -51974260.96947 -37767312.75044  22562136.3204                   22562135.1484
 -15675476.47747 -12125298.20745  20865614.2814                   20865611.9734
 -42964258.03147 -33433284.86345  20557764.5554                   20557759.9024
 11  8  3  2  5  0.0000000  0  8G09G10G17G25G12G04G05G02
 -18540791.32055 -13986409.87152  24953816.3914                   24953821.5984
 -30340705.08647 -23548617.52345  21271689.2974                   21271686.4924
 -72235160.16846 -56201837.44143  24128730.6804                   24128728.3794
   6836602.07846   5409756.61744  23044804.8914                   23044805.0744
 -21592373.88347 -16781920.15245  20983790.1174                   20983787.5164
 -50407367.75047 -36546356.99244  22860306.8204                   22860305.2114
 -14254786.65647 -11018267.14145  21135962.7584                   21135960.1804
 -41462521.64147 -32263100.64146  20843535.3594                   20843530.7544
 11  8  3  2  5 30.0000000  0  8G09G10G17G25G12G04G05G02
 -18548513.57445 -13992427.41042  24952347.6804                   24952351.9384
 -30391319.94547 -23588057.67645  21262057.6564                   21262055.2154
 -72259637.48446 -56220910.64543  24124071.4144                   24124070.5204
   6665348.97747   5276312.68844  23012216.8054                   23012216.5394
 -21705943.00447 -16870415.55545  20962178.8754                   20962175.6334
 -50415837.03947 -36552956.42244  22858694.8054                   22858694.0234
 -14409019.67647 -11138448.67645  21106613.3054                   21106610.6254
 -41535966.20747 -32320330.16445  20829559.5084                   20829554.8054
 11  8  3  2  6  0.0000000  0  8G09G10G17G25G12G04G05G02
 -18556276.56245 -13998476.56242  24950870.4454                   24950875.1484
 -30441323.75447 -23627021.67245  21252542.2504                   21252539.3324
 -72283908.26646 -56239822.97743  24119453.6564                   24119452.6294
   6494484.84446   5143171.86743  22979702.6254                   22979702.0744
 -21818926.28947 -16958454.46945  20940678.5004                   20940675.6094
 -50424251.31247 -36559512.98844  22857094.1174                   22857092.3914
 -14562749.68447 -11258238.24645  21077359.1644                   21077356.6454
 -41609171.78947 -32377373.45746  20815629.1334                   20815624.2504
 11  8  3  2  6 30.0000000  0  8G09G10G17G25G12G04G05G02
 -18564083.46545 -14004559.95742  24949384.5474                   24949390.1954
 -30490718.92247 -23665511.39845  21243142.8284                   21243140.1024
 -72307972.98445 -56258574.71543  24114875.3364                   24114873.0434
   6324011.77047   5010335.76644  22947261.8914                   22947262.2734
 -21931322.89847 -17046036.22745  20919290.0704                   20919287.4344
 -50432612.41046 -36566028.11743  22855503.0084                   22855500.9924
 -14715974.88347 -11377634.46945  21048201.2814                   21048199.0634
 -41682140.37147 -32434232.07446  20801743.3594                   20801738.8054
 11  8  3  2  7  0.0000000  0  7G10G17G25G12G04G05G02
 -30539504.16447 -23703525.87145  21233859.0864                   21233856.6684
 -72331828.93046 -56277163.79743  24110334.8674                   24110333.8524
   6153934.75847   4877808.26244  22914897.8284                   22914897.2584
 -22043129.41847 -17133158.17245  20898013.8204                   20898011.2734
 -50440919.14147 -36572500.91444  22853922.2194                   22853920.6644
 -14868691.07847 -11496634.05145  21019140.6564                   21019137.7074
 -41754870.61347 -32490904.97746  20787903.4224                   20787898.4184
 11  8  3  2  7 30.0000000  0  7G10G17G25G12G04G05G02
 -30587684.02347 -23741068.61345  21224691.1094                   21224688.1564
 -72355478.76246 -56295592.23443  24105833.7114                   24105833.6414
   5984253.53147   4745589.18844  22882608.1954                   22882608.7304
 -22154347.13347 -17219821.30945  20876850.6024                   20876847.5394
 -50449175.76647 -36578934.62544  22852351.0084                   22852349.5554
 -15020898.60547 -11615237.28145  20990176.0864                   20990173.2304
 -41827366.00447 -32547394.88746  20774107.7734                   20774102.9384
 11  8  3  2  8  0.0000000  0  7G10G17G25G12G04G05G02
 -30635258.08247 -23778139.29745  21215638.0944                   21215635.1684
 -72378920.30946 -56313858.37943  24101374.0004                   24101372.0204
   5814972.71147   4613682.09844  22850395.4534                   22850395.5274
 -22264972.94147 -17306023.22745  20855799.1644                   20855795.9964
 -50457381.47346 -36585328.72343  22850789.9844                   22850788.2274
 -15172593.85247 -11733441.32845  20961309.5704                   20961306.9494
 -41899625.78147 -32603701.19945  20760357.7974                   20760352.4574
 11  8  3  2  8 30.0000000  0  7G10G17G25G12G04G05G02
 -30682222.45747 -23814734.90245  21206700.6954                   21206698.2034
 -72402147.56246 -56331957.51643  24096953.2034                   24096951.9454
   5646100.58247   4482093.51244  22818260.2114                   22818260.1764
 -22375001.02047 -17391759.38345  20834861.6724                   20834858.2814
 -50465531.62147 -36591679.45744  22849238.8834                   22849236.8364
 -15323768.96147 -11851240.07845  20932541.4064                   20932538.7154
 -41971645.41447 -32659820.38745  20746652.4844                   20746647.5984
 11  8  3  2  9  0.0000000  0  7G10G17G25G12G04G05G02
 -30728581.63747 -23850858.91845  21197878.8674                   21197876.5274
 -72425163.41446 -56349891.97743  24092574.2504                   24092572.0594
   5477636.57847   4350822.91444  22786202.0944                   22786202.1604
 -22484432.87947 -17477030.94945  20814036.6564                   20814034.3014
 -50473630.79746 -36597990.48043  22847696.8834                   22847695.9414
 -15474425.01247 -11968634.35245  20903872.7194                   20903870.2934
 -42043429.30947 -32715755.87545  20732993.0234                   20732987.7854
 11  8  3  2  9 30.0000000  0  7G10G17G25G12G04G05G02
 -30774333.31247 -23886509.55545  21189172.3134                   21189169.7194
 -72447964.23446 -56367658.84843  24088234.6414                   24088233.5704
   5309587.36747   4219875.52744  22754223.4694                   22754223.4264
 -22593263.36347 -17561833.91045  20793327.5084                   20793324.0824
 -50481675.90646 -36604259.41043  22846166.2974                   22846164.8364
 -15624555.80547 -12085619.34445  20875304.0634                   20875301.1724
 -42114974.10247 -32771505.04745  20719378.1024                   20719373.5434
 11  8  3  2 10  0.0000000  0  7G10G17G25G12G04G05G02
 -30819484.55147 -23921692.31245  21180581.0234                   21180577.9844
 -72470554.61746 -56385261.72743  24083936.1884                   24083934.3714
   5141950.50047   4089249.45744  22722323.1804                   22722322.9734
 -22701496.91847 -17646171.71545  20772731.1884                   20772728.4614
 -50489673.19946 -36610491.05943  22844644.6414                   22844643.0434
 -15774164.54747 -12202197.55145  20846834.1484                   20846831.5514
 -42186285.97347 -32827072.73046  20705807.4694                   20705802.8324
 11  8  3  2 10 30.0000000  0  7G10G17G25G12G04G05G02
 -30864035.86747 -23956407.61745  21172102.6254                   21172099.8834
 -72492933.47346 -56402699.83243  24079678.2734                   24079676.1524
   4974729.44947   3958947.39844  22690502.1414                   22690502.2234
 -22809131.50047 -17730042.80945  20752248.8754                   20752246.2234
 -50497623.17246 -36616685.82043  22843131.6024                   22843130.1844
 -15923248.10247 -12318366.51245  20818464.5474                   20818462.1214
 -42257365.61747 -32882459.46145  20692282.1254                   20692276.8984
 11  8  3  2 11  0.0000000  0  7G10G17G25G12G04G05G02
 -30907990.59447 -23990658.03545  21163738.5474                   21163735.6374
 -72515102.14146 -56419974.09443  24075459.1724                   24075457.8164
   4807925.26247   3828970.18044  22658760.5554                   22658760.6334
 -22916167.59447 -17813447.53145  20731881.2274                   20731877.8794
 -50505528.23846 -36622845.61343  22841627.1094                   22841625.7624
 -16071806.19147 -12434126.02345  20790194.6954                   20790192.4454
 -42328215.28147 -32937666.98046  20678799.6804                   20678794.8984
 11  8  3  2 11 30.0000000  0  7G10G17G25G12G04G05G02
 -30951354.20747 -24024447.85245  21155486.6884                   21155484.1604
 -72537063.88346 -56437087.14543  24071279.9064                   24071278.0944
   4641537.02347   3699317.07044  22627097.1414                   22627097.2464
 -23022607.91447 -17896388.01645  20711626.1174                   20711622.7234
 -50513393.25046 -36628974.20343  22840131.1094                   22840128.9734
 -16219840.28547 -12549477.21545  20762024.4694                   20762022.3714
 -42398839.25447 -32992698.64545  20665360.0004                   20665354.9224
 11  8  3  2 12  0.0000000  0  7G10G17G25G12G04G05G02
 -30994126.70747 -24057777.06245  21147346.9774                   21147344.7424
 -72558817.36746 -56454037.90643  24067139.6954                   24067138.6214
   4475568.71947   3569991.18444  22595514.3984                   22595514.7504
 -23128449.82847 -17978862.21945  20691484.8204                   20691481.6884
 -50521217.56246 -36635071.05943  22838642.0864                   22838640.0234
 -16367347.14147 -12664417.57845  20733954.7664                   20733952.5594
 -42469237.43747 -33047554.36345  20651963.9924                   20651958.7384
 11  8  3  2 12 30.0000000  0  7G10G17G25G12G04G05G02
 -31036312.07047 -24090648.75045  21139319.6954                   21139317.1524
 -72580364.32446 -56470827.73843  24063040.9844                   24063038.3754
   4310021.00447   3440993.02044  22564011.4534                   22564012.1844
 -23233694.42247 -18060870.97345  20671457.5234                   20671454.2624
 -50529004.72346 -36641138.95343  22837160.3594                   22837158.0164
 -16514326.51247 -12778946.92245  20705985.5004                   20705983.1414
 -42539412.71147 -33102236.38745  20638610.0704                   20638605.2734
 11  8  3  2 13  0.0000000  0  7G10G17G25G12G04G05G02
 -31077912.19547 -24123064.41845  21131403.3204                   21131400.7504
 -72601704.78146 -56487456.67643  24058978.8834                   24058977.5124
   4144896.03147   3312324.29344  22532589.5084                   22532590.0634
 -23338341.79747 -18142414.36746  20651543.6884                   20651540.4884
 -50536755.89846 -36647178.85543  22835684.9534                   22835683.1134
 -16660777.16847 -12893064.28145  20678117.2034                   20678114.4734
 -42609366.54347 -33156745.85946  20625297.7814                   20625293.1524
 11  8  3  2 13 30.0000000  0  7G10G17G25G12G04G05G02
 -29543508.15247 -22927424.89145  21423390.4534                   21423388.0434
 -71047418.38746 -55276324.42643  24354750.3754                   24354747.9614
   5555621.56647   4411591.00444  22801041.8594                   22801041.7894
 -21866967.36347 -16995888.81246  20931536.8674                   20931533.6764
 -48969052.09846 -35425591.49643  23134009.2894                   23134007.7384
 -15231272.70347 -11779164.65245  20950143.3364                   20950140.2774
 -41103677.23847 -31983481.45745  20911821.1484                   20911816.2664
 11  8  3  2 14  0.0000000  0  7G10G17G25G12G04G05G02
 -29583945.25047 -22958934.29745  21415695.6094                   21415692.8484
 -71068347.25846 -55292632.60942  24350767.2114                   24350765.5124
   5391348.08247   4283585.75444  22769781.3284                   22769782.0124
 -21970418.83247 -17076500.32045  20911850.8364                   20911847.8444
 -48976736.25446 -35431579.11344  23132547.0784                   23132544.1414
 -15376661.69547 -11892454.72745  20922476.4454                   20922473.6844
 -41173192.66447 -32037649.31245  20898593.1174                   20898587.9414
 11  8  3  2 14 30.0000000  0  7G10G17G25G12G04G05G02
 -29623803.12547 -22989992.36745  21408110.6954                   21408108.0554
 -71089069.94946 -55308780.21143  24346824.6094                   24346822.6524
   5227504.46147   4155915.47344  22738603.0704                   22738603.3554
 -22073270.66447 -17156644.59846  20892278.7424                   20892275.6644
 -48984388.01646 -35437541.51243  23131090.6484                   23131088.6054
 -15521516.48447 -12005328.54345  20894911.4614                   20894908.6454
 -41242490.41847 -32091647.55545  20885405.9384                   20885401.4454
 11  8  3  2 15  0.0000000  0  7G10G17G25G12G04G05G02
 -29663083.70747 -23020600.59445  21400636.1174                   21400633.6994
 -71109586.14846 -55324766.80143  24342919.8984                   24342918.0864
   5064093.50447   4028582.32444  22707506.8674                   22707506.9734
 -22175521.85947 -17236320.83245  20872820.7114                   20872818.2664
 -48992008.37546 -35443479.43743  23129640.9924                   23129638.6054
 -15665835.34847 -12117784.76245  20867448.0164                   20867445.5434
 -41311571.02347 -32145476.58645  20872260.5004                   20872255.3444
 11  8  3  2 15 30.0000000  0  7G10G17G25G12G04G05G02
 -29701788.85947 -23050760.44545  21393271.0634                   21393268.1374
 -71129895.79345 -55340592.51243  24339054.9224                   24339054.1214
   4901117.48047   3901588.07444  22676493.6174                   22676493.9144
 -22277171.82847 -17315528.58245  20853477.5634                   20853474.0904
 -48999598.69946 -35449393.96943  23128196.8364                   23128194.7464
 -15809616.50047 -12229821.98845  20840087.0944                   20840084.6174
 -41380435.41047 -32199137.14145  20859155.8754                   20859150.8054
 11  8  3  2 16  0.0000000  0  7G10G17G25G12G04G05G02
 -29739921.14147 -23080473.91844  21386014.7424                   21386011.7504
 -71149999.23445 -55356257.51642  24335230.1334                   24335228.5864
   4738578.39847   3774934.28144  22645563.6644                   22645563.3164
 -22378220.78547 -17394268.02045  20834248.7274                   20834245.4304
 -49007160.33646 -35455286.14843  23126757.6024                   23126755.6884
 -15952858.71947 -12341439.26245  20812829.2664                   20812826.6844
 -41449085.38747 -32252630.60545  20846092.0944                   20846086.9964
 11  8  3  2 16 30.0000000  0  8G29G10G17G25G12G04G05G02
                                  26429704.74615                  24678064.992
 -29777487.06647 -23109746.03945  21378866.0864                   21378862.8014
 -71169901.22745 -55371765.57042  24331442.1884                   24331441.4534
   4576473.76647   3648619.03544  22614715.6804                   22614716.2894
 -22478672.67647 -17472542.20345  20815133.0474                   20815130.1954
 -49014699.23846 -35461160.58643  23125322.4144                   23125321.1914
 -16095565.06247 -12452638.96145  20785672.7814                   20785670.6954
 -41517527.05947 -32305961.77045  20833068.0234                   20833063.1094
 11  8  3  2 17  0.0000000  0  8G29G10G17G25G12G04G05G02
                                  26259632.160 5                  24645702.734
 -29814490.79747 -23138580.10945  21371824.2194                   21371821.6684
 -71189603.68745 -55387118.12543  24327692.9304                   24327692.3134
   4414804.49647   3522643.03144  22583951.1644                   22583951.3204
 -22578528.50447 -17550351.92245  20796130.9694                   20796128.3834
 -49022218.26646 -35467019.56643  23123892.5944                   23123890.3284
 -16237735.47747 -12563421.06645  20758618.7664                   20758616.5354
 -41585762.73047 -32359132.40645  20820083.5474                   20820078.3794
 11  8  3  2 17 30.0000000  0  8G29G10G17G25G12G04G05G02
                                  24613327.5554                   24613328.6724
 -29850936.24247 -23166979.14845  21364889.2274                   21364886.3054
 -71209108.72345 -55402316.86743  24323982.0474                   24323980.5474
   4253570.88347   3397006.50044  22553269.3524                   22553269.4304
 -22677789.84047 -17627698.40645  20777242.8134                   20777239.1414
 -49029720.52046 -35472865.45743  23122463.7194                   23122462.7814
 -16379370.48847 -12673785.97745  20731666.9614                   20731664.4614
 -41653795.96547 -32412145.30945  20807137.1414                   20807132.1174
 11  8  3  2 18  0.0000000  0  8G29G10G17G25G12G04G05G02
  25919315.12545                  20697651.05143  24580942.2194   24580942.3244
 -29886827.05147 -23194945.99245  21358059.2344                   21358056.2034
 -71228417.78546 -55417362.90243  24320306.6564                   24320305.6454
   4092773.72747   3271710.06344  22522670.7664                   22522670.5354
 -22776457.84047 -17704582.53945  20758466.5164                   20758462.8014
 -49037208.69946 -35478700.41043  23121039.5784                   23121037.9614
 -16520470.07047 -12783733.65245  20704816.4384                   20704813.8054
 -41721629.01647 -32465002.21145  20794229.1804                   20794223.9964
 11  8  3  2 18 30.0000000  0  8G29G10G17G25G12G04G05G02
  25749073.13355                  20564995.10252  24548545.7034   24548546.5984
 -29922162.59847 -23222480.17645  21351334.5554                   21351332.4774
 -71247528.05145 -55432253.96943  24316669.9694                   24316669.0824
   3932418.28547   3146757.79744  22492156.2274                   22492156.0594
 -22874528.95347 -17781001.57845  20739803.7664                   20739801.0044
 -49044680.83246 -35484522.84443  23119617.9694                   23119615.2974
 -16661029.61347 -12893260.53145  20678068.6484                   20678066.2304
 -41789260.24247 -32517701.84045  20781359.2504                   20781354.0354
 11  8  3  2 19  0.0000000  0  8G29G10G17G25G12G04G05G02
  25578777.44555                  20432297.17653  24516139.9144   24516140.7854
 -29956944.43047 -23249582.90245  21344716.1174                   21344713.5204
 -71266438.90246 -55446989.70743  24313071.9694                   24313070.4344
   3772507.39547   3022151.95344  22461726.0634                   22461726.1254
 -22972001.81247 -17856954.44545  20721256.0004                   20721252.2384
 -49052137.42246 -35490333.17643  23118198.8594                   23118197.1134
 -16801046.99647 -13002364.94145  20651424.4534                   20651422.1094
 -41856690.35947 -32570244.77345  20768527.3754                   20768522.5824
 11  8  3  2 19 30.0000000  0  8G29G10G17G25G12G04G05G02
  25408428.02045                  20299557.48843  24483722.5474   24483724.0474
 -29991174.94947 -23276256.02345  21338203.2274                   21338199.7974
 -71285151.23446 -55461570.77043  24309510.2034                   24309509.7894
   3613042.70747   2897893.78944  22431380.7194                   22431381.0234
 -23068877.56247 -17932442.02745  20702820.6884                   20702817.6524
 -49059580.26646 -35496132.81243  23116782.0634                   23116780.5594
 -16940521.44547 -13111046.28945  20624883.0394                   20624880.2624
 -41923920.78947 -32622632.11345  20755733.9924                   20755728.9024
 11  8  3  2 20  0.0000000  0  8G29G10G17G25G12G04G05G02
  25238028.60946                  20166778.82442  24451298.1484   24451297.6024
 -30024853.42647 -23302499.00445  21331794.0634                   21331790.7584
 -71303662.05546 -55475994.73442  24305988.7034                   24305986.6914
   3454029.73847   2773987.62944  22401121.4844                   22401121.3634
 -23165152.42647 -18007461.39146  20684500.3674                   20684497.2234
 -49067007.29746 -35501920.08243  23115369.4454                   23115367.7384
 -17079448.09047 -13219300.78545  20598445.9224                   20598443.4734
 -41990949.75447 -32674862.46145  20742978.9224                   20742973.9264
 11  8  3  2 20 30.0000000  0  8G29G10G17G25G12G04G05G02
  25067578.11746                  20033960.27743  24418861.9454   24418861.9454
 -30057983.72747 -23328314.80945  21325488.9844                   21325486.5474
 -71321973.00845 -55490263.02742  24302504.1724                   24302502.4064
   3295469.19547   2650433.99244  22370948.5004                   22370948.7274
 -23260827.35947 -18082013.27046  20666293.7664                   20666290.9304
 -49074421.10546 -35507697.08243  23113958.2344                   23113956.6524
 -17217827.07047 -13327128.52745  20572113.7664                   20572110.6174
 -42057779.98847 -32726937.95745  20730261.2344                   20730256.6844
 11  8  3  2 21  0.0000000  0  8G29G10G17G25G12G04G05G02
  24897078.28546                  19901103.32843  24386417.6804   24386416.7234
 -30090567.41447 -23353704.69545  21319289.3204                   21319286.3244
 -71340083.02745 -55504374.76242  24299058.1484                   24299057.5784
   3137364.35247   2527235.46544  22340862.0944                   22340862.2624
 -23355900.93747 -18156096.56645  20648201.9064                   20648198.7194
 -49081821.87546 -35513463.93443  23112549.2974                   23112548.5084
 -17355655.96147 -13434527.61745  20545886.1484                   20545883.3204
 -42124411.23447 -32778858.40245  20717581.7974                   20717577.3404
 11  8  3  2 21 30.0000000  0  8G29G10G17G25G12G04G05G02
  24726527.32446                  19768206.54743  24353961.4384   24353962.2734
 -30122608.21147 -23378671.53945  21313191.2974                   21313188.4264
 -71357994.48445 -55518331.71942  24295648.6174                   24295648.4494
   2979715.39847   2404392.16044  22310862.1644                   22310862.5664
 -23450375.01647 -18229712.71945  20630223.8754                   20630220.7624
 -49089212.72346 -35519223.02743  23111143.5084                   23111141.5044
 -17492935.71547 -13541498.81645  20519762.2424                   20519759.6414
 -42190846.87147 -32830626.39845  20704939.4924                   20704934.9264
 11  8  3  2 22  0.0000000  0  8G29G10G17G25G12G04G05G02
  24555926.28946                  19635270.69143  24321497.3284   24321497.5784
 -30154108.30147 -23403217.06644  21307197.5474                   21307194.3364
 -71375707.00845 -55532133.73042  24292279.0084                   24292278.2074
   2822524.99647   2281906.17244  22280950.2274                   22280950.4844
 -23544248.97347 -18302861.25845  20612360.6174                   20612356.9104
 -49096594.13346 -35524974.76643  23109738.5084                   23109737.0514
 -17629664.10947 -13648040.38745  20493743.2424                   20493741.0784
 -42257087.24247 -32882242.26645  20692334.4224                   20692329.5594
 11  8  3  2 22 30.0000000  0  8G29G10G17G25G12G04G05G02
  25960704.99646                  20729903.49243  24588817.4694   24588818.0784
 -28609645.44947 -22199739.51245  21601098.8834                   21601096.5554
 -69817796.82845 -54318177.73442  24588739.6024                   24588738.4964
   4241223.82847   3387385.81644  22550919.7034                   22550919.7274
 -22062095.70347 -17147936.62145  20894405.4774                   20894401.5784
 -47528543.82446 -34303117.36343  23408129.1334                   23408126.9614
 -16190412.32047 -12526545.45345  20767623.8674                   20767621.0474
 -40747708.18747 -31706102.72745  20979559.6954                   20979554.5354
 11  8  3  2 23  0.0000000  0  8G29G10G17G25G12G04G05G02
  25790008.35246                  20596893.21143  24556335.1024   24556335.5084
 -28640068.34047 -22223445.67645  21595309.8914                   21595307.0204
 -69835109.30945 -54331667.95342  24585445.0234                   24585444.1054
   4084959.73447   3265621.62944  22521183.6724                   22521183.2464
 -22154765.80947 -17220147.07845  20876770.7344                   20876767.1524
 -47535906.99646 -34308854.90643  23406728.0554                   23406725.6374
 -16326031.88347 -12632223.00445  20741816.3834                   20741813.6294
 -40813559.45747 -31757415.39545  20967028.4144                   20967023.8954
 11  8  3  2 23 30.0000000  0  8G29G10G17G25G12G04G05G02
  25619264.52046                  20463846.10543  24523843.4144   24523843.9224
 -28669956.32447 -22246735.00444  21589622.0944                   21589619.3014
 -69852222.04345 -54345002.53542  24582188.3204                   24582187.3834
   3929161.92647   3144220.78544  22491536.1564                   22491535.7814
 -22246834.06247 -17291888.57045  20859250.6024                   20859247.2734
 -47543262.86346 -34314586.77343  23405327.6954                   23405326.2304
 -16461094.71547 -12737466.72745  20716114.7424                   20716112.2384
 -40879218.13747 -31808577.98445  20954534.1954                   20954529.3244
 11  8  3  2 24  0.0000000  0  8G29G10G17G25G12G04G05G02
  25448475.61745                  20330763.93442  24491343.3984   24491343.5474
 -28699309.87147 -22269607.91844  21584036.2504                   21584033.4574
 -69869133.89545 -54358180.56642  24578970.0164                   24578969.3524
   3773834.30147   3023186.32044  22461977.8984                   22461977.9884
 -22338298.60947 -17363159.63345  20841844.7894                   20841842.2154
 -47550610.66446 -34320312.33243  23403929.3364                   23403928.0274
 -16595598.22747 -12842274.62545  20690519.8754                   20690516.9344
 -40944683.49247 -31859589.94545  20942076.5004                   20942071.3364
 11  8  3  2 24 30.0000000  0  8G29G10G17G25G12G04G05G02
  25277640.44545                  20197645.57842  24458835.5164   24458834.8404
 -28728133.27747 -22292067.69545  21578551.2194                   21578548.4184
 -69885846.40645 -54371203.29742  24575789.7504                   24575788.7424
   3618977.30947   2902518.59044  22432509.9844                   22432509.8984
 -22429160.84447 -17433961.36745  20824554.8284                   20824551.6724
 -47557953.09846 -34326033.69143  23402532.5004                   23402530.6454
 -16729542.90247 -12946647.07445  20665031.0164                   20665028.1374
 -41009958.05947 -31910453.22345  20929655.3834                   20929650.4494
 11  8  3  2 25  0.0000000  0  7G29G10G25G12G04G05G02
  25106757.305 5                                                  24426316.922
 -28756431.15247 -22314117.98444  21573166.2424                   21573163.3794
   3464590.70347   2782217.38745  22403130.3364                   22403130.7234
 -22519423.14847 -17504295.63345  20807378.6884                   20807375.4654
 -47565293.63346 -34331753.61743  23401134.9614                   23401133.9144
 -16862929.49647 -13050584.65245  20639647.9694                   20639645.2074
 -41075045.27047 -31961170.53545  20917269.4224                   20917264.6954
 11  8  3  2 25 30.0000000  0  7G29G10G25G12G04G05G02
  24935829.191 5                                                  24393790.320
 -28784203.78947 -22335758.98845  21567881.3284                   21567878.5824
   3310678.73047   2662286.02344  22373841.8674                   22373842.1374
 -22609083.25047 -17574160.64845  20790316.4144                   20790313.2424
 -47572631.12546 -34337471.15243  23399738.6804                   23399737.6604
 -16995755.03547 -13154085.03946  20614372.8284                   20614369.7664
 -41139944.53547 -32011741.38345  20904919.6724                   20904914.4104
 11  8  3  2 26  0.0000000  0  7G29G10G25G12G04G05G02
  24764860.629 5                                                  24361255.836
 -28811449.52047 -22356989.41444  21562696.5944                   21562694.0864
   3157247.59847   2542729.34045  22344645.5394                   22344645.3284
 -22698137.20747 -17643553.34045  20773370.4774                   20773366.4184
 -47579962.30946 -34343183.77043  23398344.1564                   23398342.4924
 -17128014.13347 -13257144.04345  20589204.5554                   20589201.3524
 -41204652.61747 -32062163.25045  20892606.2894                   20892601.0234
 11  8  3  2 26 30.0000000  0  7G29G10G25G12G04G05G02
  24593853.145 5                                                  24328714.742
 -28838169.51247 -22377810.18744  21557612.2114                   21557608.9304
   3004300.62547   2423549.93844  22315540.6564                   22315540.5514
 -22786583.78147 -17712472.73445  20756539.7584                   20756535.9454
 -47587287.00446 -34348891.32843  23396950.2664                   23396948.4774
 -17259704.16047 -13359759.61746  20564144.4384                   20564141.7664
 -41269169.18447 -32112435.89145  20880328.9224                   20880323.7234
 11  8  3  2 27  0.0000000  0  7G29G10G25G12G04G05G02
  24422807.875 6                                                  24296165.984
 -28864366.53947 -22398223.45745  21552626.7664                   21552624.6334
   2851840.03147   2304749.53544  22286528.3054                   22286528.6644
 -22874422.90647 -17780918.80945  20739824.3594                   20739820.8674
 -47594606.31246 -34354594.68043  23395557.2034                   23395555.7894
 -17390824.15647 -13461931.01646  20539192.7584                   20539190.1414
 -41333495.41447 -32162560.21945  20868087.9924                   20868082.9734
 11  8  3  2 27 30.0000000  0  7G29G10G25G12G04G05G02
  24251722.74245                  20053710.60952  24263608.3364   24263608.3754
 -28890045.37147 -22418232.93044  21547740.6724                   21547737.9494
   2699865.26647   2186327.68045  22257608.2814                   22257608.1604
 -22961657.04347 -17848893.46145  20723224.2664                   20723220.7774
 -47601923.51646 -34360296.39143  23394165.0234                   23394163.6524
 -17521375.34447 -13563659.18745  20514350.1254                   20514347.1374
 -41397634.94947 -32212539.06645  20855882.7274                   20855877.6644
 11  8  3  2 28  0.0000000  0  7G29G10G25G12G04G05G02
  24080600.28545                  19920368.52042  24231044.9224   24231045.3204
 -28915206.42247 -22437838.93444  21542952.4774                   21542949.9614
   2548380.32447   2068287.52044  22228781.6094                   22228781.0234
 -23048284.37947 -17916395.27745  20706739.1564                   20706736.1684
 -47609237.69546 -34365995.79343  23392773.8834                   23392771.7894
 -17651354.88347 -13664941.91845  20489615.8674                   20489613.0664
 -41461587.02747 -32262371.85245  20843713.2344                   20843708.2424
 11  8  3  2 28 30.0000000  0  7G29G10G25G12G04G05G02
  23909439.24646                  19786996.38343  24198474.7974   24198474.4924
 -28939854.28147 -22457045.05144  21538262.4614                   21538259.4694
   2397385.25847   1950629.06344  22200047.9304                   22200048.1254
 -23134306.75847 -17983425.69145  20690369.7344                   20690366.3914
 -47616551.84046 -34371695.14543  23391381.6884                   23391380.2934
 -17780763.75447 -13765779.96545  20464990.1954                   20464986.9804
 -41525354.68747 -32312060.93445  20831577.8754                   20831573.7234
 11  8  3  2 29  0.0000000  0  7G29G10G25G12G04G05G02
  23738239.21945                  19653593.82043  24165895.6564   24165895.4264
 -28963992.41847 -22475853.98845  21533669.5004                   21533666.2894
   2246881.27347   1833353.27344  22171408.3444                   22171407.8714
 -23219725.01647 -18049985.36345  20674115.1564                   20674112.1844
 -47623867.62146 -34377395.74243  23389990.1094                   23389987.6764
 -17909601.37147 -13866172.86746  20440473.0554                   20440470.0084
 -41588939.46947 -32361607.51245  20819478.6414                   20819473.7894
 11  8  3  2 29 30.0000000  0  7G29G10G25G12G04G05G02
  23567001.98046                  19520162.32043  24133310.7664   24133309.9454
 -28987622.49647 -22494267.02344  21529171.9844                   21529169.4614
   2096871.32047   1716462.44544  22142861.8134                   22142861.6884
 -23304539.06247 -18116074.23445  20657975.4534                   20657972.8014
 -47631185.17646 -34383097.73843  23388596.5164                   23388595.0744
 -18037866.08247 -13966119.37146  20416065.0164                   20416062.0354
 -41652341.71547 -32411011.85245  20807413.5634                   20807408.6524
 11  8  3  2 30  0.0000000  0  7G29G10G25G12G04G05G02
  23395726.10546                  19386700.65643  24100717.6174   24100716.7544
 -29010748.90647 -22512287.59444  21524771.3444                   21524768.7774
   1947355.43047   1599956.59444  22114410.9534                   22114409.9064
 -23388750.55547 -18181693.56645  20641950.8594                   20641947.9574
 -47638507.29746 -34388803.31243  23387203.6174                   23387201.9264
 -18165558.84847 -14065620.19945  20391765.5084                   20391763.1254
 -41715564.62547 -32460276.45745  20795382.5554                   20795377.9414
 11  8  3  2 30 30.0000000  0  7G29G10G25G12G04G05G02
  23224414.13746                  19253210.93043  24068117.6884   24068117.7194
 -29033372.61347 -22529916.44144  21520466.5394                   21520463.8014
   1798337.25847   1483838.56644  22086053.2814                   22086052.2114
 -23472358.32447 -18246842.46945  20626040.7734                   20626037.5744
 -47645833.16846 -34394511.81643  23385809.8914                   23385807.6564
 -18292676.89547 -14164673.18046  20367575.8134                   20367572.8134
 -41778607.34447 -32509400.63345  20783386.5394                   20783381.2384
 11  8  3  2 31  0.0000000  0  7G29G10G25G12G04G05G02
  24628491.04346                  20347296.92243  24335305.5394   24335304.6214
 -27480076.64847 -21319555.94144  21816048.9694                   21816046.1884
   3225242.48447   2595712.79345  22357583.9694                   22357583.2894
 -21979940.74647 -17083919.68045  20910038.3444                   20910035.3054
 -46077744.77346 -33172624.73443  23684207.3914                   23684204.4144
 -16843796.16447 -13035675.18745  20643288.9534                   20643285.4774
 -40266050.06647 -31330784.55945  21071215.9304                   21071210.9264
 11  8  3  2 31 30.0000000  0  7G29G10G25G12G04G05G02
  24457104.77046                  20213749.24643  24302690.8834   24302690.9774
 -27501706.38747 -21336410.29344  21811932.4534                   21811929.8484
   3077221.77347   2480371.99644  22329416.7584                   22329416.2624
 -22062344.97347 -17148130.75845  20894357.0784                   20894354.3984
 -46085084.85646 -33178344.30042  23682809.8054                   23682808.0004
 -16969765.60947 -13133833.17246  20619317.5554                   20619314.9304
 -40328739.52047 -31379633.46145  21059286.7664                   21059282.1454
 11  8  3  2 32  0.0000000  0  7G29G10G25G12G04G05G02
  24285683.03146                  20080173.94543  24270070.1484   24270070.0394
 -27522842.53147 -21352880.01244  21807910.6334                   21807907.6414
   2929703.12147   2365422.41445  22301344.3284                   22301344.1764
 -22144147.71547 -17211873.14845  20878791.4144                   20878787.6844
 -46092432.85546 -33184069.99643  23681411.4774                   23681410.0904
 -17095159.31647 -13231542.52045  20595455.7734                   20595453.2464
 -40391253.14847 -31428345.36345  21047390.9924                   21047385.8444
 11  8  3  2 32 30.0000000  0  7G29G10G25G12G04G05G02
  24114226.23846                  19946571.38343  24237443.6484   24237443.1604
 -27543487.79347 -21368967.23444  21803981.5004                   21803979.4534
   2782688.37947   2250865.49645  22273368.8594                   22273368.6604
 -22225349.32447 -17275147.11745  20863338.8594                   20863335.3754
 -46099789.87546 -33189802.73043  23680011.4694                   23680009.8984
 -17219976.18447 -13328802.39145  20571704.4454                   20571700.9144
 -40453592.44947 -31476921.41845  21035527.9224                   21035523.2154
 11  8  3  2 33  0.0000000  0  7G29G10G25G12G04G05G02
  23942733.41446                  19812940.70343  24204809.1954   24204809.2114
 -27563646.83247 -21384675.59044  21800146.1644                   21800142.9264
   2636177.54747   2136701.24644  22245488.6334                   22245488.0164
 -22305951.73847 -17337954.18445  20848000.4924                   20847997.3954
 -46107158.54346 -33195544.59043  23678610.0864                   23678608.0164
 -17344217.15647 -13425613.52346  20548061.7734                   20548058.8954
 -40515760.04347 -31525363.68445  21023697.9844                   21023693.1294
 11  8  3  2 33 30.0000000  0  7G29G10G25G12G04G05G02
  23771204.96546                  19679282.23843  24172168.3674   24172168.6214
 -27583322.46947 -21400007.23444  21796400.9694                   21796398.6214
   2490172.30147   2022930.92244  22217704.8054                   22217704.6914
 -22385955.80147 -17400295.00446  20832776.2974                   20832773.1994
 -46114539.91046 -33201296.24643  23677203.9694                   23677203.2624
 -17467881.68047 -13521975.45345  20524529.1954                   20524526.4064
 -40577757.61347 -31573673.46945  21011900.1954                   21011895.0004
 11  8  3  2 34  0.0000000  0  7G29G10G25G12G04G05G02
  23599642.64846                  19545597.44143  24139521.6254   24139520.8164
 -27602515.75847 -21414963.03544  21792749.1804                   21792745.9694
   2344675.87147   1909557.08645  22190018.1644                   22190017.3914
 -22465360.38347 -17462168.69146  20817666.0554                   20817662.9224
 -46121933.42246 -33207057.48443  23675797.9454                   23675796.4494
 -17590967.76247 -13617886.66446  20501107.1024                   20501104.0274
 -40639584.59447 -31621850.31245  21000134.9614                   21000129.4304
 11  8  3  2 34 30.0000000  0  7G29G10G25G12G04G05G02
  23428047.26645                  19411886.85943  24106866.5084   24106867.3754
 -27621230.16047 -21429545.67644  21789187.7344                   21789185.3204
   2199689.58247   1796580.78145  22162428.1484                   22162428.2384
 -22544166.41847 -17523575.98845  20802669.7424                   20802666.5514
 -46129340.68746 -33212829.35543  23674388.9224                   23674386.4964
 -17713474.91447 -13713346.75446  20477794.0944                   20477791.2544
 -40701242.36347 -31669895.31645  20988401.3204                   20988396.6134
 11  8  3  2 35  0.0000000  0  7G29G10G25G12G04G05G02
  23256418.09445                  19278149.94142  24074207.7974   24074206.9064
 -27639469.72747 -21443758.32044  21785717.0234                   21785714.0274
   2055213.96547   1684002.38745  22134934.8914                   22134935.1884
 -22622375.91847 -17584518.45345  20787787.1564                   20787784.3984
 -46136763.61346 -33218613.45343  23672975.8914                   23672974.2424
 -17835403.63347 -13808356.12146  20454592.0634                   20454589.0044
 -40762733.21547 -31717810.24645  20976700.6174                   20976695.5944
 11  8  3  2 35 30.0000000  0  7G29G10G25G12G04G05G02
  23084756.96545                  19144388.15642  24041542.2274   24041541.0904
 -27657236.10247 -21457602.25844  21782336.2274                   21782333.5124
   1911251.88347   1571824.16445  22107539.9384                   22107540.5314
 -22699987.88747 -17644995.30545  20773017.7274                   20773015.2304
 -46144201.84446 -33224409.43743  23671560.1334                   23671558.5784
 -17956752.25047 -13902913.46146  20431500.4454                   20431497.4104
 -40824057.28147 -31765595.21145  20965030.4144                   20965025.6524
 11  8  3  2 36  0.0000000  0  7G29G10G25G12G04G05G02
  22913064.30145                  19010601.81343  24008870.1174   24008869.7034
 -27674532.26247 -21471079.77744  21779045.0164                   21779042.2234
   1767804.87147   1460047.29745  22080242.6954                   22080242.7974
 -22777003.34447 -17705007.34445  20758362.2664                   20758359.2114
 -46151656.68446 -33230218.41043  23670142.5394                   23670139.8284
 -18077520.59447 -13997018.64146  20408518.6644                   20408515.5084
 -40885215.59447 -31813251.02045  20953392.2734                   20953387.8954
 11  8  3  2 36 30.0000000  0  7G29G10G25G12G04G05G02
  22741341.96545                  18876792.30543  23976191.6484   23976191.1724
 -27691359.75447 -21484192.09444  21775842.7664                   21775839.8164
   1624875.65247   1348673.90645  22053044.1484                   22053044.2974
 -22853421.09447 -17764553.62945  20743820.6024                   20743817.1094
 -46159128.00846 -33236040.20343  23668719.9844                   23668718.1374
 -18197706.64147 -14090670.07846  20385648.3204                   20385645.0274
 -40946208.48847 -31860777.93045  20941785.8524                   20941780.9884
 11  8  3  2 37  0.0000000  0  7G29G10G25G12G04G05G02
  22569589.70746                  18742959.54743  23943507.7344   23943507.6914
 -27707722.03147 -21496941.93444  21772729.2504                   21772726.1024
   1482465.21147   1237704.78545  22025944.2974                   22025943.8364
 -22929243.79747 -17823636.25446  20729391.9144                   20729388.7384
 -46166617.32846 -33241876.02043  23667295.1094                   23667293.6804
 -18317310.71547 -14183868.03946  20362888.0944                   20362884.6094
 -41007037.53947 -31908177.16845  20930210.5164                   20930206.1214
 11  8  3  2 37 30.0000000  0  7G29G10G25G12G04G05G02
  22397808.94146                  18609104.50443  23910819.0234   23910818.7194
 -27723621.65647 -21509331.25044  21769703.1174                   21769700.6884
   1340575.62947   1127141.50445  21998943.7274                   21998943.9264
 -23004471.23847 -17882255.03145  20715076.3364                   20715073.5984
 -46174124.89546 -33247726.07043  23665865.7584                   23665864.1254
 -18436331.85247 -14276611.75046  20340238.8204                   20340236.1294
 -41067703.34447 -31955449.20745  20918666.1174                   20918661.4924
 11  8  3  2 38  0.0000000  0  7G29G10G25G12G04G05G02
  22225999.66846                  18475227.29743  23878125.1954   23878124.4454
 -27739061.91847 -21521362.60544  21766764.8054                   21766762.0594
   1199207.93847   1016984.90645  21972042.5004                   21972041.8594
 -23079104.33647 -17940410.68045  20700874.1484                   20700871.4264
 -46181652.60946 -33253591.81643  23664433.9384                   23664432.0944
 -18554770.01647 -14368901.19946  20317701.2734                   20317698.1684
 -41128207.87547 -32002595.57445  20907152.6954                   20907147.3674
 11  8  3  2 38 30.0000000  0  7G29G10G25G12G04G05G02
  22054163.61746                  18341329.21943  23845424.8444   23845424.4884
 -27754044.39147 -21533037.25844  21763913.5784                   21763911.2544
   1058364.89847    907237.12145  21945240.5084                   21945240.3874
 -23153143.00447 -17998103.14145  20686785.4534                   20686782.3984
 -46189199.94146 -33259472.84843  23662996.6414                   23662995.8284
 -18672623.53547 -14460735.09446  20295274.4694                   20295271.3594
 -41188550.50847 -32049615.79745  20895669.1724                   20895664.9224
 11  8  3  2 39  0.0000000  0  7G29G10G25G12G04G05G02
  21882301.99246                  18207411.22743  23812720.5474   23812720.9384
 -27768571.90247 -21544357.37944  21761149.6024                   21761146.8324
    918048.37947    797899.62145  21918539.6954                   21918539.4264
 -23226587.78947 -18055332.84045  20672809.3914                   20672806.1954
 -46196767.41046 -33265369.58643  23661556.6884                   23661555.8714
 -18789891.71547 -14552112.85946  20272958.8284                   20272955.7384
 -41248732.17647 -32096510.59045  20884217.8594                   20884212.8954
 11  8  3  2 39 30.0000000  0  7G29G10G25G12G04G05G02
  21710416.25046                  18073474.39143  23780011.5944   23780011.0864
 -27782646.95347 -21555324.94944  21758471.5634                   21758468.3714
    778260.44547    688973.99645  21891938.3594                   21891938.1414
 -23299438.48847 -18112099.60945  20658946.4384                   20658943.3984
 -46204355.35946 -33271282.29743  23660112.8674                   23660111.8014
 -18906573.98047 -14643034.07846  20250755.0004                   20250752.0394
 -41308753.91447 -32143280.75445  20872795.6174                   20872790.8204
 11  8  3  2 40  0.0000000  0  7G29G10G25G12G04G05G02
  23113931.14146                  19167122.48043  24047092.6024   24047091.9224
 -26220853.33647 -20338342.89844  22055671.2344                   22055667.8164
   2214425.89847   1808064.02745  22165231.6484                   22165231.7274
 -21796275.02347 -16940803.39545  20944988.7344                   20944985.4264
 -44636545.87546 -32049612.56643  23958457.4614                   23958456.2664
 -17447247.05947 -13505896.18446  20528455.3594                   20528452.3404
 -39793195.65647 -30962326.24645  21161198.8364                   21161192.1294
 11  8  3  2 40 30.0000000  0  7G29G10G25G12G04G05G02
  22941996.64846                  19033147.69543  24014373.9144   24014373.6334
 -26234034.45347 -20348613.89844  22053162.4304                   22053159.4494
   2075697.28947   1699963.87145  22138832.4304                   22138831.9454
 -21867942.98047 -16996648.55545  20931350.6094                   20931347.4614
 -44644179.86746 -32055561.17243  23957005.3284                   23957003.7034
 -17562758.05947 -13595904.73046  20506474.7114                   20506471.7074
 -39852902.26647 -31008850.86745  21149834.4844                   21149829.4884
 11  8  3  2 41  0.0000000  0  7G29G10G25G12G04G05G02
  22770039.44946                  18899155.22343  23981651.4064   23981650.6294
 -26246771.98047 -20358539.23044  22050738.4454                   22050735.6174
   1937501.57847   1592278.94945  22112534.8204                   22112534.8094
 -21939020.21147 -17052033.40245  20917824.9844                   20917822.4104
 -44651837.16446 -32061527.89343  23955547.7974                   23955546.7384
 -17677681.78547 -13685455.66446  20484605.5394                   20484602.0944
 -39912452.20347 -31055253.40245  21138502.8834                   21138498.6994
 11  8  3  2 41 30.0000000  0  7G29G10G25G12G04G05G02
  22598058.42646                  18765144.13343  23948924.2194   23948924.2234
 -26259071.19947 -20368123.03944  22048398.0864                   22048394.9144
   1799837.78547   1485008.51645  22086338.2034                   22086337.9614
 -22009509.67647 -17106960.25845  20904411.6414                   20904408.7934
 -44659520.89546 -32067515.21943  23954086.2114                   23954084.3094
 -17792020.55947 -13774550.77346  20462847.2034                   20462844.0164
 -39971848.44947 -31101536.18445  21127200.2584                   21127195.6174
 11  8  3  2 42  0.0000000  0  7G29G10G25G12G04G05G02
  22426056.26646                  18631116.62143  23916193.7424   23916192.7504
 -26270933.21147 -20377366.15644  22046141.5084                   22046138.1054
   1662709.32447   1378155.21145  22060243.0784                   22060243.4384
 -22079410.33247 -17161428.29746  20891109.8134                   20891106.3794
 -44667230.23446 -32073522.48443  23952618.3444                   23952616.6334
 -17905772.21547 -13863188.39846  20441200.6954                   20441197.8324
 -40031090.32847 -31147698.68445  21115927.6024                   21115921.8524
 11  8  3  2 42 30.0000000  0  7G29G10G25G12G04G05G02
  22254035.59046                  18497074.69143  23883458.6954   23883458.4384
 -26282358.92647 -20386269.30544  22043967.0784                   22043963.8524
   1526119.63347   1271721.74245  22034251.0944                   22034251.3204
 -22148721.03547 -17215436.63345  20877920.5234                   20877917.2774
 -44674963.64846 -32079548.51243  23951146.9064                   23951144.9884
 -18018934.43447 -13951366.73046  20419667.0704                   20419663.4344
 -40090176.80947 -31193740.08645  21104683.0704                   21104678.6134
 11  8  3  2 43  0.0000000  0  7G29G10G25G12G04G05G02
  22081995.18046                  18363017.33243  23850720.4454   23850719.8364
 -26293353.10947 -20394836.20744  22041873.8594                   22041871.1884
   1390068.14847   1165707.63745  22008361.6804                   22008360.9654
 -22217445.25447 -17268987.97745  20864842.8674                   20864839.2664
 -44682724.30446 -32085595.76243  23949669.7194                   23949669.0634
 -18131508.84847 -14039087.02746  20398244.7034                   20398241.5554
 -40149111.25047 -31239663.02745  21093468.8674                   21093463.6134
 11  8  3  2 43 30.0000000  0  7G29G10G25G12G04G05G02
  21909935.93846                  18228945.28143  23817978.6174   23817977.8244
 -26303918.76247 -20403069.17644  22039863.4844                   22039861.1334
   1254556.54747   1060114.22345  21982574.3284                   21982573.6954
 -22285583.31647 -17322082.56645  20851876.3284                   20851873.1644
 -44690512.29646 -32091664.36842  23948188.8204                   23948186.8794
 -18243495.08647 -14126349.00846  20376934.1484                   20376931.4654
 -40207894.28547 -31285467.98045  21082282.6644                   21082277.4654
 11  8  3  2 44  0.0000000  0  7G29G10G25G12G04G05G02
  21737858.82446                  18094859.32443  23785233.7114   23785232.8954
 -26314059.04747 -20410970.71144  22037934.6334                   22037931.9694
   1119585.93447    954942.35945  21956890.2584                   21956889.9924
 -22353136.48447 -17374721.39545  20839021.3054                   20839018.2544
 -44698328.98846 -32097755.30543  23946701.3834                   23946699.2854
 -18354893.20347 -14213152.71946  20355736.0004                   20355732.9614
 -40266526.96547 -31331155.78145  21071125.4304                   21071120.1414
 11  8  3  2 44 30.0000000  0  7G29G10G25G12G04G05G02
  21565764.18046                  17960759.65243  23752485.4304   23752484.1994
 -26323777.24647 -20418543.35244  22036085.0394                   22036082.2034
    985157.39847    850192.89145  21931309.2814                   21931309.1024
 -22420106.39547 -17426905.73845  20826277.8834                   20826274.3834
 -44706175.29346 -32103869.28543  23945207.2584                   23945206.1094
 -18465703.12147 -14299498.09446  20334649.6024                   20334646.4884
 -40325010.60247 -31376727.44145  21059996.0084                   21059990.9224
 11  8  3  2 45  0.0000000  0  7G29G10G25G12G04G05G02
  21393654.92646                  17826648.62543  23719733.1174   23719732.5824
 -26333074.10547 -20425787.66044  22034316.4144                   22034313.5004
    851274.32847    745868.44945  21905832.1024                   21905831.7814
 -22486491.88347 -17478634.68745  20813645.3054                   20813641.5984
 -44714049.81646 -32110005.27742  23943709.3914                   23943707.9964
 -18575922.95747 -14385383.65646  20313675.3914                   20313672.5824
 -40383344.41847 -31422182.34845  21048895.1564                   21048890.4064
 11  8  3  2 45 30.0000000  0  7G29G10G25G12G04G05G02
  21221531.12546                  17692526.27743  23686979.5554   23686978.9384
 -26341953.23447 -20432706.47344  22032625.6954                   22032624.2384
    717937.24247    641969.46145  21880458.8364                   21880458.5744
 -22552294.68447 -17529909.59445  20801123.2194                   20801120.0164
 -44721954.31246 -32116164.63343  23942204.6954                   23942203.4384
 -18685553.31647 -14470809.89546  20292813.7734                   20292810.7424
 -40441529.81647 -31467521.61745  21037823.3594                   21037817.8324
 11  8  3  2 46  0.0000000  0  7G29G10G25G12G04G05G02
  21049392.94546                  17558392.67243  23654222.2814   23654221.2034
 -26350418.45347 -20439302.75844  22031015.4614                   22031013.1484
    585146.83647    538496.44945  21855189.7584                   21855189.9064
 -22617517.15647 -17580732.29745  20788711.6884                   20788708.5634
 -44729890.30146 -32122348.52743  23940694.9224                   23940693.2774
 -18794594.73847 -14555777.21146  20272063.5864                   20272060.6644
 -40499568.60247 -31512746.64145  21026778.3444                   21026773.5234
 11  8  3  2 46 30.0000000  0  7G29G10G25G12G04G05G02
  20877242.94946                  17424249.89143  23621463.7114   23621461.5594
 -26358471.23847 -20445577.64844  22029482.8134                   22029479.7274
    452905.97747    435451.65245  21830025.2504                   21830024.7274
 -22682158.31247 -17631102.02745  20776410.7894                   20776407.4844
 -44737856.53946 -32128555.96143  23939178.1094                   23939177.4654
 -18903045.65247 -14640284.39546  20251426.1254                   20251422.7704
 -40557460.32047 -31557857.05545  21015762.3444                   21015757.2034
 11  8  3  2 47  0.0000000  0  7G29G10G25G12G04G05G02
  20705080.16446                  17290097.14543  23588702.2814   23588700.2854
 -26366116.60947 -20451535.09044  22028027.5164                   22028025.7114
    321213.92247    332834.48445  21804964.3754                   21804964.6024
 -22746221.27047 -17681021.21945  20764219.9304                   20764216.9344
 -44745855.96146 -32134789.27343  23937656.6484                   23937655.1174
 -19010907.86747 -14724332.85946  20230900.4924                   20230897.5474
 -40615207.84847 -31602855.11745  21004773.3284                   21004768.1994
 11  8  3  2 47 30.0000000  0  7G29G10G25G12G04G05G02
  20532904.84846                  17155934.62143  23555938.2814   23555936.6804
 -26373357.46547 -20457177.30544  22026650.4144                   22026647.4924
    190072.05547    230646.04745  21780009.6884                   21780008.8754
 -22809707.39847 -17730490.91845  20752139.1644                   20752135.8364
 -44753888.97746 -32141048.80943  23936127.9144                   23936126.3754
 -19118181.25847 -14807922.50046  20210487.3364                   20210484.1374
 -40672811.79347 -31647741.29345  20993811.3834                   20993806.8244
 11  8  3  2 48  0.0000000  0  7G29G10G25G12G04G05G02
  20360720.57846                  17021765.11343  23523172.2734   23523171.2424
 -26380195.19147 -20462505.39544  22025349.2344                   22025345.9734
     59483.32047    128888.61745  21755159.5634                   21755158.6134
 -22872615.95747 -17779510.57845  20740168.1414                   20740164.6374
 -44761954.77046 -32147333.89143  23934593.2504                   23934591.6374
 -19224864.07447 -14891051.94146  20190186.0004                   20190183.1454
 -40730271.48847 -31692515.07045  20982877.4534                   20982872.3404
 11  8  3  2 48 30.0000000  0  7G29G10G25G12G04G05G02
  20188529.41846                  16887590.28143  23490405.5394   23490404.1134
 -26386631.04347 -20467520.36344  22024124.1954                   22024121.7704
    -70549.53547     27564.32845  21730414.7504                   21730414.2464
 -22934946.55947 -17828079.87145  20728307.0314                   20728303.7154
 -44770052.57046 -32153643.87543  23933052.4844                   23933050.9144
 -19330954.72347 -14973719.97346  20169997.7424                   20169994.6454
 -40787586.36747 -31737176.00445  20971970.7114                   20971965.6294
 11  8  3  2 49  0.0000000  0  7G29G10G25G12G04G05G02
  21591755.95046                  17981013.66543  23757430.4304   23757429.1954
 -24817249.99247 -19244626.01244  22322767.7584                   22322764.6994
   1375396.75447   1154275.75445  22005569.6644                   22005568.8324
 -21421281.43047 -16648600.54345  21016347.8134                   21016344.5514
 -43202764.82846 -30932380.69543  24231297.2734                   24231295.7624
 -17861032.09047 -13828325.69946  20449714.4924                   20449711.4384
 -39269337.68447 -30554125.06245  21260884.0084                   21260878.6764
 11  8  3  2 49 30.0000000  0  7G29G10G25G12G04G05G02
  21419550.73846                  17846827.87143  23724662.0234   23724659.6054
 -24822894.61747 -19249024.43044  22321693.0944                   22321690.2624
   1246475.76247   1053817.85945  21981036.1954                   21981036.1174
 -21482464.48447 -16696275.65245  21004704.7274                   21004701.8324
 -43210931.68246 -30938744.54743  24229743.8674                   24229742.1024
 -17965942.35947 -13910073.94146  20429751.0314                   20429747.9614
 -39326369.32847 -30598565.29345  21250031.3134                   21250026.1884
 11  8  3  2 50  0.0000000  0  7G29G10G25G12G04G05G02
  21247338.28146                  17712636.47743  23691889.2664   23691889.1484
 -24828149.61347 -19253119.21144  22320692.8134                   22320690.6994
   1118110.92647    953793.33645  21956609.6564                   21956609.5164
 -21543076.81247 -16743506.03945  20993170.5234                   20993167.2624
 -43219135.60946 -30945137.21943  24228182.5474                   24228180.6414
 -18070263.92647 -13991363.46546  20409898.8134                   20409896.1804
 -39383261.84447 -30642897.12945  21239205.1334                   21239199.5664
 11  8  3  2 50 30.0000000  0  7G29G10G25G12G04G05G02
  21075121.50046                  17578441.70343  23659117.9534   23659116.9414
 -24833015.98047 -19256911.18044  22319767.6644                   22319764.6954
    990305.39547    854204.63745  21932288.5314                   21932288.2894
 -21603117.25847 -16790290.79745  20981745.3754                   20981742.4304
 -43227375.21546 -30951557.70743  24226615.0234                   24226612.6684
 -18173994.89547 -14072192.77346  20390159.5944                   20390156.8524
 -39440014.95347 -30687120.32445  21228405.1564                   21228399.9344
 11  8  3  2 51  0.0000000  0  7G29G10G25G12G04G05G02
  20902901.51646                  17444244.42643  23626345.1334   23626344.1054
 -24837496.80946 -19260402.74644  22318915.1954                   22318912.8134
    863060.44147    755052.74645  21908074.8984                   21908074.4494
 -21662588.04747 -16836631.68745  20970428.7194                   20970425.4654
 -43235650.92246 -30958006.30142  24225040.6414                   24225038.0554
 -18277135.44547 -14152562.01646  20370532.7194                   20370529.7704
 -39496628.46147 -30731234.74645  21217632.0474                   21217626.6804
 11  8  3  2 51 30.0000000  0  7G29G10G25G12G04G05G02
  20730678.73046                  17310044.93043  23593572.6644   23593571.2424
 -24841596.06247 -19263596.96144  22318134.7584                   22318132.3834
    736376.32847    656337.88345  21883967.6094                   21883967.1884
 -21721491.01647 -16882530.10245  20959219.3444                   20959216.3404
 -43243964.26646 -30964484.27042  24223457.5394                   24223455.5704
 -18379686.40247 -14232471.82846  20351018.2424                   20351014.8714
 -39553104.57047 -30775242.10245  21206884.4614                   21206879.3404
 11  8  3  2 52  0.0000000  0  7G29G10G25G12G04G05G02
  20558454.25046                  17175844.16043  23560799.7894   23560798.1564
 -24845316.13347 -19266495.71144  22317426.6954                   22317424.0084
    610254.53147    558061.18845  21859967.1644                   21859967.0394
 -21779827.15247 -16927986.83645  20948118.6094                   20948115.6054
 -43252315.59446 -30970991.76242  24221867.5164                   24221866.6294
 -18481647.86747 -14311922.29746  20331615.3364                   20331612.2854
 -39609443.68047 -30819142.69945  21196163.3284                   21196158.6024
 11  8  3  2 52 30.0000000  0  7G29G10G25G12G04G05G02
  20386229.03946                  17041642.77343  23528026.2344   23528024.6604
 -24848660.07447 -19269101.40244  22316789.9924                   22316787.7624
    484695.92647    460223.33645  21836074.4064                   21836074.2424
 -21837597.83247 -16973002.95345  20937125.2584                   20937121.8134
 -43260705.52746 -30977529.37942  24220271.9064                   24220270.1884
 -18583019.92247 -14390913.49246  20312324.5314                   20312321.8954
 -39665647.02747 -30862937.52045  21185469.0784                   21185463.8054
 11  8  3  2 53  0.0000000  0  7G29G10G25G12G04G05G02
  20214005.62146                  16907442.78143  23495252.6024   23495251.2344
 -24851629.56647 -19271415.25444  22316225.1724                   22316221.6914
    359703.00847    362826.29745  21812289.1094                   21812288.5744
 -21894802.73447 -17017578.20745  20926239.1254                   20926235.9414
 -43269133.24646 -30984096.43742  24218667.8134                   24218666.1054
 -18683801.39847 -14469444.50046  20293146.5554                   20293143.4344
 -39721713.68747 -30906625.82045  21174799.4774                   21174794.7074
 11  8  3  2 53 30.0000000  0  7G29G10G25G12G04G05G02
  20041782.91046                  16773243.39843  23462479.7344   23462478.0234
 -24854230.18747 -19273441.72744  22315730.2034                   22315727.3984
    235274.48847    265869.02045  21788611.1024                   21788610.4304
 -21951446.36347 -17061716.10245  20915460.0234                   20915457.5044
 -43277601.56246 -30990695.14142  24217055.6414                   24217054.6914
 -18783994.90247 -14547517.34846  20274080.6174                   20274077.8164
 -39777646.85947 -30950210.11345  21164155.7424                   21164150.7934
 11  8  3  2 54  0.0000000  0  7G29G10G25G12G04G05G02
  19869563.75046                  16639046.68043  23429707.9454   23429705.0704
 -24856463.02046 -19275181.60244  22315305.6174                   22315302.5864
    111413.08247    169353.67645  21765041.2734                   21765040.4224
 -22007528.22747 -17105416.27045  20904788.4924                   20904785.3134
 -43286109.25846 -30997324.52743  24215437.3914                   24215436.9384
 -18883598.93447 -14625130.85946  20255126.1954                   20255123.0744
 -39833445.90647 -30993689.89145  21153537.7894                   21153532.5554
 11  8  3  2 54 30.0000000  0  7G29G10G25G12G04G05G02
  19697347.21946                  16504852.08243  23396935.7034   23396934.2424
 -24858332.58647 -19276638.39844  22314949.7974                   22314946.5784
    -11881.65247     73279.88745  21741578.9614                   21741577.9614
 -22063051.02747 -17148680.79745  20894222.7114                   20894219.7584
 -43294658.30946 -31003986.14842  24213810.7424                   24213809.4414
 -18982615.53547 -14702286.63346  20236284.8054                   20236281.3794
 -39889112.94947 -31037066.80145  21142944.4384                   21142939.8284
 11  8  3  2 55  0.0000000  0  7G29G10G25G12G04G05G02
  19525134.77046                  16370660.62543  23364164.6954   23364163.4534
 -24859842.03547 -19277814.59444  22314662.7114                   22314659.7154
   -134608.87547    -22351.68445  21718225.0164                   21718223.8754
 -22118016.90247 -17191511.35545  20883763.1884                   20883760.0554
 -43303249.75846 -31010680.73842  24212176.1414                   24212174.7584
 -19081044.50047 -14778984.51246  20217553.5084                   20217551.0984
 -39944648.75047 -31080341.44145  21132376.2974                   21132371.3054
 11  8  3  2 55 30.0000000  0  7G29G10G25G12G04G05G02
  19352930.26246                  16236475.37943  23331395.8914   23331393.7234
 -24860991.91447 -19278710.59044  22314443.4304                   22314440.5474
   -256764.97347   -117538.20745  21694979.0864                   21694978.6604
 -22172424.32447 -17233906.77045  20873410.1414                   20873406.6604
 -43311881.06246 -31017406.43442  24210533.3914                   24210531.5044
 -19178883.82847 -14855222.93446  20198935.6954                   20198932.6094
 -40000051.36747 -31123512.30145  21121833.7344                   21121828.6174
 11  8  3  2 56  0.0000000  0  7G29G10G25G12G04G05G02
  19180736.21946                  16102298.25843  23298627.5474   23298626.1884
 -24861783.05546 -19279327.06644  22314292.7664                   22314290.3364
   -378347.15647   -212277.54345  21671842.9694                   21671842.0744
 -22226272.83647 -17275866.65245  20863163.0084                   20863159.8914
 -43320551.02046 -31024162.27043  24208883.8364                   24208882.4924
 -19276131.95347 -14931000.68446  20180429.7974                   20180426.8524
 -40055320.11747 -31166578.85945  21111316.5314                   21111311.4264
 11  8  3  2 56 30.0000000  0  8G29G10G26G25G12G04G05G02
  19008553.52046                  15968129.99243  23265862.5234   23265860.1254
 -24862219.26647 -19279666.96944  22314210.2194                   22314207.3484
  32818213.85515                  24689740.914
   -499355.21547   -306569.50845  21648815.4144                   21648815.1024
 -22279564.88347 -17317392.93445  20853021.6804                   20853018.6024
 -43329260.58246 -31030948.96942  24207225.9064                   24207225.4534
 -19372789.90647 -15006318.54746  20162036.6024                   20162033.2114
 -40110456.33247 -31209542.13345  21100824.0394                   21100819.2504
 11  8  3  2 57  0.0000000  0  8G29G10G26G25G12G04G05G02
  18836378.69946                  15833967.89543  23233097.6804   23233096.5164
 -24862307.89547 -19279736.02744  22314193.4534                   22314191.0394
  32635382.910 5                  24654948.445
   -619792.65247   -400416.82445  21625897.2814                   21625896.6174
 -22332306.49647 -17358490.30145  20842985.1564                   20842982.2854
 -43338015.11346 -31037770.66442  24205560.2424                   24205559.6414
 -19468862.83247 -15081180.54746  20143754.4384                   20143751.6214
 -40165465.05147 -31252406.05545  21090356.6334                   21090351.5784
 11  8  3  2 57 30.0000000  0  8G29G10G26G25G12G04G05G02
  20239635.40646                  16927414.77743  23500128.9844   23500127.0984
 -23286635.28147 -18051939.19144  22614034.7584                   22614032.1024
  34027858.70345                  26942476.30952  24919928.9694   24919926.3954
    835762.09847    733781.70745  21902879.9304                   21902879.7384
 -20809081.03947 -16171561.38745  21132845.0864                   21132842.3524
 -41771397.66846 -29817029.80942  24503677.9694                   24503677.3634
 -17988930.63747 -13927986.62146  20425376.4534                   20425372.9064
 -38644928.52747 -30067572.39145  21379704.8364                   21379699.6094
 11  8  3  2 58  0.0000000  0  8G29G10G26G25G12G04G05G02
  20067472.55546                  16793261.96543  23467367.9844   23467366.5164
 -23286045.41047 -18051479.53944  22614145.8284                   22614144.6644
  33844791.04345                  26799826.32442  24885092.0704   24885091.2624
    716461.02347    640819.87145  21880177.7194                   21880177.0044
 -20860733.97747 -16211810.43445  21123016.0944                   21123013.1054
 -41780250.29346 -29823927.97742  24501992.7344                   24501992.0594
 -18083841.77747 -14001943.34446  20407315.1484                   20407311.7704
 -38699692.05147 -30110245.25045  21369284.0634                   21369278.4694
 11  8  3  2 58 30.0000000  0  8G29G10G26G25G12G04G05G02
  19895320.09046                  16659117.25443  23434607.9614   23434606.7114
 -23285118.14546 -18050756.99644  22614322.5474                   22614320.0904
  33661611.62945                  26657089.21942  24850233.0394   24850233.8324
    597731.93047    548303.71945  21857584.7584                   21857583.8984
 -20911842.70747 -16251635.42645  21113290.6024                   21113287.1644
 -41789150.14546 -29830862.94542  24500298.6024                   24500298.5274
 -18178169.87547 -14075445.73446  20389364.8754                   20389361.9454
 -38754331.32047 -30152821.28945  21358886.3914                   21358881.1604
 11  8  3  2 59  0.0000000  0  8G29G10G26G25G12G04G05G02
  19723179.34046                  16524981.68444  23401851.6334   23401849.3364
 -23283856.30546 -18049773.75844  22614562.8054                   22614560.1374
  33478323.69945                  26514267.56642  24815355.0634   24815356.4414
    479575.78547    456234.02745  21835100.1954                   21835099.4224
 -20962408.24647 -16291037.14845  21103668.2584                   21103665.0044
 -41798097.65246 -29837835.07042  24498596.3834                   24498596.2234
 -18271915.52747 -14148494.28146  20371525.9774                   20371522.9694
 -38808847.32447 -30195301.27745  21348512.0084                   21348507.2974
 11  8  3  2 59 30.0000000  0  8G29G10G26G25G12G04G05G02
  19551052.20746                  16390856.71544  23369096.0004   23369094.5274
 -23282262.32046 -18048531.67643  22614865.9844                   22614862.6134
  33294930.56645                  26371363.93442  24780456.5474   24780457.2304
    361994.15247    364612.00845  21812725.0314                   21812724.2504
 -21012432.02347 -16330016.72745  21094149.2814                   21094145.9064
 -41807092.48846 -29844844.08642  24496884.3444                   24496884.5984
 -18365078.43447 -14221088.74646  20353797.4064                   20353794.6484
 -38863239.73047 -30237684.95745  21338161.4064                   21338156.5204
 11  8  3  3  0  0.0000000  0  8G29G10G26G25G12G04G05G02
  19378940.42246                  16256743.70344  23336344.6024   23336342.7464
 -23280338.67246 -18047032.74644  22615231.4534                   22615229.1334
  33111435.51645                  26228380.84842  24745540.0394   24745538.5864
    244988.16047    273438.53945  21790458.7424                   21790458.5354
 -21061915.24247 -16368575.08645  21084732.9064                   21084730.0944
 -41816134.45346 -29851889.73442  24495163.9144                   24495164.2274
 -18457658.87147 -14293229.33246  20336179.8524                   20336176.8874
 -38917508.89147 -30279972.60245  21327834.5704                   21327829.2664
 11  8  3  3  0 30.0000000  0  8G29G10G26G25G12G04G05G02
  19206847.74646                  16122645.59044  23303596.4924   23303594.5164
 -23278086.01246 -18045277.42243  22615660.4694                   22615657.3014
  32927843.93845                  26085322.52742  24710602.1484   24710602.5164
    128561.09447    182716.16045  21768303.6484                   21768303.3054
 -21110857.02747 -16406711.54345  21075419.4064                   21075416.4344
 -41825221.42646 -29858970.52743  24493435.8914                   24493435.0234
 -18549654.63347 -14364914.32446  20318673.8524                   20318670.6174
 -38971653.07847 -30322162.87945  21317531.3134                   21317526.3794
 11  8  3  3  1  0.0000000  0  8G29G10G26G25G12G04G05G02
  19034774.76646                  15988562.82844  23270851.4224   23270850.1254
 -23275507.89146 -18043268.51643  22616151.4384                   22616148.4064
  32744157.97745                  25942190.70342  24675648.2734   24675648.5274
     12713.05547     92444.99645  21746259.1564                   21746258.2624
 -21159259.51247 -16444427.77745  21066208.8914                   21066205.8244
 -41834354.71946 -29866087.43442  24491697.3754                   24491696.7974
 -18641067.09047 -14436144.79746  20301278.9304                   20301275.1214
 -39025673.43747 -30364256.65245  21307251.1954                   21307246.5084
 11  8  3  3  1 30.0000000  0  8G29G10G26G25G12G04G05G02
  18862720.99646                  15854495.00044  23238110.9924   23238109.4924
 -23272608.73046 -18041009.41843  22616702.6484                   22616699.9534
  32560378.86745                  25798986.20342  24640676.1954   24640676.8984
   -102556.77747      2624.37545  21724323.6254                   21724322.6524
 -21207126.33647 -16481726.60245  21057100.2344                   21057097.1214
 -41843535.97346 -29873241.68443  24489950.3444                   24489949.5084
 -18731898.16447 -14506922.24646  20283993.9774                   20283990.6914
 -39079572.32047 -30406255.77045  21296995.1094                   21296989.9384
 11  8  3  3  2  0.0000000  0  8G29G10G26G25G12G04G05G02
  18690690.11346                  15720445.06343  23205373.9694   23205372.6214
 -23269389.77046 -18038501.15243  22617315.2664                   22617312.6604
  32376511.55945                  25655713.14142  24605686.6954   24605686.4614
   -217245.88347    -86743.73445  21702499.0944                   21702498.0314
 -21254457.27347 -16518607.85245  21048093.1254                   21048090.3094
 -41852763.84446 -29880432.25442  24488194.4384                   24488193.4064
 -18822147.10547 -14577246.08646  20266820.1254                   20266816.9884
 -39133348.29747 -30448159.12945  21286761.5634                   21286756.6564
 11  8  3  3  2 30.0000000  0  8G29G10G26G25G12G04G05G02
  18518683.18046                  15586413.73043  23172642.6174   23172640.8054
 -23265854.21546 -18035746.18744  22617988.2114                   22617985.4224
  32192558.89845                  25512373.52742  24570681.4534   24570681.6724
   -331353.56247   -175658.78545  21680784.9454                   21680784.2664
 -21301254.00047 -16555072.84045  21039188.3054                   21039184.8834
 -41862038.46546 -29887659.21942  24486429.6174                   24486428.8874
 -18911813.77347 -14647116.20346  20249757.5554                   20249754.7624
 -39187002.14847 -30489967.30945  21276551.6564                   21276546.9654
 11  8  3  3  3  0.0000000  0  8G29G10G26G25G12G04G05G02
  18346701.47746                  15452402.09443  23139915.5314   23139914.1334
 -23262004.73846 -18032746.58243  22618721.2584                   22618717.8874
  32008523.68845                  25368969.53942  24535660.5004   24535661.5634
   -444879.14147   -264120.24645  21659181.9774                   21659181.1174
 -21347518.56647 -16591123.16045  21030384.1334                   21030381.6684
 -41871360.37946 -29894923.05542  24484654.2504                   24484654.7584
 -19000899.22747 -14716533.42646  20232804.4304                   20232801.6994
 -39240534.59447 -30531680.90245  21266364.9064                   21266359.3364
 11  8  3  3  3 30.0000000  0  8G29G10G26G25G12G04G05G02
  18174745.14146                  15318410.25043  23107193.2344   23107190.5824
 -23257845.69546 -18029505.77043  22619512.4844                   22619509.8014
  31824407.54745                  25225502.35942  24500624.9304   24500625.2424
   -557823.53147   -352128.84045  21637689.2344                   21637688.0784
 -21393253.78947 -16626761.00445  21021681.1174                   21021678.1954
 -41880731.37945 -29902225.17642  24482872.4614                   24482872.5084
 -19089405.41447 -14785499.27046  20215962.4454                   20215959.1524
 -39293947.57047 -30573301.41045  21256200.4534                   21256195.5204
 11  8  3  3  4  0.0000000  0  8G29G10G26G25G12G04G05G02
  18002816.16046                  15184439.67243  23074476.0864   23074474.1994
 -23253379.42246 -18026025.57044  22620362.5704                   22620359.2974
  31640214.20745                  25081975.15242  24465573.5004   24465574.7074
   -670185.21947   -439683.39145  21616307.0474                   21616306.5944
 -21438461.49647 -16661987.78945  21013078.0704                   21013075.2074
 -41890150.95746 -29909565.08242  24481079.8444                   24481079.7424
 -19177332.29347 -14854013.71146  20199230.6884                   20199227.5474
 -39347240.98047 -30614828.73045  21246059.1564                   21246054.1884
 11  8  3  3  4 30.0000000  0  8G29G10G26G25G12G04G05G02
  17830916.38746                  15050491.88743  23041764.7734   23041762.9454
 -23248608.24246 -18022307.77743  22621269.7114                   22621267.4654
  31455947.10545                  24938390.51242  24430510.1954   24430509.7074
   -781963.05147   -526782.97345  21595036.1414                   21595035.9694
 -21483142.16447 -16696803.90245  21004576.1174                   21004572.9064
 -41899618.62946 -29916942.44142  24479277.8594                   24479277.6994
 -19264680.00847 -14922076.85546  20182609.1724                   20182606.1524
 -39400414.57447 -30656262.69145  21235940.1644                   21235935.4144
 11  8  3  3  5  0.0000000  0  8G29G10G26G25G12G04G05G02
  17659049.50446                  14916569.70343  23009059.5704   23009057.9654
 -23243532.98846 -18018353.05143  22622236.4924                   22622233.0234
  31271611.22345                  24794752.29742  24395430.9064   24395431.7304
   -893154.43447   -613425.59845  21573877.6414                   21573877.1724
 -21527295.93447 -16731209.44145  20996173.6564                   20996170.6564
 -41909132.78546 -29924356.08642  24477468.3134                   24477467.3204
 -19351447.16047 -14989687.60946  20166098.1414                   20166094.9694
 -39453467.20347 -30697602.39845  21225844.6884                   21225839.8594
 11  8  3  3  5 30.0000000  0  8G29G10G26G25G12G04G05G02
  17487214.77746                  14782672.60244  22976360.3284   22976358.2194
 -23238158.68746 -18014165.30943  22623259.0474                   22623255.9414
  31087207.85545                  24651061.39142  24360340.3444   24360340.1484
  -1003760.60547   -699612.20345  21552829.7194                   21552829.1644
 -21570926.52347 -16765207.30945  20987871.1724                   20987867.9844
 -41918695.48846 -29931807.57442  24475647.8754                   24475647.5004
 -19437636.40647 -15056848.04746  20149697.0234                   20149693.5314
 -39506400.87547 -30738849.40645  21215771.9144                   21215766.8134
 11  8  3  3  6  0.0000000  0  8G29G10G26G25G12G04G05G02
  17315415.41446                  14648803.05944  22943668.3204   22943666.2274
 -23232486.52346 -18009745.43744  22624338.4694                   22624335.6604
  30902741.37546                  24507321.39842  24325237.6094   24325237.8634
  -1113779.47347   -785341.17245  21531894.2504                   21531893.2194
 -21614034.19547 -16798797.69945  20979668.0394                   20979665.3094
 -41928305.60546 -29939296.00842  24473818.4304                   24473818.7304
 -19523246.78147 -15123557.41846  20133406.0704                   20133402.4144
 -39559214.67247 -30780003.01645  21205721.6884                   21205717.1174
 11  8  3  3  6 30.0000000  0  8G29G10G26G25G12G04G05G02
  18719077.80946                  15742566.06344  23210776.2344   23210773.9104
 -21651100.38346 -16777496.49243  22925265.8054                   22925263.4964
  32293640.62146                  25591139.07042  24589916.4144   24589915.9144
    352212.34447    356990.12945  21810862.8524                   21810862.2194
 -20081199.36747 -15604380.95745  21271356.7894                   21271353.6174
 -40362543.54746 -28719221.65642  24771773.9774                   24771773.7234
 -18032856.71547 -13962214.49246  20417017.1414                   20417014.3054
 -38036488.36347 -29593463.03945  21495486.9694                   21495481.7664
 11  8  3  3  7  0.0000000  0  8G29G10G26G25G12G04G05G02
  18547349.60546                  15608751.96944  23178096.9064   23178095.3714
 -21644845.39546 -16772622.48843  22926456.9694                   22926453.4804
  32109053.72746                  25447305.17642  24554791.5394   24554790.4104
    243365.59847    272174.50445  21790150.3204                   21790149.3164
 -20123270.97747 -15637164.02745  21263351.0944                   21263348.0704
 -40372252.72746 -28726787.30542  24769926.1954                   24769926.5634
 -18117315.63347 -14028026.62146  20400945.0314                   20400941.7034
 -38089068.44547 -29634434.52745  21485481.5944                   21485476.6524
 11  8  3  3  7 30.0000000  0  8G29G10G26G25G12G04G05G02
  18375658.77746                  15474967.02344  23145425.7344   23145423.6334
 -21638303.45346 -16767524.87543  22927701.3674                   22927697.7664
  31924410.75046                  25303427.56642  24519654.7974   24519653.6524
    135105.57847    187816.05945  21769549.0394                   21769548.4734
 -20164827.96147 -15669546.10945  21255442.7894                   21255439.6414
 -40382012.01646 -28734391.86342  24768069.0164                   24768069.7624
 -18201200.16047 -14093391.17646  20384982.8754                   20384979.2034
 -38141532.38747 -29675315.52045  21475497.9144                   21475492.7584
 11  8  3  3  8  0.0000000  0  8G29G10G26G25G12G04G05G02
  18204005.11346                  15341211.00844  23112760.7034   23112758.2544
 -21631479.30546 -16762207.34843  22928999.1804                   22928996.4534
  31739712.92246                  25159507.22342  24484507.9224   24484506.8674
     27430.63347    103913.52045  21749059.5704                   21749058.1844
 -20205873.61747 -15701529.74245  21247631.6804                   21247628.9414
 -40391823.85246 -28742037.51642  24766201.9694                   24766202.5904
 -18284513.35247 -14158310.53546  20369128.8284                   20369125.1884
 -38193882.74247 -29716108.00045  21465535.8204                   21465530.3444
 11  8  3  3  8 30.0000000  0  7G29G10G26G25G12G05G02
  18032393.73846                  15207487.95344  23080104.0234   23080102.1954
 -21624372.27746 -16756669.43743  22930351.6484                   22930348.6024
  31554966.71546                  25015549.20342  24449351.7424   24449350.2854
    -79655.25847     20469.98845  21728681.6174                   21728680.5434
 -20246406.57447 -15733113.87145  21239919.1954                   21239915.9694
 -18367252.44147 -14222782.53946  20353384.0234                   20353380.3554
 -38246116.45747 -29756809.59445  21455596.3524                   21455591.3134
 11  8  3  3  9  0.0000000  0  7G29G10G26G25G12G05G02
  17860824.76646                  15073797.94544  23047455.8834   23047453.5394
 -21616986.57046 -16750914.33643  22931757.6094                   22931754.8404
  31370174.50045                  24871555.30942  24414187.0234   24414186.2194
   -186152.71947    -62515.03145  21708415.7894                   21708414.7934
 -20286429.76247 -15764300.78145  21232303.0944                   21232299.6214
 -18449419.30947 -14286808.65246  20337747.7344                   20337744.3554
 -38298234.77747 -29797421.26245  21445678.6644                   21445673.3834
 11  8  3  3  9 30.0000000  0  7G29G10G26G25G12G05G02
  17689301.50446                  14940143.55544  23014815.2274   23014814.0744
 -21609323.64546 -16744943.24243  22933215.6254                   22933212.6134
  31185340.66845                  24727529.06342  24379014.0004   24379013.6174
   -292059.75047   -145039.98845  21688262.0084                   21688261.1294
 -20325943.93447 -15795091.04745  21224783.6804                   21224780.1414
 -18531012.98847 -14350388.13346  20322221.3674                   20322217.9614
 -38350237.17647 -29837942.60945  21435782.8054                   21435777.3674
 11  8  3  3 10  0.0000000  0  7G29G10G26G25G12G05G02
  17517829.21546                  14806528.84443  22982185.1724   22982183.1294
 -21601382.16846 -16738755.06243  22934727.1174                   22934724.2194
  31000472.49645                  24583475.93842  24343835.2424   24343834.5394
   -397372.07447   -227101.53145  21668221.6724                   21668221.3444
 -20364947.42647 -15825483.38745  21217361.6254                   21217358.3134
 -18612030.70347 -14413518.80946  20306803.4694                   20306801.0274
 -38402119.81647 -29878370.63745  21425909.5634                   21425905.0514
 11  8  3  3 10 30.0000000  0  7G29G10G26G25G12G05G02
  17346411.72346                  14672956.86344  22949565.5784   22949563.5234
 -21593163.41846 -16732350.86743  22936290.1804                   22936287.9804
  30815574.93045                  24439399.97342  24308649.5164   24308648.8054
   -502087.32447   -308697.80545  21648294.9844                   21648294.6484
 -20403439.73847 -15855477.40245  21210036.2424                   21210033.4494
 -18692471.22347 -14476199.71946  20291496.8444                   20291493.3794
 -38453880.89147 -29918703.93745  21416060.1564                   21416054.5204
 11  8  3  3 11  0.0000000  0  7G29G10G26G25G12G05G02
  17175047.15646                  14539426.08243  22916955.8444   22916953.7234
 -21584673.32846 -16725735.22343  22937906.6564                   22937903.5984
  30630647.96145                  24295301.12942  24273459.3134   24273457.6724
   -606208.60947   -389831.26645  21628481.1804                   21628480.6844
 -20441426.38347 -15885077.39545  21202807.8914                   21202804.8674
 -18772338.87147 -14538434.23446  20276298.3444                   20276295.2774
 -38505524.50447 -29958945.71545  21406232.6024                   21406227.4024
 11  8  3  3 11 30.0000000  0  7G29G10G26G25G12G05G02
  17003735.33046                  14405936.42744  22884356.8594   22884354.0354
 -21575916.48846 -16718911.72343  22939572.4924                   22939570.5314
  30445693.15246                  24151180.51642  24238263.6174   24238262.3134
   -709737.11347   -470502.82445  21608780.7894                   21608780.1844
 -20478911.09447 -15914286.27045  21195674.7894                   21195671.5394
 -18851636.25447 -14600224.39846  20261208.7584                   20261205.2774
 -38557052.78147 -29999097.60945  21396427.0634                   21396421.9344
 11  8  3  3 12  0.0000000  0  7G29G10G26G25G12G05G02
  16832479.72746                  14272490.56344  22851767.6174   22851765.3914
 -21566893.71146 -16711880.97743  22941289.4694                   22941287.3134
  30260715.51645                  24007042.17642  24203063.5704   24203061.7624
   -812670.73847   -550710.83245  21589193.5004                   21589192.1484
 -20515893.53547 -15943103.76245  21188637.3444                   21188634.1094
 -18930362.54747 -14661569.55146  20246227.3914                   20246224.1334
 -38608464.08647 -30039158.35945  21386643.5474                   21386638.8404
 11  8  3  3 12 30.0000000  0  7G29G10G26G25G12G05G02
  16661279.69146                  14139088.01244  22819189.1174   22819186.5784
 -21557610.48446 -16704647.29343  22943056.2734                   22943053.5664
  30075715.82845                  23862886.62142  24167859.8444   24167857.5044
   -915011.74247   -630457.06245  21569718.3984                   21569717.7624
 -20552379.04347 -15971534.02745  21181695.0394                   21181691.4534
 -19008521.06247 -14722472.26646  20231354.2114                   20231351.3754
 -38659761.26247 -30079130.18045  21376882.1644                   21376877.1764
 11  8  3  3 13  0.0000000  0  7G29G10G26G25G12G05G02
  16490135.96946                  14005729.30144  22786621.8914   22786619.2854
 -21548070.40646 -16697213.48843  22944871.9924                   22944869.3524
  29890696.14146                  23718715.47742  24132651.1954   24132649.7154
  -1016760.89547   -709742.10545  21550355.8054                   21550355.0514
 -20588370.61347 -15999579.42245  21174845.8054                   21174842.0594
 -19086113.75447 -14782934.09446  20216588.8674                   20216585.5634
 -38710945.87147 -30119014.27745  21367142.2974                   21367137.0474
 11  8  3  3 13 30.0000000  0  7G29G10G26G25G12G05G02
  16319050.21946                  13872415.77744  22754064.1334   22754062.5634
 -21538276.28946 -16689581.71143  22946735.9384                   22946732.6254
  29705660.12146                  23574531.62143  24097439.7424   24097438.4804
  -1117917.68047   -788565.56645  21531106.2424                   21531105.4184
 -20623870.21147 -16027241.44145  21168090.5474                   21168087.2894
 -19163141.51647 -14842955.70746  20201931.0864                   20201927.6804
 -38762017.75847 -30158810.53945  21357423.6804                   21357418.6914
 11  8  3  3 14  0.0000000  0  7G29G10G26G25G12G05G02
  16148023.65246                  13739148.39544  22721519.8204   22721517.2344
 -21528231.32846 -16681754.49243  22948647.7734                   22948644.7344
  29520610.41846                  23430337.09042  24062226.4774   24062224.7074
  -1218482.43747   -866927.69945  21511969.3834                   21511968.7274
 -20658879.87147 -16054521.69145  21161427.5944                   21161424.9064
 -19239606.03147 -14902538.43046  20187380.2664                   20187377.3014
 -38812978.09447 -30198519.88345  21347726.0394                   21347721.0904
 11  8  3  3 14 30.0000000  0  7G29G10G26G25G12G05G02
  15977058.34846                  13605928.74244  22688985.9844   22688983.7854
 -21517938.27046 -16673733.93743  22950605.6884                   22950602.9494
  29335550.58246                  23286134.65643  24027011.0164   24027008.3244
  -1318454.71947   -944828.17645  21492945.1724                   21492944.5314
 -20693401.97747 -16081422.05145  21154858.3204                   21154855.5554
 -19315508.12947 -14961682.91046  20172936.5784                   20172933.1334
 -38863826.77347 -30238142.22745  21338049.8594                   21338044.7464
 11  8  3  3 15  0.0000000  0  7G29G10G26G25G12G05G02
  15806153.43446                  13472756.12944  22656464.2114   22656461.5904
 -21507401.90646 -16665523.77043  22952610.8134                   22952607.8554
  29150481.71946                  23141925.17642  23991793.4224   23991791.3324
  -1417836.45347  -1022268.46945  21474033.8754                   21474032.8324
 -20727440.71947 -16107945.75445  21148381.2664                   21148378.1844
 -19390850.59047 -15020391.31646  20158599.0164                   20158595.9264
 -38914566.14547 -30277679.38745  21328394.2034                   21328389.4654
 11  8  3  3 15 30.0000000  0  7G29G10G26G25G12G05G02
  17210737.86746                  14567237.56344  22923747.7344   22923744.8164
 -19921204.18446 -15429525.54743  23254453.6484                   23254451.3444
  30540834.85945                  24225317.27342  24256367.5704   24256366.1134
     58797.10947    128355.09845  21755027.5634                   21755027.0044
 -19185575.42647 -14906492.28545  21441788.0314                   21441785.3014
 -17890210.90247 -13851061.67246  20444161.6174                   20444158.2194
 -37389773.48047 -29089529.26645  21618552.6724                   21618547.7464
 11  8  3  3 16  0.0000000  0  7G29G10G26G25G12G05G02
  17039962.10546                  14434165.60244  22891250.0944   22891247.8164
 -19910187.40646 -15420941.06243  23256550.7504                   23256548.3444
  30355760.91445                  24081103.84042  24221149.2504   24221147.7464
    -39400.55947     51837.44545  21736341.4144                   21736340.5394
 -19218650.80147 -14932265.31245  21435494.5634                   21435491.2114
 -17964435.03147 -13908898.64546  20430037.6334                   20430034.1914
 -37440292.69147 -29128894.86745  21608939.0004                   21608934.3324
 11  8  3  3 16 30.0000000  0  7G29G10G26G25G12G05G02
  16869253.68846                  14301146.12944  22858765.3204   22858762.8244
 -19898934.37946 -15412172.48043  23258691.6024                   23258690.0514
  30170689.31645                  23936892.26642  24185931.5004   24185930.6724
   -137005.93047    -24218.68445  21717768.1254                   21717766.7624
 -19251248.14547 -14957665.84445  21429291.7584                   21429288.0704
 -18038101.51647 -13966301.08246  20416019.0314                   20416015.5354
 -37490702.32847 -29168175.11745  21599346.6484                   21599341.3794
 11  8  3  3 17  0.0000000  0  7G29G10G26G25G12G05G02
  16698613.00046                  14168179.42644  22826292.8054   22826290.5594
 -19887449.20346 -15403222.98443  23260877.3594                   23260874.8674
  29985621.92646                  23792683.88342  24150714.2894   24150713.3134
   -234020.45347    -99814.41045  21699306.4694                   21699305.9884
 -19283370.89847 -14982696.56645  21423178.6884                   21423175.5824
 -18111213.10247 -14023271.13346  20402106.2894                   20402102.9924
 -37541003.80147 -29207371.05545  21589774.8754                   21589769.5004
 11  8  3  3 17 30.0000000  0  7G29G10G26G25G12G05G02
  16528043.44946                  14035268.16444  22793834.2424   22793832.5594
 -19875733.00846 -15394093.50443  23263107.3204                   23263104.5664
  29800563.94146                  23648482.87142  24115499.1414   24115498.1844
   -330442.22747   -174948.24245  21680958.2194                   21680957.2894
 -19315019.12147 -15007357.52045  21417156.2114                   21417152.5084
 -18183769.14847 -14079808.30946  20388299.3524                   20388295.8284
 -37591195.78947 -29246481.69945  21580223.5394                   21580217.9414
 11  8  3  3 18  0.0000000  0  7G29G10G26G25G12G05G02
  16357545.52746                  13902412.72744  22761388.9534   22761387.4104
 -19863789.41046 -15384786.81643  23265379.9384                   23265377.5984
  29615517.45346                  23504290.88342  24080285.7344   24080284.5004
   -426272.32447   -249621.03145  21662722.4774                   21662721.0434
 -19346196.64547 -15031651.71145  21411222.6484                   21411219.8714
 -18255771.90647 -14135914.34046  20374597.3594                   20374594.2624
 -37641279.58247 -29285508.00445  21570692.7664                   21570687.6334
 11  8  3  3 18 30.0000000  0  7G29G10G26G25G12G05G02
  16187120.63746                  13769614.19144  22728958.8444   22728956.9264
 -19851621.95346 -15375305.68043  23267695.7584                   23267693.3284
  29430485.72346                  23360110.42242  24045075.5784   24045074.0514
   -521511.34047   -323833.25445  21644599.1564                   21644598.1724
 -19376906.10547 -15055581.18045  21405379.1954                   21405376.6524
 -18327223.11347 -14191590.59046  20361000.6024                   20360997.6454
 -37691256.04747 -29324450.71545  21561182.4844                   21561177.1954
 11  8  3  3 19  0.0000000  0  7G29G10G26G25G12G05G02
  16016768.99246                  13636872.70744  22696542.3364   22696539.6334
 -19839235.01646 -15365653.53943  23270052.1724                   23270050.2584
  29245470.57446                  23215942.78943  24009869.0234   24009867.0944
   -616160.69147   -397585.98045  21626587.5394                   21626586.9344
 -19407150.96547 -15079148.60945  21399623.5944                   21399620.8244
 -18398125.30147 -14246839.04746  20347508.5554                   20347505.5744
 -37741127.00447 -29363311.19145  21551692.3204                   21551686.8914
 11  8  3  3 19 30.0000000  0  7G29G10G26G25G12G05G02
  15846492.14146                  13504189.54744  22664138.8984   22664137.6884
 -19826631.45746 -15355832.59043  23272451.0864                   23272448.3914
  29060474.87946                  23071790.30543  23974664.9144   23974662.9654
   -710220.91447   -470879.65245  21608688.7424                   21608687.9654
 -19436934.22347 -15102356.35245  21393957.0394                   21393953.4924
 -18468480.24247 -14301661.06246  20334120.6024                   20334117.6134
 -37790893.13347 -29402089.99645  21542221.9304                   21542217.0864
 11  8  3  3 20  0.0000000  0  7G29G10G26G25G12G05G02
  15676295.81646                  13371569.10944  22631751.5084   22631749.6174
 -19813809.93046 -15345841.82443  23274890.8054                   23274887.7114
  28875506.10246                  22927658.82043  23939466.6414   23939464.5474
   -803688.04747   -543711.17645  21590902.6174                   21590901.9024
 -19466254.01647 -15125202.94545  21388377.5164                   21388373.7974
 -18538285.29347 -14356054.60546  20320836.7974                   20320833.8484
 -37840550.48047 -29440784.02345  21532772.5164                   21532767.5164
 11  8  3  3 20 30.0000000  0  7G29G10G26G25G12G05G02
  15506181.76646                  13239012.77744  22599380.5394   22599378.3364
 -19800773.39846 -15335683.50043  23277371.5634                   23277368.5474
  28690567.55546                  22783550.85942  23904274.3134   23904271.7544
   -896562.19547   -616080.63345  21573229.7034                   21573228.4064
 -19495112.36347 -15147689.96945  21382885.8444                   21382882.2624
 -18607541.71947 -14410020.64146  20307657.7974                   20307655.0704
 -37890099.12547 -29479393.35545  21523343.5234                   21523338.7894
 11  8  3  3 21  0.0000000  0  7G29G10G26G25G12G05G02
  15336149.85547                  13106520.44144  22567024.5784   22567021.6644
 -19787526.70746 -15325361.41843  23279892.7424                   23279889.3984
  28505660.48045                  22639467.47743  23869087.1724   23869085.7074
   -988845.71147   -687989.85245  21555667.8444                   21555667.0124
 -19523514.41047 -15169821.43745  21377481.2734                   21377477.6724
 -18676252.73847 -14463561.68046  20294583.1564                   20294579.2034
 -37939541.57447 -29517919.93045  21513935.2814                   21513930.1024
 11  8  3  3 21 30.0000000  0  7G29G10G26G25G12G05G02
  15166200.41047                  12974092.37944  22534684.0704   22534681.3054
 -19774073.98846 -15314878.77343  23282452.3754                   23282449.7304
  28320786.83246                  22495410.11743  23833906.9844   23833904.9184
  -1080540.30547   -759440.16845  21538219.1644                   21538218.0824
 -19551463.44147 -15191599.91445  21372162.8054                   21372159.4144
 -18744421.23847 -14516679.98046  20281610.5634                   20281607.0354
 -37988879.61347 -29556365.14845  21504546.5314                   21504541.3554
 11  8  3  3 22  0.0000000  0  7G29G10G26G25G12G05G02
  14996337.15247                  12841731.46944  22502360.3284   22502357.4024
 -19760415.91046 -15304236.11743  23285051.0164                   23285048.8134
  28135952.24246                  22351383.20343  23798734.3754   23798732.1134
  -1171643.97747   -830430.03545  21520882.2114                   21520882.1254
 -19578960.20347 -15213025.97745  21366930.2344                   21366926.8754
 -18812046.22347 -14569374.76646  20268741.9064                   20268738.7424
 -38038111.18047 -29594727.39845  21495178.4534                   21495172.7384
 11  8  3  3 22 30.0000000  0  7G29G10G26G25G12G05G02
  14826558.85947                  12709436.75444  22470052.0084   22470050.0124
 -19746558.64846 -15293438.26643  23287688.0314                   23287685.6334
  27951156.88746                  22207386.85943  23763569.2734   23763567.1334
  -1262160.14847   -900962.10945  21503657.7344                   21503657.2934
 -19606010.16047 -15234103.86745  21361782.3284                   21361779.4614
 -18879132.34447 -14621649.66046  20255976.1724                   20255972.7304
 -38087239.96947 -29633009.55545  21485829.3364                   21485824.2734
 11  8  3  3 23  0.0000000  0  7G29G10G26G25G12G05G02
  14656869.77747                  12577211.55944  22437761.7194   22437759.1524
 -19732502.23846 -15282485.23043  23290362.9614                   23290361.1174
  27766406.68445                  22063425.69943  23728412.2114   23728409.4184
  -1352086.64847   -971034.68045  21486545.6724                   21486544.8794
 -19632613.00047 -15254833.35945  21356720.0864                   21356717.0744
 -18945678.84847 -14673504.07046  20243312.5234                   20243309.1174
 -38136263.61347 -29671209.80545  21476500.7274                   21476495.6524
 11  8  3  3 23 30.0000000  0  7G29G10G26G25G12G05G02
  14487272.25446                  12445057.69544  22405488.3134   22405485.5474
 -19718248.80146 -15271378.66843  23293076.4694                   23293073.2664
  27581705.60246                  21919502.83642  23693264.1804   23693262.2624
  -1441423.34447  -1040647.68745  21469545.3284                   21469544.2304
 -19658770.70347 -15275215.99245  21351742.6884                   21351739.3834
 -19011686.57047 -14724938.65646  20230751.6414                   20230748.4144
 -38185181.87147 -29709327.92245  21467191.0864                   21467186.6914
 11  8  3  3 24  0.0000000  0  7G29G10G26G25G12G05G02
  14317766.65247                  12312975.46944  22373232.1094   22373229.9064
 -19703803.16446 -15260122.35243  23295824.7584                   23295822.2464
  27397055.34446                  21775619.58243  23658126.8914   23658124.5274
  -1530172.08247  -1109802.54745  21452657.1094                   21452656.3554
 -19684487.40247 -15295254.98045  21346848.5554                   21346845.7034
 -19077158.84447 -14775956.00046  20218292.8284                   20218289.7424
 -38233996.49247 -29747365.28545  21457901.9534                   21457897.2424
 11  8  3  3 24 30.0000000  0  7G29G10G26G25G12G05G02
  15723779.73047                  13408570.12144  22640787.5234   22640785.4304
 -18113749.16046 -14021119.23843  23598401.4454                   23598399.6334
  28787884.91446                  22859382.90643  23922792.5164   23922790.3204
    -42911.11747     49102.11745  21735673.4774                   21735672.6524
 -18134345.50847 -14087352.21545  21641830.9384                   21641827.9534
 -17566675.20747 -13598955.75046  20505728.1644                   20505725.1294
 -36707286.63347 -28557721.25045  21748425.2814                   21748420.6454
 11  8  3  3 25  0.0000000  0  7G29G10G26G25G12G05G02
  15554462.94147                  13276635.03544  22608567.5634   22608565.2034
 -18098927.52746 -14009569.94143  23601222.4774                   23601219.9804
  28603346.11746  22715586.49643  23887676.1254                   23887674.0944
   -130485.82047    -19137.90245  21719008.4144                   21719007.5904
 -18159188.23847 -14106710.19145  21637103.7424                   21637100.5634
 -17631080.61347 -13649141.77346  20493472.6564                   20493468.8324
 -36755894.94947 -28595597.85945  21739175.7584                   21739170.4264
 11  8  3  3 25 30.0000000  0  7G29G10G26G25G12G05G02
  15385246.17247                  13144777.86344  22576366.9694   22576364.2734
 -18083918.76646 -13997874.79743  23604079.2274                   23604075.8404
  28418871.35546  22571839.94543  23852571.1564                   23852569.3014
   -217470.86347    -86918.45345  21702455.2424                   21702455.0554
 -18183594.61747 -14125728.14545  21632459.0864                   21632456.2664
 -17694952.03547 -13698911.70346  20481318.5004                   20481314.2194
 -36804397.33247 -28633391.93045  21729946.1564                   21729941.0434
 11  8  3  3 26  0.0000000  0  7G29G10G26G25G12G05G02
  15216129.17246                  13012998.43444  22544184.7734   22544182.6374
 -18068727.80546 -13986037.71543  23606969.2424                   23606967.1454
  28234462.00046  22428144.39543  23817479.5634                   23817477.3094
   -303869.04347   -154241.69145  21686014.6884                   21686013.4344
 -18207569.48047 -14144409.87145  21627896.9384                   21627894.1174
 -17758293.11747 -13748268.39146  20469264.4384                   20469261.4734
 -36852796.27747 -28671105.39845  21720736.1024                   21720731.1884
 11  8  3  3 26 30.0000000  0  7G29G10G26G25G12G05G02
  15047114.48047                  12881298.73844  22512021.7034   22512019.8284
 -18053356.90646 -13974060.40243  23609893.8364                   23609891.5044
  28050121.88746  22284502.77043  23782401.2814                   23782398.7774
   -389680.32047   -221107.60945  21669685.4694                   21669684.9414
 -18231114.71147 -14162756.80545  21623417.0314                   21623413.4924
 -17821104.67647 -13797212.45346  20457312.1724                   20457308.6294
 -36901091.53547 -28708738.07845  21711546.0474                   21711540.4224
 11  8  3  3 27  0.0000000  0  7G29G10G26G25G12G05G02
  14878203.62146                  12749679.94544  22479879.7034   22479877.1724
 -18037809.07446 -13961945.22743  23612852.9694                   23612850.2074
  27865854.08646  22140917.50443  23747335.4924                   23747333.6134
   -474905.58247   -287516.89845  21653467.1724                   21653466.4534
 -18254233.24647 -14180771.25045  21619017.0704                   21619014.2154
 -17883389.32047 -13845745.93446  20445459.7734                   20445456.2814
 -36949283.63747 -28746290.35245  21702375.1724                   21702369.7774
 11  8  3  3 27 30.0000000  0  7G29G10G26G25G12G05G02
  14709397.69947                  12618142.91044  22447757.3984   22447754.0234
 -18022087.41046 -13949694.60243  23615844.2114                   23615842.2854
  27681661.67246  21997390.97742  23712285.0084                   23712282.7464
   -559545.80547   -353470.32045  21637361.2504                   21637360.2034
 -18276927.94547 -14198455.44545  21614698.2344                   21614695.3834
 -17945148.30147 -13893869.81246  20433707.2894                   20433703.5434
 -36997373.25047 -28783762.79745  21693224.3204                   21693219.1484
 11  8  3  3 28  0.0000000  0  7G29G10G26G25G12G05G02
  14540697.90647                  12486688.58244  22415654.3754   22415651.9454
 -18006195.77346 -13937311.51643  23618868.5554                   23618866.3204
  27497546.98845  21853925.00443  23677248.5084                   23677246.5434
   -643602.66047   -418969.16045  21621365.0474                   21621364.8444
 -18299202.84047 -14215812.51245  21610459.8444                   21610456.6564
 -18006384.61747 -13941586.40246  20422054.0944                   20422050.8054
 -37045361.46547 -28821156.21145  21684092.2584                   21684086.9774
 11  8  3  3 28 30.0000000  0  8G29G10G26G25G12G15G05G02
  14372104.69947                  12355317.31344  22383572.1644   22383569.7544
 -17990138.39846 -13924799.27043  23621924.3524                   23621921.6254
  27313512.13746  21710521.28143  23642227.6724                   23642226.1174
   -727078.15647   -484014.98845  21605480.2664                   21605479.8134
 -18321061.99247 -14232845.62545  21606300.1884                   21606296.8554
  39054137.53155  30586445.32852  24592353.1414                   24592353.1024
 -18067101.38347 -13988898.16446  20410499.9304                   20410496.8984
 -37093250.04747 -28858472.00445  21674979.2344                   21674973.9104
 11  8  3  3 29  0.0000000  0  8G29G10G26G25G12G15G05G02
  14203618.50847                  12224029.41844  22351510.3364   22351507.5044
 -17973919.36746 -13912161.07043  23625010.5864                   23625008.8364
  27129559.11346  21567181.31643  23607223.0474                   23607221.4184
   -809974.41447   -548609.46945  21589705.7734                   21589705.1764
 -18342509.44947 -14249557.93745  21602218.9454                   21602215.9574
  38871241.65245  30443929.12942  24557549.4534                   24557549.3594
 -18127301.63347 -14035807.44946  20399044.3524                   20399041.4414
 -37141040.52047 -28895711.34845  21665885.3834                   21665880.0864
 11  8  3  3 29 30.0000000  0  8G29G10G26G25G12G15G05G02
  14035240.87947                  12092826.09444  22319468.6954   22319465.8204
 -17957541.88346 -13899399.37943  23628127.1254                   23628124.4224
  26945690.98846  21423907.51643  23572234.0944                   23572232.4224
   -892292.41847   -612753.36345  21574041.1174                   21574040.4574
 -18363547.56247 -14265951.27745  21598214.9924                   21598212.2934
  38688231.34445  30301323.80542  24522724.0784                   24522723.1994
 -18186987.64547 -14082316.01646  20387686.5474                   20387683.2194
 -37188733.54347 -28932874.75845  21656809.2894                   21656804.6094
 11  8  3  3 30  0.0000000  0  8G29G10G26G25G12G15G05G02
  13866971.42647                  11961707.08644  22287448.7274   22287445.6524
 -17941010.75446 -13886517.98843  23631272.6174                   23631269.8444
  26761909.35246  21280701.04343  23537262.2034                   23537259.3754
   -974034.90247   -676448.80545  21558486.3674                   21558485.4734
 -18384181.55947 -14282029.71545  21594289.1024                   21594286.0944
  38505107.11345  30158629.69942  24487875.9694                   24487876.3094
 -18246163.11347 -14128426.76646  20376426.0864                   20376422.2774
 -37236331.15247 -28969963.82045  21647751.9844                   21647746.5784
 11  8  3  3 30 30.0000000  0  8G29G10G26G25G12G15G05G02
  13698815.78547                  11830676.75044  22255450.0394   22255447.0864
 -17924324.79746 -13873515.93443  23634447.6724                   23634445.8754
  26578221.18046  21137567.45342  23502307.6094                   23502304.4654
  -1055198.96547   -739693.52045  21543041.0234                   21543040.6174
 -18404410.48447 -14297792.53145  21590439.3444                   21590436.3054
  38321875.26245  30015851.71542  24453008.8444                   24453008.1334
 -18304825.80147 -14174137.94146  20365262.3364                   20365259.4144
 -37283829.84447 -29006975.79745  21638713.1024                   21638707.7114
 11  8  3  3 31  0.0000000  0  8G29G10G26G25G12G15G05G02
  13530775.06347                  11699735.96944  22223471.8754   22223469.3094
 -17907487.83646 -13860396.21943  23637651.3444                   23637648.6374
  26394629.14846  20994508.81343  23467370.0554                   23467367.9064
  -1135786.23847   -802488.79345  21527705.5554                   21527705.0434
 -18424238.17247 -14313242.68445  21586666.4144                   21586663.2274
  38138537.16845  29872990.96942  24418120.2734                   24418119.8204
 -18362978.50047 -14219451.71946  20354196.8364                   20354193.3364
 -37331230.81647 -29043911.62545  21629692.9064                   21629688.1094
 11  8  3  3 31 30.0000000  0  8G29G10G26G25G12G15G05G02
  13362853.11347                  11568887.73444  22191517.8444   22191514.6024
 -17890500.46146 -13847159.31242  23640884.7814                   23640881.5784
  26211138.74646  20851529.30543  23432454.1414                   23432450.8164
  -1215795.64847   -864833.78945  21512480.8134                   21512479.7664
 -18443665.27047 -14328380.69145  21582969.7814                   21582966.5124
  37955097.40246  29730050.99642  24383212.2664                   24383211.6764
 -18420621.25447 -14264368.14146  20343227.3754                   20343224.3134
 -37378532.25847 -29080769.91045  21620692.1644                   21620686.8324
 11  8  3  3 32  0.0000000  0  8G29G10G26G25G12G15G05G02
  13195052.17647                  11438133.78944  22159586.3594   22159583.1844
 -17873365.03946 -13833807.02043  23644145.7664                   23644142.7854
  26027753.84846  20708632.02043  23397556.6094                   23397554.7384
  -1295227.42247   -926728.66445  21497365.6414                   21497364.6604
 -18462693.71547 -14343208.04745  21579348.8204                   21579345.5274
  37771559.00445  29587034.13742  24348287.7424                   24348285.2894
 -18477755.40247 -14308888.25446  20332355.6564                   20332352.3914
 -37425733.91447 -29117550.42645  21611709.7664                   21611704.5084
 11  8  3  3 32 30.0000000  0  8G29G10G26G25G12G15G05G02
  13027373.05147                  11307474.74244  22127677.7274   22127674.8524
 -17856085.71146 -13820342.57043  23647433.3674                   23647431.0784
  25844476.65646  20565818.66443  23362680.4384                   23362678.3324
  -1374083.79347   -988175.18445  21482359.3134                   21482358.6294
 -18481327.82047 -14357728.14545  21575802.9064                   21575799.3404
  37587923.01645  29443941.22342  24313341.5394                   24313340.5634
 -18534383.92247 -14353014.37146  20321579.0394                   20321576.0434
 -37472837.42647 -29154254.48045  21602746.1414                   21602741.4884
 11  8  3  3 33  0.0000000  0  8G29G10G26G25G12G15G05G02
  14435243.04747                  12404516.32844  22395587.3674   22395583.8594
 -16263245.80546 -12579168.64842  23950540.1174                   23950538.6134
  27236736.52346  21650696.55143  23627618.2584                   23627616.1454
    123056.77747    178427.86345  21767255.8834                   21767255.2464
 -16924149.89147 -13144342.73445  21872123.5474                   21872120.3244
  38979617.91845  30528378.94943  24578171.8674                   24578170.9924
 -17015086.77347 -13169146.45346  20610691.5864                   20610688.5044
 -35944421.40647 -27963280.96145  21893594.4384                   21893588.8364
